<?xml version="1.0" encoding="UTF-8" standalone="no" ?>
<gpx xmlns="http://www.topografix.com/GPX/1/1" xmlns:xsi="http://www.w3.org/2001/XMLSchema-instance" xsi:schemaLocation="http://www.topografix.com/GPX/1/1 http://www.topografix.com/GPX/1/1/gpx.xsd" version="1.1" creator="VisuGPX - https://www.visugpx.com">
  <metadata>
    <name>Pilon du Roi - Col Ste Anne</name>
    <desc><![CDATA[On ne s'en lasse pas...]]></desc>
  </metadata>
  <trk>
    <name><![CDATA[2020-12-12 17:58:37]]></name>
    <trkseg>
      <trkpt lat="43.42897" lon="5.43479">
        <ele>193.84</ele>
        <time>2020-12-12T10:13:03Z</time>
      </trkpt>
      <trkpt lat="43.42891" lon="5.43472">
        <ele>190.96</ele>
        <time>2020-12-12T10:13:09Z</time>
      </trkpt>
      <trkpt lat="43.42891" lon="5.43466">
        <ele>200.09</ele>
        <time>2020-12-12T10:13:16Z</time>
      </trkpt>
      <trkpt lat="43.42886" lon="5.43446">
        <ele>203.94</ele>
        <time>2020-12-12T10:13:29Z</time>
      </trkpt>
      <trkpt lat="43.42884" lon="5.43434">
        <ele>202.98</ele>
        <time>2020-12-12T10:13:39Z</time>
      </trkpt>
      <trkpt lat="43.42882" lon="5.43426">
        <ele>202.98</ele>
        <time>2020-12-12T10:13:43Z</time>
      </trkpt>
      <trkpt lat="43.42881" lon="5.43416">
        <ele>207.78</ele>
        <time>2020-12-12T10:13:49Z</time>
      </trkpt>
      <trkpt lat="43.42879" lon="5.43408">
        <ele>211.63</ele>
        <time>2020-12-12T10:13:56Z</time>
      </trkpt>
      <trkpt lat="43.42882" lon="5.43377">
        <ele>220.76</ele>
        <time>2020-12-12T10:14:10Z</time>
      </trkpt>
      <trkpt lat="43.42888" lon="5.43351">
        <ele>226.05</ele>
        <time>2020-12-12T10:14:20Z</time>
      </trkpt>
      <trkpt lat="43.42898" lon="5.43304">
        <ele>239.02</ele>
        <time>2020-12-12T10:14:36Z</time>
      </trkpt>
      <trkpt lat="43.42902" lon="5.43275">
        <ele>246.72</ele>
        <time>2020-12-12T10:14:51Z</time>
      </trkpt>
      <trkpt lat="43.429" lon="5.43255">
        <ele>254.41</ele>
        <time>2020-12-12T10:15:04Z</time>
      </trkpt>
      <trkpt lat="43.42897" lon="5.43246">
        <ele>259.21</ele>
        <time>2020-12-12T10:15:12Z</time>
      </trkpt>
      <trkpt lat="43.42896" lon="5.43223">
        <ele>269.31</ele>
        <time>2020-12-12T10:15:26Z</time>
      </trkpt>
      <trkpt lat="43.42887" lon="5.43204">
        <ele>277</ele>
        <time>2020-12-12T10:15:39Z</time>
      </trkpt>
      <trkpt lat="43.42883" lon="5.43181">
        <ele>287.57</ele>
        <time>2020-12-12T10:15:51Z</time>
      </trkpt>
      <trkpt lat="43.42879" lon="5.43173">
        <ele>288.53</ele>
        <time>2020-12-12T10:15:56Z</time>
      </trkpt>
      <trkpt lat="43.42856" lon="5.43161">
        <ele>286.61</ele>
        <time>2020-12-12T10:16:13Z</time>
      </trkpt>
      <trkpt lat="43.42839" lon="5.43157">
        <ele>285.17</ele>
        <time>2020-12-12T10:16:28Z</time>
      </trkpt>
      <trkpt lat="43.42827" lon="5.43154">
        <ele>281.32</ele>
        <time>2020-12-12T10:16:43Z</time>
      </trkpt>
      <trkpt lat="43.4283" lon="5.43138">
        <ele>279.4</ele>
        <time>2020-12-12T10:16:58Z</time>
      </trkpt>
      <trkpt lat="43.42835" lon="5.4312">
        <ele>279.88</ele>
        <time>2020-12-12T10:17:12Z</time>
      </trkpt>
      <trkpt lat="43.42841" lon="5.43097">
        <ele>279.88</ele>
        <time>2020-12-12T10:17:25Z</time>
      </trkpt>
      <trkpt lat="43.42842" lon="5.43081">
        <ele>277.48</ele>
        <time>2020-12-12T10:17:36Z</time>
      </trkpt>
      <trkpt lat="43.42844" lon="5.43065">
        <ele>272.19</ele>
        <time>2020-12-12T10:17:48Z</time>
      </trkpt>
      <trkpt lat="43.42846" lon="5.43044">
        <ele>266.42</ele>
        <time>2020-12-12T10:18:02Z</time>
      </trkpt>
      <trkpt lat="43.42849" lon="5.43026">
        <ele>264.98</ele>
        <time>2020-12-12T10:18:15Z</time>
      </trkpt>
      <trkpt lat="43.42848" lon="5.4301">
        <ele>261.62</ele>
        <time>2020-12-12T10:18:27Z</time>
      </trkpt>
      <trkpt lat="43.42836" lon="5.42993">
        <ele>253.93</ele>
        <time>2020-12-12T10:18:43Z</time>
      </trkpt>
      <trkpt lat="43.42835" lon="5.42972">
        <ele>255.85</ele>
        <time>2020-12-12T10:18:55Z</time>
      </trkpt>
      <trkpt lat="43.42831" lon="5.42957">
        <ele>252.48</ele>
        <time>2020-12-12T10:19:08Z</time>
      </trkpt>
      <trkpt lat="43.42833" lon="5.42937">
        <ele>258.73</ele>
        <time>2020-12-12T10:19:24Z</time>
      </trkpt>
      <trkpt lat="43.42829" lon="5.42925">
        <ele>267.38</ele>
        <time>2020-12-12T10:19:39Z</time>
      </trkpt>
      <trkpt lat="43.42828" lon="5.42904">
        <ele>272.67</ele>
        <time>2020-12-12T10:19:54Z</time>
      </trkpt>
      <trkpt lat="43.42829" lon="5.42899">
        <ele>273.63</ele>
        <time>2020-12-12T10:19:59Z</time>
      </trkpt>
      <trkpt lat="43.42835" lon="5.42883">
        <ele>274.59</ele>
        <time>2020-12-12T10:20:11Z</time>
      </trkpt>
      <trkpt lat="43.42834" lon="5.42869">
        <ele>273.63</ele>
        <time>2020-12-12T10:20:25Z</time>
      </trkpt>
      <trkpt lat="43.42837" lon="5.42851">
        <ele>272.19</ele>
        <time>2020-12-12T10:20:40Z</time>
      </trkpt>
      <trkpt lat="43.42843" lon="5.42823">
        <ele>273.63</ele>
        <time>2020-12-12T10:20:57Z</time>
      </trkpt>
      <trkpt lat="43.42849" lon="5.42806">
        <ele>270.75</ele>
        <time>2020-12-12T10:21:12Z</time>
      </trkpt>
      <trkpt lat="43.42855" lon="5.42785">
        <ele>271.23</ele>
        <time>2020-12-12T10:21:24Z</time>
      </trkpt>
      <trkpt lat="43.42853" lon="5.42763">
        <ele>269.79</ele>
        <time>2020-12-12T10:21:39Z</time>
      </trkpt>
      <trkpt lat="43.42855" lon="5.42742">
        <ele>271.71</ele>
        <time>2020-12-12T10:21:53Z</time>
      </trkpt>
      <trkpt lat="43.42851" lon="5.42728">
        <ele>274.59</ele>
        <time>2020-12-12T10:22:07Z</time>
      </trkpt>
      <trkpt lat="43.42857" lon="5.42705">
        <ele>279.4</ele>
        <time>2020-12-12T10:22:22Z</time>
      </trkpt>
      <trkpt lat="43.42854" lon="5.42684">
        <ele>281.32</ele>
        <time>2020-12-12T10:22:36Z</time>
      </trkpt>
      <trkpt lat="43.4285" lon="5.42662">
        <ele>283.25</ele>
        <time>2020-12-12T10:22:49Z</time>
      </trkpt>
      <trkpt lat="43.42843" lon="5.42649">
        <ele>282.77</ele>
        <time>2020-12-12T10:23:00Z</time>
      </trkpt>
      <trkpt lat="43.42833" lon="5.42636">
        <ele>283.25</ele>
        <time>2020-12-12T10:23:12Z</time>
      </trkpt>
      <trkpt lat="43.42826" lon="5.42622">
        <ele>287.09</ele>
        <time>2020-12-12T10:23:25Z</time>
      </trkpt>
      <trkpt lat="43.42825" lon="5.42606">
        <ele>292.38</ele>
        <time>2020-12-12T10:23:37Z</time>
      </trkpt>
      <trkpt lat="43.42811" lon="5.42596">
        <ele>292.86</ele>
        <time>2020-12-12T10:23:48Z</time>
      </trkpt>
      <trkpt lat="43.42794" lon="5.42588">
        <ele>293.34</ele>
        <time>2020-12-12T10:24:02Z</time>
      </trkpt>
      <trkpt lat="43.42782" lon="5.42584">
        <ele>289.49</ele>
        <time>2020-12-12T10:24:15Z</time>
      </trkpt>
      <trkpt lat="43.42775" lon="5.42572">
        <ele>290.94</ele>
        <time>2020-12-12T10:24:29Z</time>
      </trkpt>
      <trkpt lat="43.42766" lon="5.42569">
        <ele>289.01</ele>
        <time>2020-12-12T10:24:36Z</time>
      </trkpt>
      <trkpt lat="43.4276" lon="5.42558">
        <ele>288.05</ele>
        <time>2020-12-12T10:24:49Z</time>
      </trkpt>
      <trkpt lat="43.42749" lon="5.42548">
        <ele>286.61</ele>
        <time>2020-12-12T10:25:02Z</time>
      </trkpt>
      <trkpt lat="43.42744" lon="5.42533">
        <ele>289.01</ele>
        <time>2020-12-12T10:25:17Z</time>
      </trkpt>
      <trkpt lat="43.42738" lon="5.42515">
        <ele>291.9</ele>
        <time>2020-12-12T10:25:33Z</time>
      </trkpt>
      <trkpt lat="43.42736" lon="5.4251">
        <ele>291.9</ele>
        <time>2020-12-12T10:25:38Z</time>
      </trkpt>
      <trkpt lat="43.42726" lon="5.42487">
        <ele>295.26</ele>
        <time>2020-12-12T10:25:57Z</time>
      </trkpt>
      <trkpt lat="43.42721" lon="5.42469">
        <ele>296.22</ele>
        <time>2020-12-12T10:26:10Z</time>
      </trkpt>
      <trkpt lat="43.42714" lon="5.42454">
        <ele>294.3</ele>
        <time>2020-12-12T10:26:22Z</time>
      </trkpt>
      <trkpt lat="43.42705" lon="5.42442">
        <ele>288.53</ele>
        <time>2020-12-12T10:26:35Z</time>
      </trkpt>
      <trkpt lat="43.42701" lon="5.4243">
        <ele>289.49</ele>
        <time>2020-12-12T10:26:48Z</time>
      </trkpt>
      <trkpt lat="43.42694" lon="5.42415">
        <ele>290.94</ele>
        <time>2020-12-12T10:27:04Z</time>
      </trkpt>
      <trkpt lat="43.4269" lon="5.42405">
        <ele>293.34</ele>
        <time>2020-12-12T10:27:19Z</time>
      </trkpt>
      <trkpt lat="43.42695" lon="5.4239">
        <ele>297.67</ele>
        <time>2020-12-12T10:27:35Z</time>
      </trkpt>
      <trkpt lat="43.42698" lon="5.42382">
        <ele>301.99</ele>
        <time>2020-12-12T10:27:52Z</time>
      </trkpt>
      <trkpt lat="43.42698" lon="5.42384">
        <ele>300.55</ele>
        <time>2020-12-12T10:28:05Z</time>
      </trkpt>
      <trkpt lat="43.42704" lon="5.42384">
        <ele>292.86</ele>
        <time>2020-12-12T10:28:20Z</time>
      </trkpt>
      <trkpt lat="43.42698" lon="5.42381">
        <ele>285.17</ele>
        <time>2020-12-12T10:28:40Z</time>
      </trkpt>
      <trkpt lat="43.42695" lon="5.42373">
        <ele>279.88</ele>
        <time>2020-12-12T10:29:03Z</time>
      </trkpt>
      <trkpt lat="43.42694" lon="5.42379">
        <ele>277</ele>
        <time>2020-12-12T10:29:31Z</time>
      </trkpt>
      <trkpt lat="43.42696" lon="5.42379">
        <ele>271.23</ele>
        <time>2020-12-12T10:29:53Z</time>
      </trkpt>
      <trkpt lat="43.42696" lon="5.42378">
        <ele>266.42</ele>
        <time>2020-12-12T10:30:12Z</time>
      </trkpt>
      <trkpt lat="43.42694" lon="5.42378">
        <ele>258.73</ele>
        <time>2020-12-12T10:30:38Z</time>
      </trkpt>
      <trkpt lat="43.42697" lon="5.42372">
        <ele>254.41</ele>
        <time>2020-12-12T10:30:58Z</time>
      </trkpt>
      <trkpt lat="43.42689" lon="5.42375">
        <ele>239.99</ele>
        <time>2020-12-12T10:31:13Z</time>
      </trkpt>
      <trkpt lat="43.42693" lon="5.42364">
        <ele>239.02</ele>
        <time>2020-12-12T10:31:27Z</time>
      </trkpt>
      <trkpt lat="43.42696" lon="5.42356">
        <ele>239.51</ele>
        <time>2020-12-12T10:31:39Z</time>
      </trkpt>
      <trkpt lat="43.42704" lon="5.42344">
        <ele>239.02</ele>
        <time>2020-12-12T10:31:54Z</time>
      </trkpt>
      <trkpt lat="43.4271" lon="5.42328">
        <ele>242.87</ele>
        <time>2020-12-12T10:32:08Z</time>
      </trkpt>
      <trkpt lat="43.42721" lon="5.42298">
        <ele>246.72</ele>
        <time>2020-12-12T10:32:21Z</time>
      </trkpt>
      <trkpt lat="43.42728" lon="5.42274">
        <ele>246.72</ele>
        <time>2020-12-12T10:32:37Z</time>
      </trkpt>
      <trkpt lat="43.42726" lon="5.42259">
        <ele>247.68</ele>
        <time>2020-12-12T10:32:58Z</time>
      </trkpt>
      <trkpt lat="43.42711" lon="5.42255">
        <ele>239.51</ele>
        <time>2020-12-12T10:33:14Z</time>
      </trkpt>
      <trkpt lat="43.42706" lon="5.42235">
        <ele>239.51</ele>
        <time>2020-12-12T10:33:32Z</time>
      </trkpt>
      <trkpt lat="43.42702" lon="5.42223">
        <ele>239.02</ele>
        <time>2020-12-12T10:33:46Z</time>
      </trkpt>
      <trkpt lat="43.42689" lon="5.42213">
        <ele>239.99</ele>
        <time>2020-12-12T10:34:00Z</time>
      </trkpt>
      <trkpt lat="43.42683" lon="5.4219">
        <ele>242.87</ele>
        <time>2020-12-12T10:34:19Z</time>
      </trkpt>
      <trkpt lat="43.42677" lon="5.42182">
        <ele>250.08</ele>
        <time>2020-12-12T10:34:37Z</time>
      </trkpt>
      <trkpt lat="43.42679" lon="5.4216">
        <ele>252.48</ele>
        <time>2020-12-12T10:34:55Z</time>
      </trkpt>
      <trkpt lat="43.42681" lon="5.42145">
        <ele>251.04</ele>
        <time>2020-12-12T10:35:08Z</time>
      </trkpt>
      <trkpt lat="43.42677" lon="5.4213">
        <ele>250.56</ele>
        <time>2020-12-12T10:35:24Z</time>
      </trkpt>
      <trkpt lat="43.42673" lon="5.4211">
        <ele>249.12</ele>
        <time>2020-12-12T10:35:41Z</time>
      </trkpt>
      <trkpt lat="43.42678" lon="5.42086">
        <ele>249.12</ele>
        <time>2020-12-12T10:35:57Z</time>
      </trkpt>
      <trkpt lat="43.42676" lon="5.42072">
        <ele>251.04</ele>
        <time>2020-12-12T10:36:15Z</time>
      </trkpt>
      <trkpt lat="43.4268" lon="5.42064">
        <ele>252.48</ele>
        <time>2020-12-12T10:36:40Z</time>
      </trkpt>
      <trkpt lat="43.42682" lon="5.42061">
        <ele>251.52</ele>
        <time>2020-12-12T10:37:04Z</time>
      </trkpt>
      <trkpt lat="43.42671" lon="5.4206">
        <ele>243.35</ele>
        <time>2020-12-12T10:37:24Z</time>
      </trkpt>
      <trkpt lat="43.4267" lon="5.42043">
        <ele>242.87</ele>
        <time>2020-12-12T10:37:38Z</time>
      </trkpt>
      <trkpt lat="43.42659" lon="5.42027">
        <ele>246.72</ele>
        <time>2020-12-12T10:37:53Z</time>
      </trkpt>
      <trkpt lat="43.42644" lon="5.42013">
        <ele>243.35</ele>
        <time>2020-12-12T10:38:08Z</time>
      </trkpt>
      <trkpt lat="43.42628" lon="5.42008">
        <ele>241.43</ele>
        <time>2020-12-12T10:38:20Z</time>
      </trkpt>
      <trkpt lat="43.4262" lon="5.42002">
        <ele>238.06</ele>
        <time>2020-12-12T10:38:27Z</time>
      </trkpt>
      <trkpt lat="43.42606" lon="5.42004">
        <ele>233.74</ele>
        <time>2020-12-12T10:38:42Z</time>
      </trkpt>
      <trkpt lat="43.42594" lon="5.42006">
        <ele>231.33</ele>
        <time>2020-12-12T10:38:55Z</time>
      </trkpt>
      <trkpt lat="43.42583" lon="5.42002">
        <ele>230.85</ele>
        <time>2020-12-12T10:39:06Z</time>
      </trkpt>
      <trkpt lat="43.42579" lon="5.42001">
        <ele>232.3</ele>
        <time>2020-12-12T10:39:13Z</time>
      </trkpt>
      <trkpt lat="43.42576" lon="5.41987">
        <ele>236.62</ele>
        <time>2020-12-12T10:39:26Z</time>
      </trkpt>
      <trkpt lat="43.42573" lon="5.41973">
        <ele>240.95</ele>
        <time>2020-12-12T10:39:43Z</time>
      </trkpt>
      <trkpt lat="43.42565" lon="5.41957">
        <ele>243.35</ele>
        <time>2020-12-12T10:39:57Z</time>
      </trkpt>
      <trkpt lat="43.42547" lon="5.41949">
        <ele>238.06</ele>
        <time>2020-12-12T10:40:12Z</time>
      </trkpt>
      <trkpt lat="43.42532" lon="5.4194">
        <ele>241.91</ele>
        <time>2020-12-12T10:40:29Z</time>
      </trkpt>
      <trkpt lat="43.42527" lon="5.41937">
        <ele>248.64</ele>
        <time>2020-12-12T10:40:47Z</time>
      </trkpt>
      <trkpt lat="43.42518" lon="5.41939">
        <ele>251.04</ele>
        <time>2020-12-12T10:40:59Z</time>
      </trkpt>
      <trkpt lat="43.42503" lon="5.41944">
        <ele>252.48</ele>
        <time>2020-12-12T10:41:11Z</time>
      </trkpt>
      <trkpt lat="43.42496" lon="5.41958">
        <ele>252.96</ele>
        <time>2020-12-12T10:41:26Z</time>
      </trkpt>
      <trkpt lat="43.42492" lon="5.4196">
        <ele>254.41</ele>
        <time>2020-12-12T10:41:43Z</time>
      </trkpt>
      <trkpt lat="43.42496" lon="5.41964">
        <ele>253.93</ele>
        <time>2020-12-12T10:41:59Z</time>
      </trkpt>
      <trkpt lat="43.42502" lon="5.41965">
        <ele>255.85</ele>
        <time>2020-12-12T10:42:19Z</time>
      </trkpt>
      <trkpt lat="43.42501" lon="5.4196">
        <ele>257.77</ele>
        <time>2020-12-12T10:42:39Z</time>
      </trkpt>
      <trkpt lat="43.42498" lon="5.41959">
        <ele>257.77</ele>
        <time>2020-12-12T10:42:52Z</time>
      </trkpt>
      <trkpt lat="43.42494" lon="5.41959">
        <ele>253.93</ele>
        <time>2020-12-12T10:43:14Z</time>
      </trkpt>
      <trkpt lat="43.42498" lon="5.41962">
        <ele>255.85</ele>
        <time>2020-12-12T10:43:31Z</time>
      </trkpt>
      <trkpt lat="43.42495" lon="5.41969">
        <ele>256.81</ele>
        <time>2020-12-12T10:43:47Z</time>
      </trkpt>
      <trkpt lat="43.42491" lon="5.41977">
        <ele>260.17</ele>
        <time>2020-12-12T10:44:04Z</time>
      </trkpt>
      <trkpt lat="43.42483" lon="5.41979">
        <ele>262.1</ele>
        <time>2020-12-12T10:44:16Z</time>
      </trkpt>
      <trkpt lat="43.42469" lon="5.41986">
        <ele>264.98</ele>
        <time>2020-12-12T10:44:34Z</time>
      </trkpt>
      <trkpt lat="43.42464" lon="5.42005">
        <ele>266.9</ele>
        <time>2020-12-12T10:44:48Z</time>
      </trkpt>
      <trkpt lat="43.42464" lon="5.42017">
        <ele>269.79</ele>
        <time>2020-12-12T10:44:58Z</time>
      </trkpt>
      <trkpt lat="43.42463" lon="5.42038">
        <ele>272.19</ele>
        <time>2020-12-12T10:45:13Z</time>
      </trkpt>
      <trkpt lat="43.42458" lon="5.42049">
        <ele>270.27</ele>
        <time>2020-12-12T10:45:22Z</time>
      </trkpt>
      <trkpt lat="43.42451" lon="5.42061">
        <ele>268.35</ele>
        <time>2020-12-12T10:45:33Z</time>
      </trkpt>
      <trkpt lat="43.4245" lon="5.42064">
        <ele>267.86</ele>
        <time>2020-12-12T10:45:35Z</time>
      </trkpt>
      <trkpt lat="43.42448" lon="5.42082">
        <ele>266.9</ele>
        <time>2020-12-12T10:45:50Z</time>
      </trkpt>
      <trkpt lat="43.42449" lon="5.421">
        <ele>268.35</ele>
        <time>2020-12-12T10:46:02Z</time>
      </trkpt>
      <trkpt lat="43.42447" lon="5.42113">
        <ele>264.98</ele>
        <time>2020-12-12T10:46:14Z</time>
      </trkpt>
      <trkpt lat="43.42443" lon="5.42127">
        <ele>262.1</ele>
        <time>2020-12-12T10:46:28Z</time>
      </trkpt>
      <trkpt lat="43.42437" lon="5.4214">
        <ele>261.62</ele>
        <time>2020-12-12T10:46:44Z</time>
      </trkpt>
      <trkpt lat="43.42431" lon="5.42149">
        <ele>263.06</ele>
        <time>2020-12-12T10:46:58Z</time>
      </trkpt>
      <trkpt lat="43.42423" lon="5.4216">
        <ele>258.73</ele>
        <time>2020-12-12T10:47:09Z</time>
      </trkpt>
      <trkpt lat="43.4242" lon="5.42161">
        <ele>257.77</ele>
        <time>2020-12-12T10:47:13Z</time>
      </trkpt>
      <trkpt lat="43.42411" lon="5.42168">
        <ele>259.21</ele>
        <time>2020-12-12T10:47:27Z</time>
      </trkpt>
      <trkpt lat="43.42408" lon="5.42174">
        <ele>255.85</ele>
        <time>2020-12-12T10:47:38Z</time>
      </trkpt>
      <trkpt lat="43.42398" lon="5.42179">
        <ele>256.81</ele>
        <time>2020-12-12T10:47:50Z</time>
      </trkpt>
      <trkpt lat="43.42389" lon="5.42186">
        <ele>256.33</ele>
        <time>2020-12-12T10:48:00Z</time>
      </trkpt>
      <trkpt lat="43.42387" lon="5.4219">
        <ele>256.81</ele>
        <time>2020-12-12T10:48:03Z</time>
      </trkpt>
      <trkpt lat="43.42384" lon="5.42193">
        <ele>256.33</ele>
        <time>2020-12-12T10:48:07Z</time>
      </trkpt>
      <trkpt lat="43.42376" lon="5.42208">
        <ele>254.89</ele>
        <time>2020-12-12T10:48:19Z</time>
      </trkpt>
      <trkpt lat="43.42374" lon="5.42209">
        <ele>255.37</ele>
        <time>2020-12-12T10:48:21Z</time>
      </trkpt>
      <trkpt lat="43.42364" lon="5.42218">
        <ele>255.37</ele>
        <time>2020-12-12T10:48:32Z</time>
      </trkpt>
      <trkpt lat="43.42361" lon="5.42222">
        <ele>255.37</ele>
        <time>2020-12-12T10:48:36Z</time>
      </trkpt>
      <trkpt lat="43.42347" lon="5.42231">
        <ele>258.25</ele>
        <time>2020-12-12T10:48:52Z</time>
      </trkpt>
      <trkpt lat="43.42335" lon="5.42243">
        <ele>259.21</ele>
        <time>2020-12-12T10:49:05Z</time>
      </trkpt>
      <trkpt lat="43.42333" lon="5.42245">
        <ele>259.21</ele>
        <time>2020-12-12T10:49:08Z</time>
      </trkpt>
      <trkpt lat="43.42319" lon="5.42249">
        <ele>259.21</ele>
        <time>2020-12-12T10:49:22Z</time>
      </trkpt>
      <trkpt lat="43.42306" lon="5.42252">
        <ele>258.25</ele>
        <time>2020-12-12T10:49:36Z</time>
      </trkpt>
      <trkpt lat="43.42294" lon="5.42258">
        <ele>259.69</ele>
        <time>2020-12-12T10:49:48Z</time>
      </trkpt>
      <trkpt lat="43.42292" lon="5.42259">
        <ele>260.17</ele>
        <time>2020-12-12T10:49:50Z</time>
      </trkpt>
      <trkpt lat="43.42283" lon="5.42275">
        <ele>262.58</ele>
        <time>2020-12-12T10:50:05Z</time>
      </trkpt>
      <trkpt lat="43.42281" lon="5.42278">
        <ele>262.58</ele>
        <time>2020-12-12T10:50:08Z</time>
      </trkpt>
      <trkpt lat="43.42275" lon="5.42288">
        <ele>259.69</ele>
        <time>2020-12-12T10:50:17Z</time>
      </trkpt>
      <trkpt lat="43.42266" lon="5.42301">
        <ele>257.77</ele>
        <time>2020-12-12T10:50:30Z</time>
      </trkpt>
      <trkpt lat="43.42264" lon="5.42309">
        <ele>256.81</ele>
        <time>2020-12-12T10:50:36Z</time>
      </trkpt>
      <trkpt lat="43.42257" lon="5.42329">
        <ele>251.52</ele>
        <time>2020-12-12T10:50:50Z</time>
      </trkpt>
      <trkpt lat="43.42251" lon="5.42344">
        <ele>248.64</ele>
        <time>2020-12-12T10:51:02Z</time>
      </trkpt>
      <trkpt lat="43.42248" lon="5.42347">
        <ele>248.16</ele>
        <time>2020-12-12T10:51:05Z</time>
      </trkpt>
      <trkpt lat="43.42244" lon="5.42351">
        <ele>248.64</ele>
        <time>2020-12-12T10:51:10Z</time>
      </trkpt>
      <trkpt lat="43.42235" lon="5.42358">
        <ele>250.56</ele>
        <time>2020-12-12T10:51:22Z</time>
      </trkpt>
      <trkpt lat="43.42232" lon="5.42359">
        <ele>251.04</ele>
        <time>2020-12-12T10:51:25Z</time>
      </trkpt>
      <trkpt lat="43.42219" lon="5.42366">
        <ele>253.93</ele>
        <time>2020-12-12T10:51:40Z</time>
      </trkpt>
      <trkpt lat="43.42207" lon="5.42384">
        <ele>257.29</ele>
        <time>2020-12-12T10:51:57Z</time>
      </trkpt>
      <trkpt lat="43.42201" lon="5.42396">
        <ele>262.58</ele>
        <time>2020-12-12T10:52:08Z</time>
      </trkpt>
      <trkpt lat="43.42197" lon="5.42403">
        <ele>266.42</ele>
        <time>2020-12-12T10:52:16Z</time>
      </trkpt>
      <trkpt lat="43.42195" lon="5.42406">
        <ele>267.38</ele>
        <time>2020-12-12T10:52:18Z</time>
      </trkpt>
      <trkpt lat="43.42194" lon="5.42408">
        <ele>268.83</ele>
        <time>2020-12-12T10:52:20Z</time>
      </trkpt>
      <trkpt lat="43.42185" lon="5.42419">
        <ele>274.11</ele>
        <time>2020-12-12T10:52:33Z</time>
      </trkpt>
      <trkpt lat="43.42179" lon="5.42422">
        <ele>275.56</ele>
        <time>2020-12-12T10:52:40Z</time>
      </trkpt>
      <trkpt lat="43.42167" lon="5.42431">
        <ele>277</ele>
        <time>2020-12-12T10:52:52Z</time>
      </trkpt>
      <trkpt lat="43.42154" lon="5.42441">
        <ele>275.07</ele>
        <time>2020-12-12T10:53:06Z</time>
      </trkpt>
      <trkpt lat="43.42141" lon="5.42445">
        <ele>273.63</ele>
        <time>2020-12-12T10:53:22Z</time>
      </trkpt>
      <trkpt lat="43.42127" lon="5.42446">
        <ele>273.63</ele>
        <time>2020-12-12T10:53:36Z</time>
      </trkpt>
      <trkpt lat="43.42107" lon="5.42441">
        <ele>267.86</ele>
        <time>2020-12-12T10:53:51Z</time>
      </trkpt>
      <trkpt lat="43.42089" lon="5.42433">
        <ele>262.58</ele>
        <time>2020-12-12T10:54:10Z</time>
      </trkpt>
      <trkpt lat="43.42078" lon="5.42421">
        <ele>261.14</ele>
        <time>2020-12-12T10:54:27Z</time>
      </trkpt>
      <trkpt lat="43.42073" lon="5.42414">
        <ele>262.58</ele>
        <time>2020-12-12T10:54:34Z</time>
      </trkpt>
      <trkpt lat="43.42056" lon="5.42402">
        <ele>263.06</ele>
        <time>2020-12-12T10:54:51Z</time>
      </trkpt>
      <trkpt lat="43.42042" lon="5.42408">
        <ele>263.54</ele>
        <time>2020-12-12T10:55:06Z</time>
      </trkpt>
      <trkpt lat="43.42035" lon="5.42425">
        <ele>265.94</ele>
        <time>2020-12-12T10:55:21Z</time>
      </trkpt>
      <trkpt lat="43.4203" lon="5.42442">
        <ele>274.59</ele>
        <time>2020-12-12T10:55:36Z</time>
      </trkpt>
      <trkpt lat="43.42025" lon="5.4245">
        <ele>282.77</ele>
        <time>2020-12-12T10:55:46Z</time>
      </trkpt>
      <trkpt lat="43.42014" lon="5.42464">
        <ele>287.09</ele>
        <time>2020-12-12T10:56:02Z</time>
      </trkpt>
      <trkpt lat="43.42009" lon="5.42468">
        <ele>289.49</ele>
        <time>2020-12-12T10:56:09Z</time>
      </trkpt>
      <trkpt lat="43.41998" lon="5.42477">
        <ele>292.86</ele>
        <time>2020-12-12T10:56:25Z</time>
      </trkpt>
      <trkpt lat="43.41988" lon="5.4248">
        <ele>294.78</ele>
        <time>2020-12-12T10:56:40Z</time>
      </trkpt>
      <trkpt lat="43.41975" lon="5.42478">
        <ele>293.34</ele>
        <time>2020-12-12T10:56:53Z</time>
      </trkpt>
      <trkpt lat="43.41962" lon="5.42484">
        <ele>289.97</ele>
        <time>2020-12-12T10:57:08Z</time>
      </trkpt>
      <trkpt lat="43.41959" lon="5.42487">
        <ele>289.97</ele>
        <time>2020-12-12T10:57:12Z</time>
      </trkpt>
      <trkpt lat="43.41952" lon="5.42496">
        <ele>287.57</ele>
        <time>2020-12-12T10:57:21Z</time>
      </trkpt>
      <trkpt lat="43.41945" lon="5.42513">
        <ele>289.97</ele>
        <time>2020-12-12T10:57:35Z</time>
      </trkpt>
      <trkpt lat="43.41938" lon="5.42532">
        <ele>289.49</ele>
        <time>2020-12-12T10:57:51Z</time>
      </trkpt>
      <trkpt lat="43.41934" lon="5.42545">
        <ele>291.42</ele>
        <time>2020-12-12T10:58:02Z</time>
      </trkpt>
      <trkpt lat="43.41924" lon="5.42556">
        <ele>295.74</ele>
        <time>2020-12-12T10:58:18Z</time>
      </trkpt>
      <trkpt lat="43.41919" lon="5.42559">
        <ele>296.7</ele>
        <time>2020-12-12T10:58:24Z</time>
      </trkpt>
      <trkpt lat="43.4191" lon="5.42566">
        <ele>299.11</ele>
        <time>2020-12-12T10:58:36Z</time>
      </trkpt>
      <trkpt lat="43.41899" lon="5.42568">
        <ele>301.03</ele>
        <time>2020-12-12T10:58:50Z</time>
      </trkpt>
      <trkpt lat="43.41886" lon="5.42569">
        <ele>303.43</ele>
        <time>2020-12-12T10:59:06Z</time>
      </trkpt>
      <trkpt lat="43.41872" lon="5.42577">
        <ele>306.8</ele>
        <time>2020-12-12T10:59:21Z</time>
      </trkpt>
      <trkpt lat="43.41859" lon="5.42589">
        <ele>308.72</ele>
        <time>2020-12-12T10:59:37Z</time>
      </trkpt>
      <trkpt lat="43.41852" lon="5.42599">
        <ele>306.32</ele>
        <time>2020-12-12T10:59:47Z</time>
      </trkpt>
      <trkpt lat="43.41846" lon="5.42603">
        <ele>305.36</ele>
        <time>2020-12-12T10:59:54Z</time>
      </trkpt>
      <trkpt lat="43.41843" lon="5.42606">
        <ele>304.39</ele>
        <time>2020-12-12T10:59:58Z</time>
      </trkpt>
      <trkpt lat="43.41833" lon="5.42617">
        <ele>305.36</ele>
        <time>2020-12-12T11:00:13Z</time>
      </trkpt>
      <trkpt lat="43.41821" lon="5.42627">
        <ele>303.43</ele>
        <time>2020-12-12T11:00:27Z</time>
      </trkpt>
      <trkpt lat="43.41808" lon="5.42631">
        <ele>297.18</ele>
        <time>2020-12-12T11:00:41Z</time>
      </trkpt>
      <trkpt lat="43.41794" lon="5.42635">
        <ele>291.42</ele>
        <time>2020-12-12T11:00:57Z</time>
      </trkpt>
      <trkpt lat="43.41779" lon="5.42639">
        <ele>288.05</ele>
        <time>2020-12-12T11:01:14Z</time>
      </trkpt>
      <trkpt lat="43.41769" lon="5.42638">
        <ele>287.57</ele>
        <time>2020-12-12T11:01:32Z</time>
      </trkpt>
      <trkpt lat="43.41769" lon="5.42635">
        <ele>286.61</ele>
        <time>2020-12-12T11:01:50Z</time>
      </trkpt>
      <trkpt lat="43.41765" lon="5.42634">
        <ele>285.17</ele>
        <time>2020-12-12T11:02:22Z</time>
      </trkpt>
      <trkpt lat="43.41756" lon="5.42626">
        <ele>284.69</ele>
        <time>2020-12-12T11:02:39Z</time>
      </trkpt>
      <trkpt lat="43.41744" lon="5.4262">
        <ele>287.57</ele>
        <time>2020-12-12T11:02:56Z</time>
      </trkpt>
      <trkpt lat="43.41731" lon="5.42614">
        <ele>297.67</ele>
        <time>2020-12-12T11:03:15Z</time>
      </trkpt>
      <trkpt lat="43.41712" lon="5.4261">
        <ele>304.39</ele>
        <time>2020-12-12T11:03:36Z</time>
      </trkpt>
      <trkpt lat="43.4169" lon="5.42613">
        <ele>312.57</ele>
        <time>2020-12-12T11:03:56Z</time>
      </trkpt>
      <trkpt lat="43.41685" lon="5.42628">
        <ele>318.33</ele>
        <time>2020-12-12T11:04:11Z</time>
      </trkpt>
      <trkpt lat="43.41683" lon="5.42645">
        <ele>320.26</ele>
        <time>2020-12-12T11:04:23Z</time>
      </trkpt>
      <trkpt lat="43.41679" lon="5.42655">
        <ele>324.58</ele>
        <time>2020-12-12T11:04:35Z</time>
      </trkpt>
      <trkpt lat="43.41668" lon="5.42668">
        <ele>331.31</ele>
        <time>2020-12-12T11:04:52Z</time>
      </trkpt>
      <trkpt lat="43.41654" lon="5.42676">
        <ele>331.79</ele>
        <time>2020-12-12T11:05:08Z</time>
      </trkpt>
      <trkpt lat="43.41651" lon="5.4268">
        <ele>329.87</ele>
        <time>2020-12-12T11:05:13Z</time>
      </trkpt>
      <trkpt lat="43.4164" lon="5.42683">
        <ele>330.35</ele>
        <time>2020-12-12T11:05:29Z</time>
      </trkpt>
      <trkpt lat="43.41628" lon="5.42682">
        <ele>320.26</ele>
        <time>2020-12-12T11:05:47Z</time>
      </trkpt>
      <trkpt lat="43.41622" lon="5.42687">
        <ele>317.37</ele>
        <time>2020-12-12T11:06:04Z</time>
      </trkpt>
      <trkpt lat="43.41621" lon="5.42693">
        <ele>313.53</ele>
        <time>2020-12-12T11:06:33Z</time>
      </trkpt>
      <trkpt lat="43.41623" lon="5.42682">
        <ele>316.41</ele>
        <time>2020-12-12T11:07:07Z</time>
      </trkpt>
      <trkpt lat="43.41606" lon="5.4268">
        <ele>315.45</ele>
        <time>2020-12-12T11:07:25Z</time>
      </trkpt>
      <trkpt lat="43.41595" lon="5.42673">
        <ele>320.26</ele>
        <time>2020-12-12T11:07:39Z</time>
      </trkpt>
      <trkpt lat="43.41584" lon="5.42673">
        <ele>318.33</ele>
        <time>2020-12-12T11:07:51Z</time>
      </trkpt>
      <trkpt lat="43.4157" lon="5.42668">
        <ele>319.3</ele>
        <time>2020-12-12T11:08:04Z</time>
      </trkpt>
      <trkpt lat="43.4155" lon="5.42674">
        <ele>318.81</ele>
        <time>2020-12-12T11:08:23Z</time>
      </trkpt>
      <trkpt lat="43.41534" lon="5.42682">
        <ele>319.3</ele>
        <time>2020-12-12T11:08:36Z</time>
      </trkpt>
      <trkpt lat="43.41528" lon="5.427">
        <ele>318.33</ele>
        <time>2020-12-12T11:08:49Z</time>
      </trkpt>
      <trkpt lat="43.41522" lon="5.42715">
        <ele>319.78</ele>
        <time>2020-12-12T11:09:01Z</time>
      </trkpt>
      <trkpt lat="43.41517" lon="5.42731">
        <ele>321.7</ele>
        <time>2020-12-12T11:09:14Z</time>
      </trkpt>
      <trkpt lat="43.41512" lon="5.4275">
        <ele>321.22</ele>
        <time>2020-12-12T11:09:28Z</time>
      </trkpt>
      <trkpt lat="43.41509" lon="5.42775">
        <ele>321.22</ele>
        <time>2020-12-12T11:09:44Z</time>
      </trkpt>
      <trkpt lat="43.41509" lon="5.42794">
        <ele>322.18</ele>
        <time>2020-12-12T11:09:56Z</time>
      </trkpt>
      <trkpt lat="43.41507" lon="5.42821">
        <ele>324.58</ele>
        <time>2020-12-12T11:10:14Z</time>
      </trkpt>
      <trkpt lat="43.41504" lon="5.4284">
        <ele>322.66</ele>
        <time>2020-12-12T11:10:27Z</time>
      </trkpt>
      <trkpt lat="43.41504" lon="5.42858">
        <ele>323.14</ele>
        <time>2020-12-12T11:10:40Z</time>
      </trkpt>
      <trkpt lat="43.41503" lon="5.42875">
        <ele>324.1</ele>
        <time>2020-12-12T11:10:52Z</time>
      </trkpt>
      <trkpt lat="43.41501" lon="5.42893">
        <ele>319.78</ele>
        <time>2020-12-12T11:11:03Z</time>
      </trkpt>
      <trkpt lat="43.41498" lon="5.42915">
        <ele>318.81</ele>
        <time>2020-12-12T11:11:18Z</time>
      </trkpt>
      <trkpt lat="43.41495" lon="5.42939">
        <ele>320.26</ele>
        <time>2020-12-12T11:11:35Z</time>
      </trkpt>
      <trkpt lat="43.41494" lon="5.42958">
        <ele>321.7</ele>
        <time>2020-12-12T11:11:49Z</time>
      </trkpt>
      <trkpt lat="43.4149" lon="5.42966">
        <ele>321.7</ele>
        <time>2020-12-12T11:11:57Z</time>
      </trkpt>
      <trkpt lat="43.41476" lon="5.42962">
        <ele>318.81</ele>
        <time>2020-12-12T11:12:13Z</time>
      </trkpt>
      <trkpt lat="43.41474" lon="5.42961">
        <ele>318.33</ele>
        <time>2020-12-12T11:12:16Z</time>
      </trkpt>
      <trkpt lat="43.4147" lon="5.42962">
        <ele>316.89</ele>
        <time>2020-12-12T11:12:20Z</time>
      </trkpt>
      <trkpt lat="43.41462" lon="5.42965">
        <ele>317.85</ele>
        <time>2020-12-12T11:12:30Z</time>
      </trkpt>
      <trkpt lat="43.41457" lon="5.42981">
        <ele>313.53</ele>
        <time>2020-12-12T11:12:42Z</time>
      </trkpt>
      <trkpt lat="43.41455" lon="5.42983">
        <ele>313.53</ele>
        <time>2020-12-12T11:12:45Z</time>
      </trkpt>
      <trkpt lat="43.41452" lon="5.42983">
        <ele>311.12</ele>
        <time>2020-12-12T11:12:58Z</time>
      </trkpt>
      <trkpt lat="43.4145" lon="5.42982">
        <ele>309.2</ele>
        <time>2020-12-12T11:13:13Z</time>
      </trkpt>
      <trkpt lat="43.41459" lon="5.42969">
        <ele>308.24</ele>
        <time>2020-12-12T11:13:24Z</time>
      </trkpt>
      <trkpt lat="43.41462" lon="5.42964">
        <ele>309.2</ele>
        <time>2020-12-12T11:13:29Z</time>
      </trkpt>
      <trkpt lat="43.41469" lon="5.42944">
        <ele>313.53</ele>
        <time>2020-12-12T11:13:45Z</time>
      </trkpt>
      <trkpt lat="43.41474" lon="5.42921">
        <ele>318.81</ele>
        <time>2020-12-12T11:14:01Z</time>
      </trkpt>
      <trkpt lat="43.41475" lon="5.42899">
        <ele>320.74</ele>
        <time>2020-12-12T11:14:17Z</time>
      </trkpt>
      <trkpt lat="43.41478" lon="5.42887">
        <ele>320.74</ele>
        <time>2020-12-12T11:14:25Z</time>
      </trkpt>
      <trkpt lat="43.41478" lon="5.42866">
        <ele>323.14</ele>
        <time>2020-12-12T11:14:40Z</time>
      </trkpt>
      <trkpt lat="43.41471" lon="5.42847">
        <ele>321.7</ele>
        <time>2020-12-12T11:14:53Z</time>
      </trkpt>
      <trkpt lat="43.41468" lon="5.4283">
        <ele>320.26</ele>
        <time>2020-12-12T11:15:05Z</time>
      </trkpt>
      <trkpt lat="43.41467" lon="5.42811">
        <ele>318.81</ele>
        <time>2020-12-12T11:15:19Z</time>
      </trkpt>
      <trkpt lat="43.41468" lon="5.42792">
        <ele>318.81</ele>
        <time>2020-12-12T11:15:33Z</time>
      </trkpt>
      <trkpt lat="43.41469" lon="5.42774">
        <ele>317.37</ele>
        <time>2020-12-12T11:15:44Z</time>
      </trkpt>
      <trkpt lat="43.41472" lon="5.42766">
        <ele>315.93</ele>
        <time>2020-12-12T11:15:49Z</time>
      </trkpt>
      <trkpt lat="43.41471" lon="5.42744">
        <ele>315.45</ele>
        <time>2020-12-12T11:16:04Z</time>
      </trkpt>
      <trkpt lat="43.41472" lon="5.42726">
        <ele>313.53</ele>
        <time>2020-12-12T11:16:16Z</time>
      </trkpt>
      <trkpt lat="43.41467" lon="5.42704">
        <ele>310.64</ele>
        <time>2020-12-12T11:16:30Z</time>
      </trkpt>
      <trkpt lat="43.41467" lon="5.42689">
        <ele>313.53</ele>
        <time>2020-12-12T11:16:42Z</time>
      </trkpt>
      <trkpt lat="43.4147" lon="5.42668">
        <ele>313.53</ele>
        <time>2020-12-12T11:16:56Z</time>
      </trkpt>
      <trkpt lat="43.41468" lon="5.42663">
        <ele>313.05</ele>
        <time>2020-12-12T11:16:59Z</time>
      </trkpt>
      <trkpt lat="43.41466" lon="5.42644">
        <ele>309.68</ele>
        <time>2020-12-12T11:17:14Z</time>
      </trkpt>
      <trkpt lat="43.41471" lon="5.42628">
        <ele>308.24</ele>
        <time>2020-12-12T11:17:27Z</time>
      </trkpt>
      <trkpt lat="43.41471" lon="5.42611">
        <ele>303.91</ele>
        <time>2020-12-12T11:17:39Z</time>
      </trkpt>
      <trkpt lat="43.4147" lon="5.42608">
        <ele>303.43</ele>
        <time>2020-12-12T11:17:41Z</time>
      </trkpt>
      <trkpt lat="43.4146" lon="5.4259">
        <ele>299.59</ele>
        <time>2020-12-12T11:17:56Z</time>
      </trkpt>
      <trkpt lat="43.41457" lon="5.42588">
        <ele>299.11</ele>
        <time>2020-12-12T11:17:58Z</time>
      </trkpt>
      <trkpt lat="43.41438" lon="5.42585">
        <ele>293.82</ele>
        <time>2020-12-12T11:18:13Z</time>
      </trkpt>
      <trkpt lat="43.41424" lon="5.42585">
        <ele>293.34</ele>
        <time>2020-12-12T11:18:27Z</time>
      </trkpt>
      <trkpt lat="43.41411" lon="5.42587">
        <ele>294.3</ele>
        <time>2020-12-12T11:18:40Z</time>
      </trkpt>
      <trkpt lat="43.41395" lon="5.42581">
        <ele>296.7</ele>
        <time>2020-12-12T11:18:56Z</time>
      </trkpt>
      <trkpt lat="43.41384" lon="5.42575">
        <ele>297.18</ele>
        <time>2020-12-12T11:19:09Z</time>
      </trkpt>
      <trkpt lat="43.41374" lon="5.42571">
        <ele>295.26</ele>
        <time>2020-12-12T11:19:21Z</time>
      </trkpt>
      <trkpt lat="43.41369" lon="5.42569">
        <ele>294.78</ele>
        <time>2020-12-12T11:19:26Z</time>
      </trkpt>
      <trkpt lat="43.41362" lon="5.42562">
        <ele>291.9</ele>
        <time>2020-12-12T11:19:39Z</time>
      </trkpt>
      <trkpt lat="43.41358" lon="5.42549">
        <ele>291.42</ele>
        <time>2020-12-12T11:19:53Z</time>
      </trkpt>
      <trkpt lat="43.41345" lon="5.42531">
        <ele>290.46</ele>
        <time>2020-12-12T11:20:07Z</time>
      </trkpt>
      <trkpt lat="43.41342" lon="5.42526">
        <ele>289.97</ele>
        <time>2020-12-12T11:20:13Z</time>
      </trkpt>
      <trkpt lat="43.41331" lon="5.42516">
        <ele>290.94</ele>
        <time>2020-12-12T11:20:25Z</time>
      </trkpt>
      <trkpt lat="43.41318" lon="5.42505">
        <ele>290.94</ele>
        <time>2020-12-12T11:20:41Z</time>
      </trkpt>
      <trkpt lat="43.41303" lon="5.42491">
        <ele>292.38</ele>
        <time>2020-12-12T11:20:58Z</time>
      </trkpt>
      <trkpt lat="43.41291" lon="5.42485">
        <ele>292.86</ele>
        <time>2020-12-12T11:21:13Z</time>
      </trkpt>
      <trkpt lat="43.41278" lon="5.42487">
        <ele>295.74</ele>
        <time>2020-12-12T11:21:27Z</time>
      </trkpt>
      <trkpt lat="43.41261" lon="5.42492">
        <ele>302.47</ele>
        <time>2020-12-12T11:21:42Z</time>
      </trkpt>
      <trkpt lat="43.41249" lon="5.42502">
        <ele>307.28</ele>
        <time>2020-12-12T11:21:55Z</time>
      </trkpt>
      <trkpt lat="43.4124" lon="5.42511">
        <ele>308.72</ele>
        <time>2020-12-12T11:22:10Z</time>
      </trkpt>
      <trkpt lat="43.41229" lon="5.4253">
        <ele>313.05</ele>
        <time>2020-12-12T11:22:27Z</time>
      </trkpt>
      <trkpt lat="43.41223" lon="5.42539">
        <ele>315.45</ele>
        <time>2020-12-12T11:22:37Z</time>
      </trkpt>
      <trkpt lat="43.41224" lon="5.4254">
        <ele>315.45</ele>
        <time>2020-12-12T11:22:38Z</time>
      </trkpt>
      <trkpt lat="43.41226" lon="5.42546">
        <ele>315.45</ele>
        <time>2020-12-12T11:22:40Z</time>
      </trkpt>
      <trkpt lat="43.41227" lon="5.4255">
        <ele>315.45</ele>
        <time>2020-12-12T11:22:41Z</time>
      </trkpt>
      <trkpt lat="43.41228" lon="5.42557">
        <ele>314.97</ele>
        <time>2020-12-12T11:22:52Z</time>
      </trkpt>
      <trkpt lat="43.41228" lon="5.42553">
        <ele>315.45</ele>
        <time>2020-12-12T11:22:56Z</time>
      </trkpt>
      <trkpt lat="43.41227" lon="5.4255">
        <ele>315.45</ele>
        <time>2020-12-12T11:23:00Z</time>
      </trkpt>
      <trkpt lat="43.41215" lon="5.42552">
        <ele>317.37</ele>
        <time>2020-12-12T11:23:12Z</time>
      </trkpt>
      <trkpt lat="43.41201" lon="5.42562">
        <ele>321.7</ele>
        <time>2020-12-12T11:23:26Z</time>
      </trkpt>
      <trkpt lat="43.4119" lon="5.42571">
        <ele>325.06</ele>
        <time>2020-12-12T11:23:39Z</time>
      </trkpt>
      <trkpt lat="43.41187" lon="5.42572">
        <ele>325.54</ele>
        <time>2020-12-12T11:23:42Z</time>
      </trkpt>
      <trkpt lat="43.41183" lon="5.42573">
        <ele>326.02</ele>
        <time>2020-12-12T11:23:46Z</time>
      </trkpt>
      <trkpt lat="43.41168" lon="5.42584">
        <ele>329.39</ele>
        <time>2020-12-12T11:24:04Z</time>
      </trkpt>
      <trkpt lat="43.4115" lon="5.42594">
        <ele>334.2</ele>
        <time>2020-12-12T11:24:25Z</time>
      </trkpt>
      <trkpt lat="43.41132" lon="5.42593">
        <ele>336.6</ele>
        <time>2020-12-12T11:24:40Z</time>
      </trkpt>
      <trkpt lat="43.41117" lon="5.42606">
        <ele>337.56</ele>
        <time>2020-12-12T11:24:54Z</time>
      </trkpt>
      <trkpt lat="43.41117" lon="5.42608">
        <ele>337.08</ele>
        <time>2020-12-12T11:24:55Z</time>
      </trkpt>
      <trkpt lat="43.41109" lon="5.42627">
        <ele>337.56</ele>
        <time>2020-12-12T11:25:11Z</time>
      </trkpt>
      <trkpt lat="43.41106" lon="5.42645">
        <ele>339</ele>
        <time>2020-12-12T11:25:25Z</time>
      </trkpt>
      <trkpt lat="43.41106" lon="5.42649">
        <ele>339</ele>
        <time>2020-12-12T11:25:43Z</time>
      </trkpt>
      <trkpt lat="43.41104" lon="5.42662">
        <ele>337.08</ele>
        <time>2020-12-12T11:25:57Z</time>
      </trkpt>
      <trkpt lat="43.41105" lon="5.42665">
        <ele>339.48</ele>
        <time>2020-12-12T11:26:16Z</time>
      </trkpt>
      <trkpt lat="43.41094" lon="5.42686">
        <ele>319.78</ele>
        <time>2020-12-12T11:26:36Z</time>
      </trkpt>
      <trkpt lat="43.41101" lon="5.42684">
        <ele>309.2</ele>
        <time>2020-12-12T11:27:04Z</time>
      </trkpt>
      <trkpt lat="43.41102" lon="5.42678">
        <ele>307.28</ele>
        <time>2020-12-12T11:27:16Z</time>
      </trkpt>
      <trkpt lat="43.41106" lon="5.42673">
        <ele>306.32</ele>
        <time>2020-12-12T11:27:43Z</time>
      </trkpt>
      <trkpt lat="43.4111" lon="5.42676">
        <ele>301.99</ele>
        <time>2020-12-12T11:27:58Z</time>
      </trkpt>
      <trkpt lat="43.41109" lon="5.42674">
        <ele>304.39</ele>
        <time>2020-12-12T11:28:27Z</time>
      </trkpt>
      <trkpt lat="43.4111" lon="5.42677">
        <ele>304.39</ele>
        <time>2020-12-12T11:28:46Z</time>
      </trkpt>
      <trkpt lat="43.4111" lon="5.42678">
        <ele>303.91</ele>
        <time>2020-12-12T11:28:47Z</time>
      </trkpt>
      <trkpt lat="43.41108" lon="5.42683">
        <ele>303.91</ele>
        <time>2020-12-12T11:29:01Z</time>
      </trkpt>
      <trkpt lat="43.41106" lon="5.42684">
        <ele>305.36</ele>
        <time>2020-12-12T11:29:15Z</time>
      </trkpt>
      <trkpt lat="43.41104" lon="5.42687">
        <ele>305.84</ele>
        <time>2020-12-12T11:29:19Z</time>
      </trkpt>
      <trkpt lat="43.41103" lon="5.42705">
        <ele>303.43</ele>
        <time>2020-12-12T11:29:34Z</time>
      </trkpt>
      <trkpt lat="43.41102" lon="5.42722">
        <ele>303.91</ele>
        <time>2020-12-12T11:29:49Z</time>
      </trkpt>
      <trkpt lat="43.41101" lon="5.42741">
        <ele>305.84</ele>
        <time>2020-12-12T11:30:04Z</time>
      </trkpt>
      <trkpt lat="43.41104" lon="5.42759">
        <ele>307.76</ele>
        <time>2020-12-12T11:30:20Z</time>
      </trkpt>
      <trkpt lat="43.41104" lon="5.4277">
        <ele>307.28</ele>
        <time>2020-12-12T11:30:34Z</time>
      </trkpt>
      <trkpt lat="43.41105" lon="5.42771">
        <ele>307.28</ele>
        <time>2020-12-12T11:30:45Z</time>
      </trkpt>
      <trkpt lat="43.41104" lon="5.42779">
        <ele>308.24</ele>
        <time>2020-12-12T11:30:58Z</time>
      </trkpt>
      <trkpt lat="43.41104" lon="5.42781">
        <ele>308.24</ele>
        <time>2020-12-12T11:31:00Z</time>
      </trkpt>
      <trkpt lat="43.41102" lon="5.42802">
        <ele>308.72</ele>
        <time>2020-12-12T11:31:18Z</time>
      </trkpt>
      <trkpt lat="43.411" lon="5.42822">
        <ele>310.16</ele>
        <time>2020-12-12T11:31:34Z</time>
      </trkpt>
      <trkpt lat="43.411" lon="5.42823">
        <ele>310.16</ele>
        <time>2020-12-12T11:31:35Z</time>
      </trkpt>
      <trkpt lat="43.41096" lon="5.42843">
        <ele>310.64</ele>
        <time>2020-12-12T11:31:52Z</time>
      </trkpt>
      <trkpt lat="43.41092" lon="5.42853">
        <ele>312.57</ele>
        <time>2020-12-12T11:32:01Z</time>
      </trkpt>
      <trkpt lat="43.41085" lon="5.42866">
        <ele>315.93</ele>
        <time>2020-12-12T11:32:15Z</time>
      </trkpt>
      <trkpt lat="43.4108" lon="5.4288">
        <ele>319.3</ele>
        <time>2020-12-12T11:32:28Z</time>
      </trkpt>
      <trkpt lat="43.41073" lon="5.42894">
        <ele>320.74</ele>
        <time>2020-12-12T11:32:40Z</time>
      </trkpt>
      <trkpt lat="43.41066" lon="5.42909">
        <ele>319.3</ele>
        <time>2020-12-12T11:32:55Z</time>
      </trkpt>
      <trkpt lat="43.41064" lon="5.42915">
        <ele>319.3</ele>
        <time>2020-12-12T11:33:00Z</time>
      </trkpt>
      <trkpt lat="43.41063" lon="5.42915">
        <ele>319.3</ele>
        <time>2020-12-12T11:33:02Z</time>
      </trkpt>
      <trkpt lat="43.41056" lon="5.42927">
        <ele>323.14</ele>
        <time>2020-12-12T11:33:17Z</time>
      </trkpt>
      <trkpt lat="43.4105" lon="5.42938">
        <ele>326.99</ele>
        <time>2020-12-12T11:33:31Z</time>
      </trkpt>
      <trkpt lat="43.41046" lon="5.42946">
        <ele>327.95</ele>
        <time>2020-12-12T11:33:39Z</time>
      </trkpt>
      <trkpt lat="43.4104" lon="5.42954">
        <ele>327.95</ele>
        <time>2020-12-12T11:33:49Z</time>
      </trkpt>
      <trkpt lat="43.41029" lon="5.42964">
        <ele>328.91</ele>
        <time>2020-12-12T11:34:04Z</time>
      </trkpt>
      <trkpt lat="43.41021" lon="5.42973">
        <ele>329.87</ele>
        <time>2020-12-12T11:34:17Z</time>
      </trkpt>
      <trkpt lat="43.4102" lon="5.42974">
        <ele>329.87</ele>
        <time>2020-12-12T11:34:18Z</time>
      </trkpt>
      <trkpt lat="43.41012" lon="5.42978">
        <ele>330.35</ele>
        <time>2020-12-12T11:34:30Z</time>
      </trkpt>
      <trkpt lat="43.40997" lon="5.42986">
        <ele>332.75</ele>
        <time>2020-12-12T11:34:45Z</time>
      </trkpt>
      <trkpt lat="43.40989" lon="5.43">
        <ele>332.27</ele>
        <time>2020-12-12T11:35:00Z</time>
      </trkpt>
      <trkpt lat="43.40987" lon="5.43004">
        <ele>332.75</ele>
        <time>2020-12-12T11:35:14Z</time>
      </trkpt>
      <trkpt lat="43.40986" lon="5.43006">
        <ele>332.27</ele>
        <time>2020-12-12T11:35:16Z</time>
      </trkpt>
      <trkpt lat="43.40978" lon="5.43025">
        <ele>333.23</ele>
        <time>2020-12-12T11:35:31Z</time>
      </trkpt>
      <trkpt lat="43.40974" lon="5.43038">
        <ele>335.16</ele>
        <time>2020-12-12T11:35:43Z</time>
      </trkpt>
      <trkpt lat="43.40968" lon="5.43056">
        <ele>337.08</ele>
        <time>2020-12-12T11:35:58Z</time>
      </trkpt>
      <trkpt lat="43.40972" lon="5.43074">
        <ele>337.08</ele>
        <time>2020-12-12T11:36:12Z</time>
      </trkpt>
      <trkpt lat="43.40973" lon="5.43085">
        <ele>339.48</ele>
        <time>2020-12-12T11:36:26Z</time>
      </trkpt>
      <trkpt lat="43.40972" lon="5.43089">
        <ele>340.92</ele>
        <time>2020-12-12T11:36:31Z</time>
      </trkpt>
      <trkpt lat="43.40971" lon="5.43096">
        <ele>342.85</ele>
        <time>2020-12-12T11:36:37Z</time>
      </trkpt>
      <trkpt lat="43.40966" lon="5.43101">
        <ele>345.73</ele>
        <time>2020-12-12T11:36:45Z</time>
      </trkpt>
      <trkpt lat="43.40955" lon="5.43102">
        <ele>348.13</ele>
        <time>2020-12-12T11:36:58Z</time>
      </trkpt>
      <trkpt lat="43.40946" lon="5.431">
        <ele>349.58</ele>
        <time>2020-12-12T11:37:11Z</time>
      </trkpt>
      <trkpt lat="43.40936" lon="5.43094">
        <ele>349.1</ele>
        <time>2020-12-12T11:37:27Z</time>
      </trkpt>
      <trkpt lat="43.40925" lon="5.4309">
        <ele>349.58</ele>
        <time>2020-12-12T11:37:40Z</time>
      </trkpt>
      <trkpt lat="43.40916" lon="5.43087">
        <ele>349.1</ele>
        <time>2020-12-12T11:37:52Z</time>
      </trkpt>
      <trkpt lat="43.40899" lon="5.43092">
        <ele>346.69</ele>
        <time>2020-12-12T11:38:06Z</time>
      </trkpt>
      <trkpt lat="43.40886" lon="5.43094">
        <ele>346.21</ele>
        <time>2020-12-12T11:38:19Z</time>
      </trkpt>
      <trkpt lat="43.40871" lon="5.43099">
        <ele>344.29</ele>
        <time>2020-12-12T11:38:35Z</time>
      </trkpt>
      <trkpt lat="43.40858" lon="5.43113">
        <ele>343.33</ele>
        <time>2020-12-12T11:38:50Z</time>
      </trkpt>
      <trkpt lat="43.40856" lon="5.4312">
        <ele>343.33</ele>
        <time>2020-12-12T11:38:56Z</time>
      </trkpt>
      <trkpt lat="43.40857" lon="5.43129">
        <ele>343.33</ele>
        <time>2020-12-12T11:39:03Z</time>
      </trkpt>
      <trkpt lat="43.40859" lon="5.4315">
        <ele>342.85</ele>
        <time>2020-12-12T11:39:19Z</time>
      </trkpt>
      <trkpt lat="43.40861" lon="5.43161">
        <ele>344.29</ele>
        <time>2020-12-12T11:39:33Z</time>
      </trkpt>
      <trkpt lat="43.40863" lon="5.43178">
        <ele>344.77</ele>
        <time>2020-12-12T11:39:49Z</time>
      </trkpt>
      <trkpt lat="43.40864" lon="5.4319">
        <ele>346.21</ele>
        <time>2020-12-12T11:40:03Z</time>
      </trkpt>
      <trkpt lat="43.40865" lon="5.43207">
        <ele>348.62</ele>
        <time>2020-12-12T11:40:18Z</time>
      </trkpt>
      <trkpt lat="43.40867" lon="5.43225">
        <ele>349.1</ele>
        <time>2020-12-12T11:40:34Z</time>
      </trkpt>
      <trkpt lat="43.40864" lon="5.43237">
        <ele>351.98</ele>
        <time>2020-12-12T11:40:46Z</time>
      </trkpt>
      <trkpt lat="43.40855" lon="5.43252">
        <ele>353.42</ele>
        <time>2020-12-12T11:41:03Z</time>
      </trkpt>
      <trkpt lat="43.40848" lon="5.43255">
        <ele>352.94</ele>
        <time>2020-12-12T11:41:16Z</time>
      </trkpt>
      <trkpt lat="43.40841" lon="5.43259">
        <ele>354.38</ele>
        <time>2020-12-12T11:41:29Z</time>
      </trkpt>
      <trkpt lat="43.40838" lon="5.43262">
        <ele>355.83</ele>
        <time>2020-12-12T11:41:54Z</time>
      </trkpt>
      <trkpt lat="43.4083" lon="5.43268">
        <ele>357.75</ele>
        <time>2020-12-12T11:42:09Z</time>
      </trkpt>
      <trkpt lat="43.40817" lon="5.43277">
        <ele>361.11</ele>
        <time>2020-12-12T11:42:23Z</time>
      </trkpt>
      <trkpt lat="43.40808" lon="5.43284">
        <ele>362.07</ele>
        <time>2020-12-12T11:42:35Z</time>
      </trkpt>
      <trkpt lat="43.40798" lon="5.43282">
        <ele>365.92</ele>
        <time>2020-12-12T11:42:49Z</time>
      </trkpt>
      <trkpt lat="43.40788" lon="5.43282">
        <ele>369.28</ele>
        <time>2020-12-12T11:43:02Z</time>
      </trkpt>
      <trkpt lat="43.4077" lon="5.43284">
        <ele>372.65</ele>
        <time>2020-12-12T11:43:19Z</time>
      </trkpt>
      <trkpt lat="43.4076" lon="5.43287">
        <ele>374.09</ele>
        <time>2020-12-12T11:43:32Z</time>
      </trkpt>
      <trkpt lat="43.40752" lon="5.43304">
        <ele>370.24</ele>
        <time>2020-12-12T11:43:49Z</time>
      </trkpt>
      <trkpt lat="43.40746" lon="5.4332">
        <ele>372.17</ele>
        <time>2020-12-12T11:44:03Z</time>
      </trkpt>
      <trkpt lat="43.40745" lon="5.4334">
        <ele>373.13</ele>
        <time>2020-12-12T11:44:18Z</time>
      </trkpt>
      <trkpt lat="43.40747" lon="5.43359">
        <ele>372.65</ele>
        <time>2020-12-12T11:44:32Z</time>
      </trkpt>
      <trkpt lat="43.40748" lon="5.43365">
        <ele>372.17</ele>
        <time>2020-12-12T11:44:37Z</time>
      </trkpt>
      <trkpt lat="43.40753" lon="5.4338">
        <ele>373.61</ele>
        <time>2020-12-12T11:44:52Z</time>
      </trkpt>
      <trkpt lat="43.40757" lon="5.43393">
        <ele>372.65</ele>
        <time>2020-12-12T11:45:04Z</time>
      </trkpt>
      <trkpt lat="43.40759" lon="5.43413">
        <ele>372.65</ele>
        <time>2020-12-12T11:45:21Z</time>
      </trkpt>
      <trkpt lat="43.4076" lon="5.43429">
        <ele>376.97</ele>
        <time>2020-12-12T11:45:37Z</time>
      </trkpt>
      <trkpt lat="43.40765" lon="5.43447">
        <ele>379.38</ele>
        <time>2020-12-12T11:45:51Z</time>
      </trkpt>
      <trkpt lat="43.40775" lon="5.43462">
        <ele>379.86</ele>
        <time>2020-12-12T11:46:08Z</time>
      </trkpt>
      <trkpt lat="43.40788" lon="5.43471">
        <ele>380.82</ele>
        <time>2020-12-12T11:46:24Z</time>
      </trkpt>
      <trkpt lat="43.40795" lon="5.43477">
        <ele>381.3</ele>
        <time>2020-12-12T11:46:39Z</time>
      </trkpt>
      <trkpt lat="43.40808" lon="5.43478">
        <ele>380.82</ele>
        <time>2020-12-12T11:46:55Z</time>
      </trkpt>
      <trkpt lat="43.40817" lon="5.4348">
        <ele>380.34</ele>
        <time>2020-12-12T11:47:04Z</time>
      </trkpt>
      <trkpt lat="43.40831" lon="5.43483">
        <ele>380.34</ele>
        <time>2020-12-12T11:47:19Z</time>
      </trkpt>
      <trkpt lat="43.40844" lon="5.43489">
        <ele>383.22</ele>
        <time>2020-12-12T11:47:33Z</time>
      </trkpt>
      <trkpt lat="43.40857" lon="5.43494">
        <ele>383.22</ele>
        <time>2020-12-12T11:47:48Z</time>
      </trkpt>
      <trkpt lat="43.40864" lon="5.43497">
        <ele>381.3</ele>
        <time>2020-12-12T11:47:55Z</time>
      </trkpt>
      <trkpt lat="43.40865" lon="5.43499">
        <ele>380.82</ele>
        <time>2020-12-12T11:47:58Z</time>
      </trkpt>
      <trkpt lat="43.40866" lon="5.43518">
        <ele>379.86</ele>
        <time>2020-12-12T11:48:14Z</time>
      </trkpt>
      <trkpt lat="43.40868" lon="5.43531">
        <ele>380.82</ele>
        <time>2020-12-12T11:48:26Z</time>
      </trkpt>
      <trkpt lat="43.40875" lon="5.43547">
        <ele>382.74</ele>
        <time>2020-12-12T11:48:43Z</time>
      </trkpt>
      <trkpt lat="43.40876" lon="5.43555">
        <ele>384.18</ele>
        <time>2020-12-12T11:48:50Z</time>
      </trkpt>
      <trkpt lat="43.40875" lon="5.43559">
        <ele>384.66</ele>
        <time>2020-12-12T11:48:53Z</time>
      </trkpt>
      <trkpt lat="43.40868" lon="5.43572">
        <ele>386.11</ele>
        <time>2020-12-12T11:49:08Z</time>
      </trkpt>
      <trkpt lat="43.4086" lon="5.43576">
        <ele>386.59</ele>
        <time>2020-12-12T11:49:18Z</time>
      </trkpt>
      <trkpt lat="43.40849" lon="5.43584">
        <ele>390.43</ele>
        <time>2020-12-12T11:49:33Z</time>
      </trkpt>
      <trkpt lat="43.4084" lon="5.43593">
        <ele>393.8</ele>
        <time>2020-12-12T11:49:48Z</time>
      </trkpt>
      <trkpt lat="43.40832" lon="5.43613">
        <ele>393.8</ele>
        <time>2020-12-12T11:50:03Z</time>
      </trkpt>
      <trkpt lat="43.40831" lon="5.43633">
        <ele>392.84</ele>
        <time>2020-12-12T11:50:19Z</time>
      </trkpt>
      <trkpt lat="43.40833" lon="5.43643">
        <ele>392.84</ele>
        <time>2020-12-12T11:50:26Z</time>
      </trkpt>
      <trkpt lat="43.40842" lon="5.43661">
        <ele>391.39</ele>
        <time>2020-12-12T11:50:43Z</time>
      </trkpt>
      <trkpt lat="43.40848" lon="5.4368">
        <ele>390.43</ele>
        <time>2020-12-12T11:51:00Z</time>
      </trkpt>
      <trkpt lat="43.4085" lon="5.43699">
        <ele>392.36</ele>
        <time>2020-12-12T11:51:18Z</time>
      </trkpt>
      <trkpt lat="43.4085" lon="5.43712">
        <ele>393.8</ele>
        <time>2020-12-12T11:51:28Z</time>
      </trkpt>
      <trkpt lat="43.40854" lon="5.43729">
        <ele>397.16</ele>
        <time>2020-12-12T11:51:44Z</time>
      </trkpt>
      <trkpt lat="43.40862" lon="5.43743">
        <ele>398.12</ele>
        <time>2020-12-12T11:51:58Z</time>
      </trkpt>
      <trkpt lat="43.40871" lon="5.43756">
        <ele>398.6</ele>
        <time>2020-12-12T11:52:15Z</time>
      </trkpt>
      <trkpt lat="43.40875" lon="5.43772">
        <ele>398.6</ele>
        <time>2020-12-12T11:52:30Z</time>
      </trkpt>
      <trkpt lat="43.4088" lon="5.43787">
        <ele>399.57</ele>
        <time>2020-12-12T11:52:46Z</time>
      </trkpt>
      <trkpt lat="43.40882" lon="5.43792">
        <ele>399.57</ele>
        <time>2020-12-12T11:52:59Z</time>
      </trkpt>
      <trkpt lat="43.40884" lon="5.43807">
        <ele>400.53</ele>
        <time>2020-12-12T11:53:13Z</time>
      </trkpt>
      <trkpt lat="43.40885" lon="5.43823">
        <ele>401.97</ele>
        <time>2020-12-12T11:53:27Z</time>
      </trkpt>
      <trkpt lat="43.40885" lon="5.43825">
        <ele>402.45</ele>
        <time>2020-12-12T11:53:29Z</time>
      </trkpt>
      <trkpt lat="43.40881" lon="5.43839">
        <ele>404.85</ele>
        <time>2020-12-12T11:53:44Z</time>
      </trkpt>
      <trkpt lat="43.40881" lon="5.4384">
        <ele>404.85</ele>
        <time>2020-12-12T11:53:45Z</time>
      </trkpt>
      <trkpt lat="43.40875" lon="5.43851">
        <ele>405.81</ele>
        <time>2020-12-12T11:53:56Z</time>
      </trkpt>
      <trkpt lat="43.40866" lon="5.43857">
        <ele>408.22</ele>
        <time>2020-12-12T11:54:09Z</time>
      </trkpt>
      <trkpt lat="43.40855" lon="5.43858">
        <ele>410.14</ele>
        <time>2020-12-12T11:54:23Z</time>
      </trkpt>
      <trkpt lat="43.40845" lon="5.43858">
        <ele>413.02</ele>
        <time>2020-12-12T11:54:37Z</time>
      </trkpt>
      <trkpt lat="43.40834" lon="5.43869">
        <ele>417.35</ele>
        <time>2020-12-12T11:54:49Z</time>
      </trkpt>
      <trkpt lat="43.40835" lon="5.43891">
        <ele>418.31</ele>
        <time>2020-12-12T11:55:05Z</time>
      </trkpt>
      <trkpt lat="43.40842" lon="5.43901">
        <ele>416.87</ele>
        <time>2020-12-12T11:55:21Z</time>
      </trkpt>
      <trkpt lat="43.40848" lon="5.43907">
        <ele>414.95</ele>
        <time>2020-12-12T11:55:31Z</time>
      </trkpt>
      <trkpt lat="43.40857" lon="5.4392">
        <ele>413.98</ele>
        <time>2020-12-12T11:55:46Z</time>
      </trkpt>
      <trkpt lat="43.40864" lon="5.43931">
        <ele>416.39</ele>
        <time>2020-12-12T11:56:01Z</time>
      </trkpt>
      <trkpt lat="43.40868" lon="5.43939">
        <ele>422.16</ele>
        <time>2020-12-12T11:56:13Z</time>
      </trkpt>
      <trkpt lat="43.40867" lon="5.43943">
        <ele>426</ele>
        <time>2020-12-12T11:56:42Z</time>
      </trkpt>
      <trkpt lat="43.40869" lon="5.4396">
        <ele>428.4</ele>
        <time>2020-12-12T11:56:56Z</time>
      </trkpt>
      <trkpt lat="43.40869" lon="5.43978">
        <ele>432.25</ele>
        <time>2020-12-12T11:57:13Z</time>
      </trkpt>
      <trkpt lat="43.4087" lon="5.43979">
        <ele>431.77</ele>
        <time>2020-12-12T11:57:14Z</time>
      </trkpt>
      <trkpt lat="43.40861" lon="5.43996">
        <ele>434.65</ele>
        <time>2020-12-12T11:57:31Z</time>
      </trkpt>
      <trkpt lat="43.40854" lon="5.44011">
        <ele>433.69</ele>
        <time>2020-12-12T11:57:45Z</time>
      </trkpt>
      <trkpt lat="43.40851" lon="5.4403">
        <ele>432.25</ele>
        <time>2020-12-12T11:58:00Z</time>
      </trkpt>
      <trkpt lat="43.40852" lon="5.44038">
        <ele>431.77</ele>
        <time>2020-12-12T11:58:06Z</time>
      </trkpt>
      <trkpt lat="43.40856" lon="5.44057">
        <ele>430.81</ele>
        <time>2020-12-12T11:58:21Z</time>
      </trkpt>
      <trkpt lat="43.40859" lon="5.44075">
        <ele>433.69</ele>
        <time>2020-12-12T11:58:37Z</time>
      </trkpt>
      <trkpt lat="43.40861" lon="5.44099">
        <ele>433.21</ele>
        <time>2020-12-12T11:58:54Z</time>
      </trkpt>
      <trkpt lat="43.40861" lon="5.44101">
        <ele>433.21</ele>
        <time>2020-12-12T11:58:56Z</time>
      </trkpt>
      <trkpt lat="43.40858" lon="5.44116">
        <ele>437.06</ele>
        <time>2020-12-12T11:59:12Z</time>
      </trkpt>
      <trkpt lat="43.40855" lon="5.44133">
        <ele>439.46</ele>
        <time>2020-12-12T11:59:28Z</time>
      </trkpt>
      <trkpt lat="43.40852" lon="5.44151">
        <ele>442.82</ele>
        <time>2020-12-12T11:59:45Z</time>
      </trkpt>
      <trkpt lat="43.40849" lon="5.44175">
        <ele>443.79</ele>
        <time>2020-12-12T12:00:02Z</time>
      </trkpt>
      <trkpt lat="43.40854" lon="5.44189">
        <ele>442.34</ele>
        <time>2020-12-12T12:00:12Z</time>
      </trkpt>
      <trkpt lat="43.40858" lon="5.44204">
        <ele>443.31</ele>
        <time>2020-12-12T12:00:26Z</time>
      </trkpt>
      <trkpt lat="43.40861" lon="5.44217">
        <ele>448.11</ele>
        <time>2020-12-12T12:00:40Z</time>
      </trkpt>
      <trkpt lat="43.40864" lon="5.44232">
        <ele>450.03</ele>
        <time>2020-12-12T12:00:55Z</time>
      </trkpt>
      <trkpt lat="43.40866" lon="5.44246">
        <ele>451.48</ele>
        <time>2020-12-12T12:01:08Z</time>
      </trkpt>
      <trkpt lat="43.40866" lon="5.4426">
        <ele>454.84</ele>
        <time>2020-12-12T12:01:21Z</time>
      </trkpt>
      <trkpt lat="43.40869" lon="5.44277">
        <ele>457.72</ele>
        <time>2020-12-12T12:01:34Z</time>
      </trkpt>
      <trkpt lat="43.40868" lon="5.44298">
        <ele>460.13</ele>
        <time>2020-12-12T12:01:49Z</time>
      </trkpt>
      <trkpt lat="43.4087" lon="5.44304">
        <ele>460.13</ele>
        <time>2020-12-12T12:01:53Z</time>
      </trkpt>
      <trkpt lat="43.40876" lon="5.44323">
        <ele>456.28</ele>
        <time>2020-12-12T12:02:07Z</time>
      </trkpt>
      <trkpt lat="43.40878" lon="5.44326">
        <ele>454.84</ele>
        <time>2020-12-12T12:02:09Z</time>
      </trkpt>
      <trkpt lat="43.4089" lon="5.44347">
        <ele>446.67</ele>
        <time>2020-12-12T12:02:25Z</time>
      </trkpt>
      <trkpt lat="43.40897" lon="5.44357">
        <ele>446.67</ele>
        <time>2020-12-12T12:02:41Z</time>
      </trkpt>
      <trkpt lat="43.40899" lon="5.44349">
        <ele>446.19</ele>
        <time>2020-12-12T12:02:57Z</time>
      </trkpt>
      <trkpt lat="43.40895" lon="5.44348">
        <ele>446.67</ele>
        <time>2020-12-12T12:03:10Z</time>
      </trkpt>
      <trkpt lat="43.40896" lon="5.44358">
        <ele>448.11</ele>
        <time>2020-12-12T12:03:22Z</time>
      </trkpt>
      <trkpt lat="43.40903" lon="5.44376">
        <ele>449.07</ele>
        <time>2020-12-12T12:03:37Z</time>
      </trkpt>
      <trkpt lat="43.40913" lon="5.44386">
        <ele>449.07</ele>
        <time>2020-12-12T12:03:52Z</time>
      </trkpt>
      <trkpt lat="43.40917" lon="5.44389">
        <ele>451</ele>
        <time>2020-12-12T12:04:06Z</time>
      </trkpt>
      <trkpt lat="43.40917" lon="5.44389">
        <ele>451.48</ele>
        <time>2020-12-12T12:04:23Z</time>
      </trkpt>
      <trkpt lat="43.40915" lon="5.44393">
        <ele>451.48</ele>
        <time>2020-12-12T12:04:48Z</time>
      </trkpt>
      <trkpt lat="43.40914" lon="5.44394">
        <ele>454.36</ele>
        <time>2020-12-12T12:05:14Z</time>
      </trkpt>
      <trkpt lat="43.40912" lon="5.44387">
        <ele>454.84</ele>
        <time>2020-12-12T12:05:39Z</time>
      </trkpt>
      <trkpt lat="43.4091" lon="5.44383">
        <ele>456.76</ele>
        <time>2020-12-12T12:06:05Z</time>
      </trkpt>
      <trkpt lat="43.40911" lon="5.44384">
        <ele>455.8</ele>
        <time>2020-12-12T12:06:20Z</time>
      </trkpt>
      <trkpt lat="43.4091" lon="5.44378">
        <ele>453.88</ele>
        <time>2020-12-12T12:06:26Z</time>
      </trkpt>
      <trkpt lat="43.40905" lon="5.44386">
        <ele>451.48</ele>
        <time>2020-12-12T12:06:41Z</time>
      </trkpt>
      <trkpt lat="43.40899" lon="5.444">
        <ele>451</ele>
        <time>2020-12-12T12:06:53Z</time>
      </trkpt>
      <trkpt lat="43.40898" lon="5.44421">
        <ele>456.28</ele>
        <time>2020-12-12T12:07:09Z</time>
      </trkpt>
      <trkpt lat="43.40896" lon="5.44438">
        <ele>457.72</ele>
        <time>2020-12-12T12:07:22Z</time>
      </trkpt>
      <trkpt lat="43.40893" lon="5.44456">
        <ele>459.17</ele>
        <time>2020-12-12T12:07:37Z</time>
      </trkpt>
      <trkpt lat="43.4089" lon="5.44465">
        <ele>459.65</ele>
        <time>2020-12-12T12:07:46Z</time>
      </trkpt>
      <trkpt lat="43.40887" lon="5.44471">
        <ele>462.05</ele>
        <time>2020-12-12T12:08:01Z</time>
      </trkpt>
      <trkpt lat="43.40886" lon="5.44479">
        <ele>462.05</ele>
        <time>2020-12-12T12:08:18Z</time>
      </trkpt>
      <trkpt lat="43.40883" lon="5.44496">
        <ele>461.09</ele>
        <time>2020-12-12T12:08:33Z</time>
      </trkpt>
      <trkpt lat="43.40881" lon="5.44508">
        <ele>460.13</ele>
        <time>2020-12-12T12:08:46Z</time>
      </trkpt>
      <trkpt lat="43.40881" lon="5.4451">
        <ele>460.13</ele>
        <time>2020-12-12T12:09:06Z</time>
      </trkpt>
      <trkpt lat="43.40882" lon="5.44509">
        <ele>457.24</ele>
        <time>2020-12-12T12:09:26Z</time>
      </trkpt>
      <trkpt lat="43.40883" lon="5.4451">
        <ele>456.76</ele>
        <time>2020-12-12T12:09:52Z</time>
      </trkpt>
      <trkpt lat="43.40885" lon="5.4451">
        <ele>455.8</ele>
        <time>2020-12-12T12:10:19Z</time>
      </trkpt>
      <trkpt lat="43.4088" lon="5.44523">
        <ele>455.8</ele>
        <time>2020-12-12T12:10:32Z</time>
      </trkpt>
      <trkpt lat="43.40875" lon="5.44537">
        <ele>456.76</ele>
        <time>2020-12-12T12:10:45Z</time>
      </trkpt>
      <trkpt lat="43.40875" lon="5.44545">
        <ele>458.21</ele>
        <time>2020-12-12T12:10:57Z</time>
      </trkpt>
      <trkpt lat="43.40875" lon="5.44548">
        <ele>458.21</ele>
        <time>2020-12-12T12:11:04Z</time>
      </trkpt>
      <trkpt lat="43.40874" lon="5.44565">
        <ele>458.69</ele>
        <time>2020-12-12T12:11:18Z</time>
      </trkpt>
      <trkpt lat="43.40872" lon="5.44578">
        <ele>459.65</ele>
        <time>2020-12-12T12:11:30Z</time>
      </trkpt>
      <trkpt lat="43.40872" lon="5.4458">
        <ele>459.65</ele>
        <time>2020-12-12T12:11:31Z</time>
      </trkpt>
      <trkpt lat="43.4087" lon="5.44595">
        <ele>460.13</ele>
        <time>2020-12-12T12:11:43Z</time>
      </trkpt>
      <trkpt lat="43.40866" lon="5.44611">
        <ele>461.09</ele>
        <time>2020-12-12T12:11:55Z</time>
      </trkpt>
      <trkpt lat="43.40866" lon="5.44612">
        <ele>461.09</ele>
        <time>2020-12-12T12:11:56Z</time>
      </trkpt>
      <trkpt lat="43.40863" lon="5.44619">
        <ele>461.57</ele>
        <time>2020-12-12T12:12:02Z</time>
      </trkpt>
      <trkpt lat="43.40856" lon="5.44634">
        <ele>463.01</ele>
        <time>2020-12-12T12:12:16Z</time>
      </trkpt>
      <trkpt lat="43.40848" lon="5.44646">
        <ele>463.49</ele>
        <time>2020-12-12T12:12:29Z</time>
      </trkpt>
      <trkpt lat="43.4084" lon="5.44658">
        <ele>464.93</ele>
        <time>2020-12-12T12:12:43Z</time>
      </trkpt>
      <trkpt lat="43.40829" lon="5.4467">
        <ele>466.86</ele>
        <time>2020-12-12T12:12:59Z</time>
      </trkpt>
      <trkpt lat="43.40819" lon="5.44683">
        <ele>467.82</ele>
        <time>2020-12-12T12:13:14Z</time>
      </trkpt>
      <trkpt lat="43.40816" lon="5.44694">
        <ele>468.3</ele>
        <time>2020-12-12T12:13:28Z</time>
      </trkpt>
      <trkpt lat="43.40815" lon="5.44698">
        <ele>468.3</ele>
        <time>2020-12-12T12:13:47Z</time>
      </trkpt>
      <trkpt lat="43.40814" lon="5.44699">
        <ele>469.26</ele>
        <time>2020-12-12T12:14:06Z</time>
      </trkpt>
      <trkpt lat="43.40815" lon="5.44701">
        <ele>469.74</ele>
        <time>2020-12-12T12:14:30Z</time>
      </trkpt>
      <trkpt lat="43.40817" lon="5.447">
        <ele>470.22</ele>
        <time>2020-12-12T12:15:06Z</time>
      </trkpt>
      <trkpt lat="43.40816" lon="5.447">
        <ele>468.3</ele>
        <time>2020-12-12T12:15:37Z</time>
      </trkpt>
      <trkpt lat="43.40816" lon="5.44698">
        <ele>467.82</ele>
        <time>2020-12-12T12:16:16Z</time>
      </trkpt>
      <trkpt lat="43.40816" lon="5.44701">
        <ele>468.3</ele>
        <time>2020-12-12T12:16:45Z</time>
      </trkpt>
      <trkpt lat="43.40816" lon="5.44706">
        <ele>468.3</ele>
        <time>2020-12-12T12:16:52Z</time>
      </trkpt>
      <trkpt lat="43.40818" lon="5.44723">
        <ele>468.3</ele>
        <time>2020-12-12T12:17:07Z</time>
      </trkpt>
      <trkpt lat="43.4082" lon="5.44741">
        <ele>470.7</ele>
        <time>2020-12-12T12:17:22Z</time>
      </trkpt>
      <trkpt lat="43.4082" lon="5.44748">
        <ele>471.66</ele>
        <time>2020-12-12T12:17:28Z</time>
      </trkpt>
      <trkpt lat="43.40822" lon="5.44765">
        <ele>473.11</ele>
        <time>2020-12-12T12:17:42Z</time>
      </trkpt>
      <trkpt lat="43.40822" lon="5.44785">
        <ele>474.55</ele>
        <time>2020-12-12T12:17:59Z</time>
      </trkpt>
      <trkpt lat="43.4082" lon="5.44803">
        <ele>477.43</ele>
        <time>2020-12-12T12:18:14Z</time>
      </trkpt>
      <trkpt lat="43.40817" lon="5.44819">
        <ele>478.87</ele>
        <time>2020-12-12T12:18:28Z</time>
      </trkpt>
      <trkpt lat="43.40815" lon="5.44834">
        <ele>479.35</ele>
        <time>2020-12-12T12:18:42Z</time>
      </trkpt>
      <trkpt lat="43.40814" lon="5.44843">
        <ele>477.91</ele>
        <time>2020-12-12T12:18:53Z</time>
      </trkpt>
      <trkpt lat="43.40815" lon="5.44842">
        <ele>478.39</ele>
        <time>2020-12-12T12:19:07Z</time>
      </trkpt>
      <trkpt lat="43.40814" lon="5.44855">
        <ele>477.43</ele>
        <time>2020-12-12T12:19:23Z</time>
      </trkpt>
      <trkpt lat="43.40812" lon="5.44868">
        <ele>477.43</ele>
        <time>2020-12-12T12:19:35Z</time>
      </trkpt>
      <trkpt lat="43.40807" lon="5.44884">
        <ele>479.35</ele>
        <time>2020-12-12T12:19:52Z</time>
      </trkpt>
      <trkpt lat="43.40803" lon="5.449">
        <ele>481.28</ele>
        <time>2020-12-12T12:20:07Z</time>
      </trkpt>
      <trkpt lat="43.40799" lon="5.44916">
        <ele>481.76</ele>
        <time>2020-12-12T12:20:24Z</time>
      </trkpt>
      <trkpt lat="43.40798" lon="5.44926">
        <ele>482.72</ele>
        <time>2020-12-12T12:20:39Z</time>
      </trkpt>
      <trkpt lat="43.40798" lon="5.44941">
        <ele>484.16</ele>
        <time>2020-12-12T12:20:55Z</time>
      </trkpt>
      <trkpt lat="43.40797" lon="5.44959">
        <ele>486.08</ele>
        <time>2020-12-12T12:21:11Z</time>
      </trkpt>
      <trkpt lat="43.40795" lon="5.44976">
        <ele>487.05</ele>
        <time>2020-12-12T12:21:27Z</time>
      </trkpt>
      <trkpt lat="43.40788" lon="5.44992">
        <ele>488.49</ele>
        <time>2020-12-12T12:21:43Z</time>
      </trkpt>
      <trkpt lat="43.4078" lon="5.45006">
        <ele>490.89</ele>
        <time>2020-12-12T12:21:59Z</time>
      </trkpt>
      <trkpt lat="43.40771" lon="5.45017">
        <ele>492.81</ele>
        <time>2020-12-12T12:22:15Z</time>
      </trkpt>
      <trkpt lat="43.40763" lon="5.45027">
        <ele>494.74</ele>
        <time>2020-12-12T12:22:30Z</time>
      </trkpt>
      <trkpt lat="43.40756" lon="5.45034">
        <ele>495.7</ele>
        <time>2020-12-12T12:22:44Z</time>
      </trkpt>
      <trkpt lat="43.40751" lon="5.45042">
        <ele>497.14</ele>
        <time>2020-12-12T12:22:54Z</time>
      </trkpt>
      <trkpt lat="43.40741" lon="5.45056">
        <ele>498.58</ele>
        <time>2020-12-12T12:23:11Z</time>
      </trkpt>
      <trkpt lat="43.40732" lon="5.45067">
        <ele>499.54</ele>
        <time>2020-12-12T12:23:26Z</time>
      </trkpt>
      <trkpt lat="43.40729" lon="5.45071">
        <ele>499.54</ele>
        <time>2020-12-12T12:23:40Z</time>
      </trkpt>
      <trkpt lat="43.40733" lon="5.45071">
        <ele>499.06</ele>
        <time>2020-12-12T12:23:58Z</time>
      </trkpt>
      <trkpt lat="43.40731" lon="5.45071">
        <ele>499.06</ele>
        <time>2020-12-12T12:24:13Z</time>
      </trkpt>
      <trkpt lat="43.40732" lon="5.45071">
        <ele>497.62</ele>
        <time>2020-12-12T12:24:33Z</time>
      </trkpt>
      <trkpt lat="43.40726" lon="5.45075">
        <ele>497.14</ele>
        <time>2020-12-12T12:25:05Z</time>
      </trkpt>
      <trkpt lat="43.40716" lon="5.45084">
        <ele>499.06</ele>
        <time>2020-12-12T12:25:20Z</time>
      </trkpt>
      <trkpt lat="43.40705" lon="5.45092">
        <ele>501.46</ele>
        <time>2020-12-12T12:25:33Z</time>
      </trkpt>
      <trkpt lat="43.40703" lon="5.45093">
        <ele>501.46</ele>
        <time>2020-12-12T12:25:35Z</time>
      </trkpt>
      <trkpt lat="43.40692" lon="5.45101">
        <ele>502.43</ele>
        <time>2020-12-12T12:25:50Z</time>
      </trkpt>
      <trkpt lat="43.4068" lon="5.45109">
        <ele>503.87</ele>
        <time>2020-12-12T12:26:06Z</time>
      </trkpt>
      <trkpt lat="43.40673" lon="5.45113">
        <ele>503.87</ele>
        <time>2020-12-12T12:26:21Z</time>
      </trkpt>
      <trkpt lat="43.40674" lon="5.45114">
        <ele>504.35</ele>
        <time>2020-12-12T12:26:46Z</time>
      </trkpt>
      <trkpt lat="43.40664" lon="5.45119">
        <ele>504.35</ele>
        <time>2020-12-12T12:27:06Z</time>
      </trkpt>
      <trkpt lat="43.40663" lon="5.4512">
        <ele>504.35</ele>
        <time>2020-12-12T12:27:07Z</time>
      </trkpt>
      <trkpt lat="43.40651" lon="5.45123">
        <ele>506.27</ele>
        <time>2020-12-12T12:27:22Z</time>
      </trkpt>
      <trkpt lat="43.40642" lon="5.45127">
        <ele>507.23</ele>
        <time>2020-12-12T12:27:34Z</time>
      </trkpt>
      <trkpt lat="43.4064" lon="5.4513">
        <ele>507.23</ele>
        <time>2020-12-12T12:27:37Z</time>
      </trkpt>
      <trkpt lat="43.40638" lon="5.45132">
        <ele>506.75</ele>
        <time>2020-12-12T12:27:40Z</time>
      </trkpt>
      <trkpt lat="43.40634" lon="5.45147">
        <ele>507.23</ele>
        <time>2020-12-12T12:27:53Z</time>
      </trkpt>
      <trkpt lat="43.40632" lon="5.45164">
        <ele>508.19</ele>
        <time>2020-12-12T12:28:07Z</time>
      </trkpt>
      <trkpt lat="43.40634" lon="5.45182">
        <ele>509.16</ele>
        <time>2020-12-12T12:28:23Z</time>
      </trkpt>
      <trkpt lat="43.40634" lon="5.45191">
        <ele>510.6</ele>
        <time>2020-12-12T12:28:33Z</time>
      </trkpt>
      <trkpt lat="43.40632" lon="5.45201">
        <ele>511.08</ele>
        <time>2020-12-12T12:28:41Z</time>
      </trkpt>
      <trkpt lat="43.40631" lon="5.45206">
        <ele>511.56</ele>
        <time>2020-12-12T12:28:46Z</time>
      </trkpt>
      <trkpt lat="43.40625" lon="5.4522">
        <ele>511.08</ele>
        <time>2020-12-12T12:28:59Z</time>
      </trkpt>
      <trkpt lat="43.40618" lon="5.45238">
        <ele>514.92</ele>
        <time>2020-12-12T12:29:14Z</time>
      </trkpt>
      <trkpt lat="43.40613" lon="5.45254">
        <ele>514.92</ele>
        <time>2020-12-12T12:29:28Z</time>
      </trkpt>
      <trkpt lat="43.40611" lon="5.45259">
        <ele>515.4</ele>
        <time>2020-12-12T12:29:32Z</time>
      </trkpt>
      <trkpt lat="43.40606" lon="5.45277">
        <ele>515.88</ele>
        <time>2020-12-12T12:29:47Z</time>
      </trkpt>
      <trkpt lat="43.40604" lon="5.45292">
        <ele>515.88</ele>
        <time>2020-12-12T12:30:00Z</time>
      </trkpt>
      <trkpt lat="43.40607" lon="5.45308">
        <ele>516.85</ele>
        <time>2020-12-12T12:30:14Z</time>
      </trkpt>
      <trkpt lat="43.40607" lon="5.45312">
        <ele>518.29</ele>
        <time>2020-12-12T12:30:29Z</time>
      </trkpt>
      <trkpt lat="43.40608" lon="5.45312">
        <ele>518.29</ele>
        <time>2020-12-12T12:30:44Z</time>
      </trkpt>
      <trkpt lat="43.40613" lon="5.45318">
        <ele>519.25</ele>
        <time>2020-12-12T12:30:53Z</time>
      </trkpt>
      <trkpt lat="43.40623" lon="5.4533">
        <ele>520.69</ele>
        <time>2020-12-12T12:31:07Z</time>
      </trkpt>
      <trkpt lat="43.40631" lon="5.45342">
        <ele>522.13</ele>
        <time>2020-12-12T12:31:21Z</time>
      </trkpt>
      <trkpt lat="43.40633" lon="5.45345">
        <ele>522.61</ele>
        <time>2020-12-12T12:31:24Z</time>
      </trkpt>
      <trkpt lat="43.40636" lon="5.4535">
        <ele>523.09</ele>
        <time>2020-12-12T12:31:29Z</time>
      </trkpt>
      <trkpt lat="43.40638" lon="5.45356">
        <ele>523.09</ele>
        <time>2020-12-12T12:31:36Z</time>
      </trkpt>
      <trkpt lat="43.40643" lon="5.45371">
        <ele>525.98</ele>
        <time>2020-12-12T12:31:49Z</time>
      </trkpt>
      <trkpt lat="43.40647" lon="5.45385">
        <ele>527.42</ele>
        <time>2020-12-12T12:32:01Z</time>
      </trkpt>
      <trkpt lat="43.40653" lon="5.45401">
        <ele>528.38</ele>
        <time>2020-12-12T12:32:15Z</time>
      </trkpt>
      <trkpt lat="43.40659" lon="5.45417">
        <ele>529.82</ele>
        <time>2020-12-12T12:32:29Z</time>
      </trkpt>
      <trkpt lat="43.4066" lon="5.45417">
        <ele>530.3</ele>
        <time>2020-12-12T12:32:36Z</time>
      </trkpt>
      <trkpt lat="43.40657" lon="5.45408">
        <ele>529.82</ele>
        <time>2020-12-12T12:32:50Z</time>
      </trkpt>
      <trkpt lat="43.40656" lon="5.45407">
        <ele>529.82</ele>
        <time>2020-12-12T12:33:14Z</time>
      </trkpt>
      <trkpt lat="43.40659" lon="5.45406">
        <ele>528.38</ele>
        <time>2020-12-12T12:33:41Z</time>
      </trkpt>
      <trkpt lat="43.40657" lon="5.45407">
        <ele>527.42</ele>
        <time>2020-12-12T12:34:01Z</time>
      </trkpt>
      <trkpt lat="43.40658" lon="5.45407">
        <ele>527.42</ele>
        <time>2020-12-12T12:34:04Z</time>
      </trkpt>
      <trkpt lat="43.4066" lon="5.45417">
        <ele>528.86</ele>
        <time>2020-12-12T12:34:16Z</time>
      </trkpt>
      <trkpt lat="43.40664" lon="5.45432">
        <ele>530.3</ele>
        <time>2020-12-12T12:34:31Z</time>
      </trkpt>
      <trkpt lat="43.40666" lon="5.45444">
        <ele>531.27</ele>
        <time>2020-12-12T12:34:43Z</time>
      </trkpt>
      <trkpt lat="43.40669" lon="5.45463">
        <ele>530.79</ele>
        <time>2020-12-12T12:34:58Z</time>
      </trkpt>
      <trkpt lat="43.40672" lon="5.4548">
        <ele>531.27</ele>
        <time>2020-12-12T12:35:12Z</time>
      </trkpt>
      <trkpt lat="43.40672" lon="5.45481">
        <ele>531.27</ele>
        <time>2020-12-12T12:35:13Z</time>
      </trkpt>
      <trkpt lat="43.40673" lon="5.45488">
        <ele>531.75</ele>
        <time>2020-12-12T12:35:18Z</time>
      </trkpt>
      <trkpt lat="43.40675" lon="5.45499">
        <ele>532.23</ele>
        <time>2020-12-12T12:35:28Z</time>
      </trkpt>
      <trkpt lat="43.40678" lon="5.45505">
        <ele>533.19</ele>
        <time>2020-12-12T12:35:34Z</time>
      </trkpt>
      <trkpt lat="43.40677" lon="5.45511">
        <ele>533.67</ele>
        <time>2020-12-12T12:35:39Z</time>
      </trkpt>
      <trkpt lat="43.40677" lon="5.45517">
        <ele>534.15</ele>
        <time>2020-12-12T12:35:44Z</time>
      </trkpt>
      <trkpt lat="43.40676" lon="5.45532">
        <ele>533.67</ele>
        <time>2020-12-12T12:35:58Z</time>
      </trkpt>
      <trkpt lat="43.40673" lon="5.45545">
        <ele>534.15</ele>
        <time>2020-12-12T12:36:11Z</time>
      </trkpt>
      <trkpt lat="43.40672" lon="5.45552">
        <ele>534.63</ele>
        <time>2020-12-12T12:36:21Z</time>
      </trkpt>
      <trkpt lat="43.40667" lon="5.4556">
        <ele>534.15</ele>
        <time>2020-12-12T12:36:29Z</time>
      </trkpt>
      <trkpt lat="43.40664" lon="5.4557">
        <ele>533.67</ele>
        <time>2020-12-12T12:36:36Z</time>
      </trkpt>
      <trkpt lat="43.40656" lon="5.45582">
        <ele>534.15</ele>
        <time>2020-12-12T12:36:49Z</time>
      </trkpt>
      <trkpt lat="43.40646" lon="5.45592">
        <ele>536.07</ele>
        <time>2020-12-12T12:37:04Z</time>
      </trkpt>
      <trkpt lat="43.40636" lon="5.45599">
        <ele>536.07</ele>
        <time>2020-12-12T12:37:18Z</time>
      </trkpt>
      <trkpt lat="43.40632" lon="5.45601">
        <ele>536.55</ele>
        <time>2020-12-12T12:37:33Z</time>
      </trkpt>
      <trkpt lat="43.40623" lon="5.45605">
        <ele>537.99</ele>
        <time>2020-12-12T12:37:47Z</time>
      </trkpt>
      <trkpt lat="43.40609" lon="5.4561">
        <ele>539.92</ele>
        <time>2020-12-12T12:38:03Z</time>
      </trkpt>
      <trkpt lat="43.40599" lon="5.45623">
        <ele>540.4</ele>
        <time>2020-12-12T12:38:18Z</time>
      </trkpt>
      <trkpt lat="43.406" lon="5.4564">
        <ele>540.4</ele>
        <time>2020-12-12T12:38:30Z</time>
      </trkpt>
      <trkpt lat="43.406" lon="5.45658">
        <ele>540.88</ele>
        <time>2020-12-12T12:38:45Z</time>
      </trkpt>
      <trkpt lat="43.40599" lon="5.45658">
        <ele>541.36</ele>
        <time>2020-12-12T12:39:01Z</time>
      </trkpt>
      <trkpt lat="43.40599" lon="5.45675">
        <ele>543.76</ele>
        <time>2020-12-12T12:39:15Z</time>
      </trkpt>
      <trkpt lat="43.40599" lon="5.45688">
        <ele>546.17</ele>
        <time>2020-12-12T12:39:30Z</time>
      </trkpt>
      <trkpt lat="43.40599" lon="5.45691">
        <ele>546.65</ele>
        <time>2020-12-12T12:39:36Z</time>
      </trkpt>
      <trkpt lat="43.40597" lon="5.45707">
        <ele>548.57</ele>
        <time>2020-12-12T12:39:49Z</time>
      </trkpt>
      <trkpt lat="43.40596" lon="5.45721">
        <ele>547.61</ele>
        <time>2020-12-12T12:40:01Z</time>
      </trkpt>
      <trkpt lat="43.40593" lon="5.45741">
        <ele>548.09</ele>
        <time>2020-12-12T12:40:17Z</time>
      </trkpt>
      <trkpt lat="43.40592" lon="5.45758">
        <ele>548.09</ele>
        <time>2020-12-12T12:40:31Z</time>
      </trkpt>
      <trkpt lat="43.4059" lon="5.45765">
        <ele>548.09</ele>
        <time>2020-12-12T12:40:38Z</time>
      </trkpt>
      <trkpt lat="43.40582" lon="5.45777">
        <ele>549.05</ele>
        <time>2020-12-12T12:40:50Z</time>
      </trkpt>
      <trkpt lat="43.40577" lon="5.45782">
        <ele>549.53</ele>
        <time>2020-12-12T12:40:56Z</time>
      </trkpt>
      <trkpt lat="43.4057" lon="5.45791">
        <ele>548.57</ele>
        <time>2020-12-12T12:41:06Z</time>
      </trkpt>
      <trkpt lat="43.40569" lon="5.45808">
        <ele>549.53</ele>
        <time>2020-12-12T12:41:20Z</time>
      </trkpt>
      <trkpt lat="43.40569" lon="5.45811">
        <ele>550.01</ele>
        <time>2020-12-12T12:41:28Z</time>
      </trkpt>
      <trkpt lat="43.40573" lon="5.45824">
        <ele>551.45</ele>
        <time>2020-12-12T12:41:38Z</time>
      </trkpt>
      <trkpt lat="43.40574" lon="5.45835">
        <ele>551.93</ele>
        <time>2020-12-12T12:41:52Z</time>
      </trkpt>
      <trkpt lat="43.40573" lon="5.45839">
        <ele>552.9</ele>
        <time>2020-12-12T12:42:02Z</time>
      </trkpt>
      <trkpt lat="43.40572" lon="5.45841">
        <ele>553.38</ele>
        <time>2020-12-12T12:42:04Z</time>
      </trkpt>
      <trkpt lat="43.40571" lon="5.45846">
        <ele>555.3</ele>
        <time>2020-12-12T12:42:18Z</time>
      </trkpt>
      <trkpt lat="43.40573" lon="5.45847">
        <ele>552.9</ele>
        <time>2020-12-12T12:42:33Z</time>
      </trkpt>
      <trkpt lat="43.40574" lon="5.45846">
        <ele>553.38</ele>
        <time>2020-12-12T12:42:44Z</time>
      </trkpt>
      <trkpt lat="43.40567" lon="5.45858">
        <ele>552.9</ele>
        <time>2020-12-12T12:42:56Z</time>
      </trkpt>
      <trkpt lat="43.40564" lon="5.45861">
        <ele>552.9</ele>
        <time>2020-12-12T12:43:00Z</time>
      </trkpt>
      <trkpt lat="43.40556" lon="5.45869">
        <ele>552.9</ele>
        <time>2020-12-12T12:43:12Z</time>
      </trkpt>
      <trkpt lat="43.40546" lon="5.45873">
        <ele>554.34</ele>
        <time>2020-12-12T12:43:25Z</time>
      </trkpt>
      <trkpt lat="43.40537" lon="5.45886">
        <ele>557.22</ele>
        <time>2020-12-12T12:43:39Z</time>
      </trkpt>
      <trkpt lat="43.40538" lon="5.45889">
        <ele>557.7</ele>
        <time>2020-12-12T12:43:52Z</time>
      </trkpt>
      <trkpt lat="43.40537" lon="5.45894">
        <ele>558.66</ele>
        <time>2020-12-12T12:43:57Z</time>
      </trkpt>
      <trkpt lat="43.40538" lon="5.45909">
        <ele>559.62</ele>
        <time>2020-12-12T12:44:09Z</time>
      </trkpt>
      <trkpt lat="43.40541" lon="5.4592">
        <ele>561.55</ele>
        <time>2020-12-12T12:44:20Z</time>
      </trkpt>
      <trkpt lat="43.40543" lon="5.45927">
        <ele>562.51</ele>
        <time>2020-12-12T12:44:34Z</time>
      </trkpt>
      <trkpt lat="43.40543" lon="5.45926">
        <ele>563.95</ele>
        <time>2020-12-12T12:44:50Z</time>
      </trkpt>
      <trkpt lat="43.40539" lon="5.4594">
        <ele>561.07</ele>
        <time>2020-12-12T12:45:02Z</time>
      </trkpt>
      <trkpt lat="43.4054" lon="5.45951">
        <ele>561.07</ele>
        <time>2020-12-12T12:45:12Z</time>
      </trkpt>
      <trkpt lat="43.40543" lon="5.45953">
        <ele>561.55</ele>
        <time>2020-12-12T12:45:16Z</time>
      </trkpt>
      <trkpt lat="43.40551" lon="5.45947">
        <ele>563.47</ele>
        <time>2020-12-12T12:45:26Z</time>
      </trkpt>
      <trkpt lat="43.40552" lon="5.45927">
        <ele>564.43</ele>
        <time>2020-12-12T12:45:41Z</time>
      </trkpt>
      <trkpt lat="43.40552" lon="5.4591">
        <ele>564.91</ele>
        <time>2020-12-12T12:45:54Z</time>
      </trkpt>
      <trkpt lat="43.40561" lon="5.45897">
        <ele>566.35</ele>
        <time>2020-12-12T12:46:09Z</time>
      </trkpt>
      <trkpt lat="43.40565" lon="5.45895">
        <ele>566.83</ele>
        <time>2020-12-12T12:46:14Z</time>
      </trkpt>
      <trkpt lat="43.40576" lon="5.45889">
        <ele>567.8</ele>
        <time>2020-12-12T12:46:27Z</time>
      </trkpt>
      <trkpt lat="43.40578" lon="5.45888">
        <ele>567.8</ele>
        <time>2020-12-12T12:46:29Z</time>
      </trkpt>
      <trkpt lat="43.40586" lon="5.45874">
        <ele>568.76</ele>
        <time>2020-12-12T12:46:42Z</time>
      </trkpt>
      <trkpt lat="43.40589" lon="5.45869">
        <ele>571.16</ele>
        <time>2020-12-12T12:46:47Z</time>
      </trkpt>
      <trkpt lat="43.40598" lon="5.45859">
        <ele>572.6</ele>
        <time>2020-12-12T12:47:01Z</time>
      </trkpt>
      <trkpt lat="43.40601" lon="5.45853">
        <ele>573.08</ele>
        <time>2020-12-12T12:47:06Z</time>
      </trkpt>
      <trkpt lat="43.40604" lon="5.45836">
        <ele>574.04</ele>
        <time>2020-12-12T12:47:19Z</time>
      </trkpt>
      <trkpt lat="43.40607" lon="5.45818">
        <ele>573.56</ele>
        <time>2020-12-12T12:47:33Z</time>
      </trkpt>
      <trkpt lat="43.40614" lon="5.4581">
        <ele>574.04</ele>
        <time>2020-12-12T12:47:47Z</time>
      </trkpt>
      <trkpt lat="43.40622" lon="5.45799">
        <ele>574.04</ele>
        <time>2020-12-12T12:48:01Z</time>
      </trkpt>
      <trkpt lat="43.40632" lon="5.45786">
        <ele>574.53</ele>
        <time>2020-12-12T12:48:16Z</time>
      </trkpt>
      <trkpt lat="43.40638" lon="5.45772">
        <ele>574.04</ele>
        <time>2020-12-12T12:48:30Z</time>
      </trkpt>
      <trkpt lat="43.4064" lon="5.45753">
        <ele>575.01</ele>
        <time>2020-12-12T12:48:45Z</time>
      </trkpt>
      <trkpt lat="43.40644" lon="5.45735">
        <ele>574.53</ele>
        <time>2020-12-12T12:49:00Z</time>
      </trkpt>
      <trkpt lat="43.4065" lon="5.45722">
        <ele>575.49</ele>
        <time>2020-12-12T12:49:13Z</time>
      </trkpt>
      <trkpt lat="43.40653" lon="5.45713">
        <ele>575.01</ele>
        <time>2020-12-12T12:49:20Z</time>
      </trkpt>
      <trkpt lat="43.40659" lon="5.45699">
        <ele>575.01</ele>
        <time>2020-12-12T12:49:31Z</time>
      </trkpt>
      <trkpt lat="43.40665" lon="5.45689">
        <ele>575.49</ele>
        <time>2020-12-12T12:49:44Z</time>
      </trkpt>
      <trkpt lat="43.40669" lon="5.45685">
        <ele>575.97</ele>
        <time>2020-12-12T12:49:53Z</time>
      </trkpt>
      <trkpt lat="43.40673" lon="5.45683">
        <ele>576.93</ele>
        <time>2020-12-12T12:49:57Z</time>
      </trkpt>
      <trkpt lat="43.40685" lon="5.45671">
        <ele>580.77</ele>
        <time>2020-12-12T12:50:12Z</time>
      </trkpt>
      <trkpt lat="43.40695" lon="5.45662">
        <ele>581.73</ele>
        <time>2020-12-12T12:50:25Z</time>
      </trkpt>
      <trkpt lat="43.40703" lon="5.45652">
        <ele>580.29</ele>
        <time>2020-12-12T12:50:39Z</time>
      </trkpt>
      <trkpt lat="43.4071" lon="5.45647">
        <ele>581.25</ele>
        <time>2020-12-12T12:50:58Z</time>
      </trkpt>
      <trkpt lat="43.40722" lon="5.45639">
        <ele>583.66</ele>
        <time>2020-12-12T12:51:11Z</time>
      </trkpt>
      <trkpt lat="43.4073" lon="5.45627">
        <ele>585.58</ele>
        <time>2020-12-12T12:51:24Z</time>
      </trkpt>
      <trkpt lat="43.40732" lon="5.45624">
        <ele>586.06</ele>
        <time>2020-12-12T12:51:27Z</time>
      </trkpt>
      <trkpt lat="43.40735" lon="5.45617">
        <ele>587.02</ele>
        <time>2020-12-12T12:51:33Z</time>
      </trkpt>
      <trkpt lat="43.40742" lon="5.45607">
        <ele>587.5</ele>
        <time>2020-12-12T12:51:43Z</time>
      </trkpt>
      <trkpt lat="43.40751" lon="5.45593">
        <ele>585.58</ele>
        <time>2020-12-12T12:51:59Z</time>
      </trkpt>
      <trkpt lat="43.40759" lon="5.45581">
        <ele>585.58</ele>
        <time>2020-12-12T12:52:12Z</time>
      </trkpt>
      <trkpt lat="43.4077" lon="5.45571">
        <ele>585.58</ele>
        <time>2020-12-12T12:52:28Z</time>
      </trkpt>
      <trkpt lat="43.40774" lon="5.45563">
        <ele>585.1</ele>
        <time>2020-12-12T12:52:47Z</time>
      </trkpt>
      <trkpt lat="43.40772" lon="5.4556">
        <ele>584.14</ele>
        <time>2020-12-12T12:53:03Z</time>
      </trkpt>
      <trkpt lat="43.40765" lon="5.45558">
        <ele>583.18</ele>
        <time>2020-12-12T12:53:29Z</time>
      </trkpt>
      <trkpt lat="43.40762" lon="5.45553">
        <ele>582.7</ele>
        <time>2020-12-12T12:53:42Z</time>
      </trkpt>
      <trkpt lat="43.40762" lon="5.45549">
        <ele>580.29</ele>
        <time>2020-12-12T12:53:57Z</time>
      </trkpt>
      <trkpt lat="43.40761" lon="5.45547">
        <ele>580.77</ele>
        <time>2020-12-12T12:54:22Z</time>
      </trkpt>
      <trkpt lat="43.40758" lon="5.45547">
        <ele>578.37</ele>
        <time>2020-12-12T12:54:35Z</time>
      </trkpt>
      <trkpt lat="43.40757" lon="5.45545">
        <ele>579.33</ele>
        <time>2020-12-12T12:54:55Z</time>
      </trkpt>
      <trkpt lat="43.40758" lon="5.45545">
        <ele>581.25</ele>
        <time>2020-12-12T12:55:23Z</time>
      </trkpt>
      <trkpt lat="43.40758" lon="5.45545">
        <ele>580.77</ele>
        <time>2020-12-12T12:56:00Z</time>
      </trkpt>
      <trkpt lat="43.40757" lon="5.45543">
        <ele>580.77</ele>
        <time>2020-12-12T12:56:37Z</time>
      </trkpt>
      <trkpt lat="43.40756" lon="5.45543">
        <ele>579.81</ele>
        <time>2020-12-12T12:57:05Z</time>
      </trkpt>
      <trkpt lat="43.40756" lon="5.45543">
        <ele>580.29</ele>
        <time>2020-12-12T12:57:25Z</time>
      </trkpt>
      <trkpt lat="43.40755" lon="5.45544">
        <ele>580.29</ele>
        <time>2020-12-12T12:57:51Z</time>
      </trkpt>
      <trkpt lat="43.40755" lon="5.45548">
        <ele>579.33</ele>
        <time>2020-12-12T12:58:19Z</time>
      </trkpt>
      <trkpt lat="43.40755" lon="5.45546">
        <ele>580.29</ele>
        <time>2020-12-12T12:58:45Z</time>
      </trkpt>
      <trkpt lat="43.40757" lon="5.45544">
        <ele>580.29</ele>
        <time>2020-12-12T12:59:09Z</time>
      </trkpt>
      <trkpt lat="43.40757" lon="5.45545">
        <ele>580.29</ele>
        <time>2020-12-12T12:59:27Z</time>
      </trkpt>
      <trkpt lat="43.40758" lon="5.45544">
        <ele>579.33</ele>
        <time>2020-12-12T12:59:37Z</time>
      </trkpt>
      <trkpt lat="43.40758" lon="5.45545">
        <ele>579.81</ele>
        <time>2020-12-12T12:59:52Z</time>
      </trkpt>
      <trkpt lat="43.40758" lon="5.45545">
        <ele>580.29</ele>
        <time>2020-12-12T13:00:19Z</time>
      </trkpt>
      <trkpt lat="43.40758" lon="5.45544">
        <ele>580.77</ele>
        <time>2020-12-12T13:00:46Z</time>
      </trkpt>
      <trkpt lat="43.40758" lon="5.45544">
        <ele>580.77</ele>
        <time>2020-12-12T13:01:29Z</time>
      </trkpt>
      <trkpt lat="43.40757" lon="5.45545">
        <ele>580.77</ele>
        <time>2020-12-12T13:02:03Z</time>
      </trkpt>
      <trkpt lat="43.40757" lon="5.45545">
        <ele>581.25</ele>
        <time>2020-12-12T13:02:38Z</time>
      </trkpt>
      <trkpt lat="43.40758" lon="5.45545">
        <ele>581.25</ele>
        <time>2020-12-12T13:03:06Z</time>
      </trkpt>
      <trkpt lat="43.40758" lon="5.45545">
        <ele>581.73</ele>
        <time>2020-12-12T13:03:47Z</time>
      </trkpt>
      <trkpt lat="43.40757" lon="5.45545">
        <ele>581.73</ele>
        <time>2020-12-12T13:04:20Z</time>
      </trkpt>
      <trkpt lat="43.40757" lon="5.45545">
        <ele>581.25</ele>
        <time>2020-12-12T13:04:56Z</time>
      </trkpt>
      <trkpt lat="43.40757" lon="5.45545">
        <ele>580.77</ele>
        <time>2020-12-12T13:05:22Z</time>
      </trkpt>
      <trkpt lat="43.40757" lon="5.45545">
        <ele>580.29</ele>
        <time>2020-12-12T13:06:08Z</time>
      </trkpt>
      <trkpt lat="43.40758" lon="5.45546">
        <ele>580.77</ele>
        <time>2020-12-12T13:06:28Z</time>
      </trkpt>
      <trkpt lat="43.40758" lon="5.45545">
        <ele>581.25</ele>
        <time>2020-12-12T13:06:55Z</time>
      </trkpt>
      <trkpt lat="43.40758" lon="5.45546">
        <ele>583.18</ele>
        <time>2020-12-12T13:07:24Z</time>
      </trkpt>
      <trkpt lat="43.40758" lon="5.45545">
        <ele>580.29</ele>
        <time>2020-12-12T13:07:51Z</time>
      </trkpt>
      <trkpt lat="43.40757" lon="5.45546">
        <ele>581.25</ele>
        <time>2020-12-12T13:08:19Z</time>
      </trkpt>
      <trkpt lat="43.40756" lon="5.45544">
        <ele>581.25</ele>
        <time>2020-12-12T13:08:46Z</time>
      </trkpt>
      <trkpt lat="43.40757" lon="5.45545">
        <ele>579.33</ele>
        <time>2020-12-12T13:09:12Z</time>
      </trkpt>
      <trkpt lat="43.40756" lon="5.45546">
        <ele>579.33</ele>
        <time>2020-12-12T13:09:27Z</time>
      </trkpt>
      <trkpt lat="43.40756" lon="5.45546">
        <ele>579.81</ele>
        <time>2020-12-12T13:09:53Z</time>
      </trkpt>
      <trkpt lat="43.40756" lon="5.45548">
        <ele>580.29</ele>
        <time>2020-12-12T13:10:04Z</time>
      </trkpt>
      <trkpt lat="43.40761" lon="5.45529">
        <ele>565.39</ele>
        <time>2020-12-12T13:40:27Z</time>
      </trkpt>
      <trkpt lat="43.40766" lon="5.45527">
        <ele>575.01</ele>
        <time>2020-12-12T13:40:43Z</time>
      </trkpt>
      <trkpt lat="43.40761" lon="5.45531">
        <ele>575.01</ele>
        <time>2020-12-12T13:40:49Z</time>
      </trkpt>
      <trkpt lat="43.4076" lon="5.45541">
        <ele>576.45</ele>
        <time>2020-12-12T13:41:00Z</time>
      </trkpt>
      <trkpt lat="43.40761" lon="5.45551">
        <ele>578.37</ele>
        <time>2020-12-12T13:41:13Z</time>
      </trkpt>
      <trkpt lat="43.40762" lon="5.45559">
        <ele>579.33</ele>
        <time>2020-12-12T13:41:26Z</time>
      </trkpt>
      <trkpt lat="43.40762" lon="5.45557">
        <ele>578.85</ele>
        <time>2020-12-12T13:41:46Z</time>
      </trkpt>
      <trkpt lat="43.40762" lon="5.45556">
        <ele>579.81</ele>
        <time>2020-12-12T13:42:13Z</time>
      </trkpt>
      <trkpt lat="43.40762" lon="5.45557">
        <ele>576.93</ele>
        <time>2020-12-12T13:42:46Z</time>
      </trkpt>
      <trkpt lat="43.40763" lon="5.45554">
        <ele>579.33</ele>
        <time>2020-12-12T13:43:04Z</time>
      </trkpt>
      <trkpt lat="43.40759" lon="5.45552">
        <ele>579.33</ele>
        <time>2020-12-12T13:43:14Z</time>
      </trkpt>
      <trkpt lat="43.40762" lon="5.45554">
        <ele>581.25</ele>
        <time>2020-12-12T13:43:32Z</time>
      </trkpt>
      <trkpt lat="43.40762" lon="5.45556">
        <ele>581.25</ele>
        <time>2020-12-12T13:43:49Z</time>
      </trkpt>
      <trkpt lat="43.40763" lon="5.45556">
        <ele>582.22</ele>
        <time>2020-12-12T13:44:08Z</time>
      </trkpt>
      <trkpt lat="43.40763" lon="5.45556">
        <ele>581.25</ele>
        <time>2020-12-12T13:44:35Z</time>
      </trkpt>
      <trkpt lat="43.40764" lon="5.45556">
        <ele>583.66</ele>
        <time>2020-12-12T13:44:58Z</time>
      </trkpt>
      <trkpt lat="43.40763" lon="5.4556">
        <ele>585.1</ele>
        <time>2020-12-12T13:45:24Z</time>
      </trkpt>
      <trkpt lat="43.40767" lon="5.45568">
        <ele>584.62</ele>
        <time>2020-12-12T13:45:35Z</time>
      </trkpt>
      <trkpt lat="43.40775" lon="5.45574">
        <ele>583.66</ele>
        <time>2020-12-12T13:45:47Z</time>
      </trkpt>
      <trkpt lat="43.40783" lon="5.45582">
        <ele>582.7</ele>
        <time>2020-12-12T13:45:59Z</time>
      </trkpt>
      <trkpt lat="43.40785" lon="5.45584">
        <ele>582.7</ele>
        <time>2020-12-12T13:46:02Z</time>
      </trkpt>
      <trkpt lat="43.40798" lon="5.45595">
        <ele>583.18</ele>
        <time>2020-12-12T13:46:18Z</time>
      </trkpt>
      <trkpt lat="43.40809" lon="5.45602">
        <ele>584.14</ele>
        <time>2020-12-12T13:46:32Z</time>
      </trkpt>
      <trkpt lat="43.40816" lon="5.45606">
        <ele>583.66</ele>
        <time>2020-12-12T13:46:39Z</time>
      </trkpt>
      <trkpt lat="43.40828" lon="5.45613">
        <ele>583.66</ele>
        <time>2020-12-12T13:46:53Z</time>
      </trkpt>
      <trkpt lat="43.40838" lon="5.45622">
        <ele>585.1</ele>
        <time>2020-12-12T13:47:07Z</time>
      </trkpt>
      <trkpt lat="43.40847" lon="5.45633">
        <ele>583.66</ele>
        <time>2020-12-12T13:47:21Z</time>
      </trkpt>
      <trkpt lat="43.40855" lon="5.45646">
        <ele>584.14</ele>
        <time>2020-12-12T13:47:33Z</time>
      </trkpt>
      <trkpt lat="43.40859" lon="5.45655">
        <ele>586.54</ele>
        <time>2020-12-12T13:47:45Z</time>
      </trkpt>
      <trkpt lat="43.40861" lon="5.45653">
        <ele>585.1</ele>
        <time>2020-12-12T13:48:26Z</time>
      </trkpt>
      <trkpt lat="43.40862" lon="5.45657">
        <ele>584.62</ele>
        <time>2020-12-12T13:48:46Z</time>
      </trkpt>
      <trkpt lat="43.40862" lon="5.45669">
        <ele>585.58</ele>
        <time>2020-12-12T13:49:01Z</time>
      </trkpt>
      <trkpt lat="43.40862" lon="5.45679">
        <ele>585.58</ele>
        <time>2020-12-12T13:49:10Z</time>
      </trkpt>
      <trkpt lat="43.4086" lon="5.45697">
        <ele>587.5</ele>
        <time>2020-12-12T13:49:24Z</time>
      </trkpt>
      <trkpt lat="43.40858" lon="5.45711">
        <ele>587.02</ele>
        <time>2020-12-12T13:49:35Z</time>
      </trkpt>
      <trkpt lat="43.40853" lon="5.45724">
        <ele>585.1</ele>
        <time>2020-12-12T13:49:47Z</time>
      </trkpt>
      <trkpt lat="43.40846" lon="5.45735">
        <ele>584.62</ele>
        <time>2020-12-12T13:50:00Z</time>
      </trkpt>
      <trkpt lat="43.40837" lon="5.45745">
        <ele>585.58</ele>
        <time>2020-12-12T13:50:14Z</time>
      </trkpt>
      <trkpt lat="43.40828" lon="5.45758">
        <ele>586.06</ele>
        <time>2020-12-12T13:50:28Z</time>
      </trkpt>
      <trkpt lat="43.40818" lon="5.45769">
        <ele>585.1</ele>
        <time>2020-12-12T13:50:40Z</time>
      </trkpt>
      <trkpt lat="43.40811" lon="5.45779">
        <ele>585.1</ele>
        <time>2020-12-12T13:50:51Z</time>
      </trkpt>
      <trkpt lat="43.40804" lon="5.45795">
        <ele>587.02</ele>
        <time>2020-12-12T13:51:05Z</time>
      </trkpt>
      <trkpt lat="43.40797" lon="5.45808">
        <ele>585.58</ele>
        <time>2020-12-12T13:51:17Z</time>
      </trkpt>
      <trkpt lat="43.40792" lon="5.45819">
        <ele>586.06</ele>
        <time>2020-12-12T13:51:28Z</time>
      </trkpt>
      <trkpt lat="43.4079" lon="5.45828">
        <ele>588.95</ele>
        <time>2020-12-12T13:51:44Z</time>
      </trkpt>
      <trkpt lat="43.40785" lon="5.45844">
        <ele>589.43</ele>
        <time>2020-12-12T13:51:57Z</time>
      </trkpt>
      <trkpt lat="43.40783" lon="5.45866">
        <ele>588.95</ele>
        <time>2020-12-12T13:52:13Z</time>
      </trkpt>
      <trkpt lat="43.40782" lon="5.45888">
        <ele>589.43</ele>
        <time>2020-12-12T13:52:30Z</time>
      </trkpt>
      <trkpt lat="43.40781" lon="5.45903">
        <ele>592.79</ele>
        <time>2020-12-12T13:52:43Z</time>
      </trkpt>
      <trkpt lat="43.40776" lon="5.45914">
        <ele>595.19</ele>
        <time>2020-12-12T13:52:53Z</time>
      </trkpt>
      <trkpt lat="43.40766" lon="5.45923">
        <ele>597.12</ele>
        <time>2020-12-12T13:53:06Z</time>
      </trkpt>
      <trkpt lat="43.40765" lon="5.45924">
        <ele>597.12</ele>
        <time>2020-12-12T13:53:07Z</time>
      </trkpt>
      <trkpt lat="43.40755" lon="5.45933">
        <ele>598.08</ele>
        <time>2020-12-12T13:53:20Z</time>
      </trkpt>
      <trkpt lat="43.40753" lon="5.45934">
        <ele>598.56</ele>
        <time>2020-12-12T13:53:22Z</time>
      </trkpt>
      <trkpt lat="43.4075" lon="5.45936">
        <ele>600</ele>
        <time>2020-12-12T13:53:26Z</time>
      </trkpt>
      <trkpt lat="43.40737" lon="5.45945">
        <ele>602.4</ele>
        <time>2020-12-12T13:53:42Z</time>
      </trkpt>
      <trkpt lat="43.40733" lon="5.45947">
        <ele>602.88</ele>
        <time>2020-12-12T13:53:46Z</time>
      </trkpt>
      <trkpt lat="43.40726" lon="5.45952">
        <ele>603.36</ele>
        <time>2020-12-12T13:53:55Z</time>
      </trkpt>
      <trkpt lat="43.40724" lon="5.45956">
        <ele>602.88</ele>
        <time>2020-12-12T13:53:58Z</time>
      </trkpt>
      <trkpt lat="43.40715" lon="5.45962">
        <ele>602.4</ele>
        <time>2020-12-12T13:54:12Z</time>
      </trkpt>
      <trkpt lat="43.40711" lon="5.45968">
        <ele>602.4</ele>
        <time>2020-12-12T13:54:18Z</time>
      </trkpt>
      <trkpt lat="43.40708" lon="5.45974">
        <ele>602.4</ele>
        <time>2020-12-12T13:54:25Z</time>
      </trkpt>
      <trkpt lat="43.407" lon="5.45985">
        <ele>604.33</ele>
        <time>2020-12-12T13:54:39Z</time>
      </trkpt>
      <trkpt lat="43.40698" lon="5.45988">
        <ele>604.33</ele>
        <time>2020-12-12T13:54:43Z</time>
      </trkpt>
      <trkpt lat="43.40691" lon="5.45996">
        <ele>605.77</ele>
        <time>2020-12-12T13:54:52Z</time>
      </trkpt>
      <trkpt lat="43.40686" lon="5.46004">
        <ele>606.73</ele>
        <time>2020-12-12T13:55:00Z</time>
      </trkpt>
      <trkpt lat="43.40684" lon="5.46005">
        <ele>606.73</ele>
        <time>2020-12-12T13:55:02Z</time>
      </trkpt>
      <trkpt lat="43.40682" lon="5.46007">
        <ele>606.25</ele>
        <time>2020-12-12T13:55:04Z</time>
      </trkpt>
      <trkpt lat="43.40673" lon="5.46013">
        <ele>606.25</ele>
        <time>2020-12-12T13:55:16Z</time>
      </trkpt>
      <trkpt lat="43.40664" lon="5.46019">
        <ele>605.77</ele>
        <time>2020-12-12T13:55:26Z</time>
      </trkpt>
      <trkpt lat="43.40655" lon="5.46031">
        <ele>606.73</ele>
        <time>2020-12-12T13:55:41Z</time>
      </trkpt>
      <trkpt lat="43.4065" lon="5.46037">
        <ele>607.21</ele>
        <time>2020-12-12T13:55:48Z</time>
      </trkpt>
      <trkpt lat="43.40642" lon="5.46047">
        <ele>607.69</ele>
        <time>2020-12-12T13:56:00Z</time>
      </trkpt>
      <trkpt lat="43.40634" lon="5.46055">
        <ele>608.65</ele>
        <time>2020-12-12T13:56:12Z</time>
      </trkpt>
      <trkpt lat="43.40633" lon="5.46056">
        <ele>608.65</ele>
        <time>2020-12-12T13:56:31Z</time>
      </trkpt>
      <trkpt lat="43.40633" lon="5.4606">
        <ele>608.17</ele>
        <time>2020-12-12T13:56:43Z</time>
      </trkpt>
      <trkpt lat="43.40633" lon="5.46061">
        <ele>610.09</ele>
        <time>2020-12-12T13:56:56Z</time>
      </trkpt>
      <trkpt lat="43.4063" lon="5.46058">
        <ele>610.09</ele>
        <time>2020-12-12T13:57:13Z</time>
      </trkpt>
      <trkpt lat="43.40627" lon="5.46058">
        <ele>610.57</ele>
        <time>2020-12-12T13:57:30Z</time>
      </trkpt>
      <trkpt lat="43.40625" lon="5.46058">
        <ele>613.46</ele>
        <time>2020-12-12T13:57:45Z</time>
      </trkpt>
      <trkpt lat="43.40624" lon="5.46054">
        <ele>615.86</ele>
        <time>2020-12-12T13:58:06Z</time>
      </trkpt>
      <trkpt lat="43.40623" lon="5.46054">
        <ele>615.38</ele>
        <time>2020-12-12T13:58:21Z</time>
      </trkpt>
      <trkpt lat="43.40619" lon="5.46055">
        <ele>617.3</ele>
        <time>2020-12-12T13:58:41Z</time>
      </trkpt>
      <trkpt lat="43.4061" lon="5.46057">
        <ele>620.19</ele>
        <time>2020-12-12T13:58:57Z</time>
      </trkpt>
      <trkpt lat="43.40603" lon="5.4606">
        <ele>621.63</ele>
        <time>2020-12-12T13:59:14Z</time>
      </trkpt>
      <trkpt lat="43.406" lon="5.4606">
        <ele>620.67</ele>
        <time>2020-12-12T13:59:32Z</time>
      </trkpt>
      <trkpt lat="43.406" lon="5.46058">
        <ele>619.23</ele>
        <time>2020-12-12T13:59:50Z</time>
      </trkpt>
      <trkpt lat="43.40599" lon="5.4606">
        <ele>619.23</ele>
        <time>2020-12-12T14:00:16Z</time>
      </trkpt>
      <trkpt lat="43.40597" lon="5.46063">
        <ele>619.23</ele>
        <time>2020-12-12T14:00:38Z</time>
      </trkpt>
      <trkpt lat="43.40592" lon="5.46071">
        <ele>621.15</ele>
        <time>2020-12-12T14:00:57Z</time>
      </trkpt>
      <trkpt lat="43.40587" lon="5.46082">
        <ele>622.59</ele>
        <time>2020-12-12T14:01:11Z</time>
      </trkpt>
      <trkpt lat="43.40584" lon="5.46085">
        <ele>623.07</ele>
        <time>2020-12-12T14:01:23Z</time>
      </trkpt>
      <trkpt lat="43.4058" lon="5.46094">
        <ele>625.96</ele>
        <time>2020-12-12T14:01:40Z</time>
      </trkpt>
      <trkpt lat="43.40576" lon="5.46101">
        <ele>628.36</ele>
        <time>2020-12-12T14:01:56Z</time>
      </trkpt>
      <trkpt lat="43.40575" lon="5.46105">
        <ele>628.84</ele>
        <time>2020-12-12T14:02:13Z</time>
      </trkpt>
      <trkpt lat="43.40575" lon="5.46103">
        <ele>630.28</ele>
        <time>2020-12-12T14:02:35Z</time>
      </trkpt>
      <trkpt lat="43.40575" lon="5.46105">
        <ele>632.2</ele>
        <time>2020-12-12T14:02:53Z</time>
      </trkpt>
      <trkpt lat="43.40575" lon="5.46106">
        <ele>634.13</ele>
        <time>2020-12-12T14:03:20Z</time>
      </trkpt>
      <trkpt lat="43.40573" lon="5.46108">
        <ele>634.13</ele>
        <time>2020-12-12T14:03:39Z</time>
      </trkpt>
      <trkpt lat="43.40572" lon="5.4611">
        <ele>632.68</ele>
        <time>2020-12-12T14:04:15Z</time>
      </trkpt>
      <trkpt lat="43.40572" lon="5.46112">
        <ele>630.76</ele>
        <time>2020-12-12T14:04:52Z</time>
      </trkpt>
      <trkpt lat="43.40574" lon="5.46112">
        <ele>630.28</ele>
        <time>2020-12-12T14:05:36Z</time>
      </trkpt>
      <trkpt lat="43.40574" lon="5.46113">
        <ele>629.8</ele>
        <time>2020-12-12T14:06:07Z</time>
      </trkpt>
      <trkpt lat="43.40574" lon="5.46112">
        <ele>630.76</ele>
        <time>2020-12-12T14:06:40Z</time>
      </trkpt>
      <trkpt lat="43.40574" lon="5.46113">
        <ele>631.24</ele>
        <time>2020-12-12T14:07:16Z</time>
      </trkpt>
      <trkpt lat="43.40572" lon="5.46117">
        <ele>634.61</ele>
        <time>2020-12-12T14:07:38Z</time>
      </trkpt>
      <trkpt lat="43.4057" lon="5.46124">
        <ele>636.53</ele>
        <time>2020-12-12T14:07:44Z</time>
      </trkpt>
      <trkpt lat="43.40568" lon="5.46129">
        <ele>638.45</ele>
        <time>2020-12-12T14:07:48Z</time>
      </trkpt>
      <trkpt lat="43.40569" lon="5.46135">
        <ele>639.41</ele>
        <time>2020-12-12T14:07:52Z</time>
      </trkpt>
      <trkpt lat="43.40561" lon="5.46149">
        <ele>643.26</ele>
        <time>2020-12-12T14:08:03Z</time>
      </trkpt>
      <trkpt lat="43.40559" lon="5.46154">
        <ele>644.7</ele>
        <time>2020-12-12T14:08:07Z</time>
      </trkpt>
      <trkpt lat="43.40556" lon="5.4616">
        <ele>646.62</ele>
        <time>2020-12-12T14:08:12Z</time>
      </trkpt>
      <trkpt lat="43.40557" lon="5.46183">
        <ele>651.91</ele>
        <time>2020-12-12T14:08:27Z</time>
      </trkpt>
      <trkpt lat="43.40558" lon="5.46187">
        <ele>652.39</ele>
        <time>2020-12-12T14:08:29Z</time>
      </trkpt>
      <trkpt lat="43.40558" lon="5.46199">
        <ele>653.35</ele>
        <time>2020-12-12T14:08:35Z</time>
      </trkpt>
      <trkpt lat="43.40556" lon="5.46225">
        <ele>657.2</ele>
        <time>2020-12-12T14:08:51Z</time>
      </trkpt>
      <trkpt lat="43.40552" lon="5.46235">
        <ele>660.56</ele>
        <time>2020-12-12T14:09:02Z</time>
      </trkpt>
      <trkpt lat="43.40548" lon="5.4624">
        <ele>662.49</ele>
        <time>2020-12-12T14:09:18Z</time>
      </trkpt>
      <trkpt lat="43.40544" lon="5.46246">
        <ele>665.85</ele>
        <time>2020-12-12T14:09:33Z</time>
      </trkpt>
      <trkpt lat="43.4054" lon="5.4625">
        <ele>667.29</ele>
        <time>2020-12-12T14:09:46Z</time>
      </trkpt>
      <trkpt lat="43.40538" lon="5.46252">
        <ele>669.22</ele>
        <time>2020-12-12T14:10:03Z</time>
      </trkpt>
      <trkpt lat="43.40536" lon="5.46258">
        <ele>671.14</ele>
        <time>2020-12-12T14:10:17Z</time>
      </trkpt>
      <trkpt lat="43.40532" lon="5.46259">
        <ele>674.02</ele>
        <time>2020-12-12T14:10:30Z</time>
      </trkpt>
      <trkpt lat="43.40527" lon="5.46266">
        <ele>674.5</ele>
        <time>2020-12-12T14:10:43Z</time>
      </trkpt>
      <trkpt lat="43.40527" lon="5.46267">
        <ele>673.06</ele>
        <time>2020-12-12T14:11:00Z</time>
      </trkpt>
      <trkpt lat="43.40529" lon="5.46273">
        <ele>669.7</ele>
        <time>2020-12-12T14:11:21Z</time>
      </trkpt>
      <trkpt lat="43.40528" lon="5.4627">
        <ele>670.66</ele>
        <time>2020-12-12T14:11:46Z</time>
      </trkpt>
      <trkpt lat="43.4053" lon="5.46273">
        <ele>667.77</ele>
        <time>2020-12-12T14:12:12Z</time>
      </trkpt>
      <trkpt lat="43.40528" lon="5.46272">
        <ele>670.18</ele>
        <time>2020-12-12T14:12:39Z</time>
      </trkpt>
      <trkpt lat="43.40529" lon="5.46271">
        <ele>674.5</ele>
        <time>2020-12-12T14:13:10Z</time>
      </trkpt>
      <trkpt lat="43.40527" lon="5.4627">
        <ele>672.1</ele>
        <time>2020-12-12T14:13:42Z</time>
      </trkpt>
      <trkpt lat="43.40525" lon="5.46269">
        <ele>672.1</ele>
        <time>2020-12-12T14:14:01Z</time>
      </trkpt>
      <trkpt lat="43.40525" lon="5.4627">
        <ele>671.62</ele>
        <time>2020-12-12T14:14:19Z</time>
      </trkpt>
      <trkpt lat="43.40525" lon="5.46271">
        <ele>671.62</ele>
        <time>2020-12-12T14:14:31Z</time>
      </trkpt>
      <trkpt lat="43.40526" lon="5.46271">
        <ele>670.66</ele>
        <time>2020-12-12T14:14:47Z</time>
      </trkpt>
      <trkpt lat="43.40526" lon="5.46271">
        <ele>669.22</ele>
        <time>2020-12-12T14:15:06Z</time>
      </trkpt>
      <trkpt lat="43.40526" lon="5.4627">
        <ele>669.22</ele>
        <time>2020-12-12T14:15:24Z</time>
      </trkpt>
      <trkpt lat="43.40527" lon="5.46268">
        <ele>670.66</ele>
        <time>2020-12-12T14:15:41Z</time>
      </trkpt>
      <trkpt lat="43.40526" lon="5.46269">
        <ele>671.14</ele>
        <time>2020-12-12T14:15:57Z</time>
      </trkpt>
      <trkpt lat="43.40523" lon="5.46273">
        <ele>670.18</ele>
        <time>2020-12-12T14:16:10Z</time>
      </trkpt>
      <trkpt lat="43.40523" lon="5.46274">
        <ele>670.18</ele>
        <time>2020-12-12T14:16:11Z</time>
      </trkpt>
      <trkpt lat="43.40523" lon="5.46283">
        <ele>669.22</ele>
        <time>2020-12-12T14:16:21Z</time>
      </trkpt>
      <trkpt lat="43.4052" lon="5.46295">
        <ele>669.22</ele>
        <time>2020-12-12T14:16:34Z</time>
      </trkpt>
      <trkpt lat="43.40521" lon="5.46304">
        <ele>670.66</ele>
        <time>2020-12-12T14:16:44Z</time>
      </trkpt>
      <trkpt lat="43.4052" lon="5.4632">
        <ele>671.62</ele>
        <time>2020-12-12T14:16:58Z</time>
      </trkpt>
      <trkpt lat="43.40523" lon="5.46332">
        <ele>671.14</ele>
        <time>2020-12-12T14:17:11Z</time>
      </trkpt>
      <trkpt lat="43.40526" lon="5.46335">
        <ele>670.66</ele>
        <time>2020-12-12T14:17:27Z</time>
      </trkpt>
      <trkpt lat="43.40524" lon="5.46337">
        <ele>669.7</ele>
        <time>2020-12-12T14:17:44Z</time>
      </trkpt>
      <trkpt lat="43.40524" lon="5.4634">
        <ele>669.22</ele>
        <time>2020-12-12T14:18:00Z</time>
      </trkpt>
      <trkpt lat="43.40525" lon="5.46342">
        <ele>667.77</ele>
        <time>2020-12-12T14:18:16Z</time>
      </trkpt>
      <trkpt lat="43.40526" lon="5.46342">
        <ele>668.73</ele>
        <time>2020-12-12T14:18:32Z</time>
      </trkpt>
      <trkpt lat="43.40525" lon="5.46344">
        <ele>669.7</ele>
        <time>2020-12-12T14:18:53Z</time>
      </trkpt>
      <trkpt lat="43.40522" lon="5.46351">
        <ele>668.25</ele>
        <time>2020-12-12T14:19:03Z</time>
      </trkpt>
      <trkpt lat="43.40527" lon="5.46363">
        <ele>664.89</ele>
        <time>2020-12-12T14:19:15Z</time>
      </trkpt>
      <trkpt lat="43.40529" lon="5.46368">
        <ele>662.01</ele>
        <time>2020-12-12T14:19:26Z</time>
      </trkpt>
      <trkpt lat="43.40529" lon="5.46371">
        <ele>662.01</ele>
        <time>2020-12-12T14:19:28Z</time>
      </trkpt>
      <trkpt lat="43.40528" lon="5.4638">
        <ele>661.52</ele>
        <time>2020-12-12T14:19:43Z</time>
      </trkpt>
      <trkpt lat="43.40527" lon="5.46385">
        <ele>661.52</ele>
        <time>2020-12-12T14:19:55Z</time>
      </trkpt>
      <trkpt lat="43.40525" lon="5.4639">
        <ele>661.52</ele>
        <time>2020-12-12T14:20:06Z</time>
      </trkpt>
      <trkpt lat="43.40525" lon="5.46393">
        <ele>662.97</ele>
        <time>2020-12-12T14:20:24Z</time>
      </trkpt>
      <trkpt lat="43.40527" lon="5.46405">
        <ele>662.49</ele>
        <time>2020-12-12T14:20:37Z</time>
      </trkpt>
      <trkpt lat="43.40526" lon="5.46412">
        <ele>662.49</ele>
        <time>2020-12-12T14:20:44Z</time>
      </trkpt>
      <trkpt lat="43.40523" lon="5.46419">
        <ele>663.45</ele>
        <time>2020-12-12T14:20:58Z</time>
      </trkpt>
      <trkpt lat="43.40522" lon="5.46425">
        <ele>663.93</ele>
        <time>2020-12-12T14:21:14Z</time>
      </trkpt>
      <trkpt lat="43.40526" lon="5.46436">
        <ele>664.41</ele>
        <time>2020-12-12T14:21:28Z</time>
      </trkpt>
      <trkpt lat="43.40531" lon="5.46433">
        <ele>667.77</ele>
        <time>2020-12-12T14:21:40Z</time>
      </trkpt>
      <trkpt lat="43.4053" lon="5.46439">
        <ele>668.25</ele>
        <time>2020-12-12T14:21:53Z</time>
      </trkpt>
      <trkpt lat="43.4053" lon="5.46441">
        <ele>670.18</ele>
        <time>2020-12-12T14:22:08Z</time>
      </trkpt>
      <trkpt lat="43.4053" lon="5.46443">
        <ele>670.66</ele>
        <time>2020-12-12T14:22:14Z</time>
      </trkpt>
      <trkpt lat="43.40531" lon="5.46459">
        <ele>671.62</ele>
        <time>2020-12-12T14:22:28Z</time>
      </trkpt>
      <trkpt lat="43.40531" lon="5.46467">
        <ele>674.5</ele>
        <time>2020-12-12T14:22:43Z</time>
      </trkpt>
      <trkpt lat="43.40533" lon="5.46463">
        <ele>674.5</ele>
        <time>2020-12-12T14:22:58Z</time>
      </trkpt>
      <trkpt lat="43.40534" lon="5.46461">
        <ele>673.54</ele>
        <time>2020-12-12T14:23:08Z</time>
      </trkpt>
      <trkpt lat="43.40533" lon="5.46457">
        <ele>672.58</ele>
        <time>2020-12-12T14:23:11Z</time>
      </trkpt>
      <trkpt lat="43.40531" lon="5.46448">
        <ele>669.22</ele>
        <time>2020-12-12T14:23:25Z</time>
      </trkpt>
      <trkpt lat="43.40531" lon="5.46443">
        <ele>668.25</ele>
        <time>2020-12-12T14:23:42Z</time>
      </trkpt>
      <trkpt lat="43.4053" lon="5.46439">
        <ele>668.73</ele>
        <time>2020-12-12T14:23:59Z</time>
      </trkpt>
      <trkpt lat="43.40529" lon="5.46438">
        <ele>669.22</ele>
        <time>2020-12-12T14:24:17Z</time>
      </trkpt>
      <trkpt lat="43.40523" lon="5.46437">
        <ele>663.93</ele>
        <time>2020-12-12T14:24:53Z</time>
      </trkpt>
      <trkpt lat="43.40521" lon="5.46438">
        <ele>662.49</ele>
        <time>2020-12-12T14:25:08Z</time>
      </trkpt>
      <trkpt lat="43.40517" lon="5.46446">
        <ele>663.45</ele>
        <time>2020-12-12T14:25:15Z</time>
      </trkpt>
      <trkpt lat="43.40515" lon="5.46457">
        <ele>664.89</ele>
        <time>2020-12-12T14:25:28Z</time>
      </trkpt>
      <trkpt lat="43.40516" lon="5.46467">
        <ele>666.81</ele>
        <time>2020-12-12T14:25:42Z</time>
      </trkpt>
      <trkpt lat="43.40516" lon="5.46477">
        <ele>668.73</ele>
        <time>2020-12-12T14:25:55Z</time>
      </trkpt>
      <trkpt lat="43.40521" lon="5.46482">
        <ele>670.66</ele>
        <time>2020-12-12T14:26:06Z</time>
      </trkpt>
      <trkpt lat="43.40522" lon="5.46484">
        <ele>672.58</ele>
        <time>2020-12-12T14:26:19Z</time>
      </trkpt>
      <trkpt lat="43.40523" lon="5.4649">
        <ele>670.66</ele>
        <time>2020-12-12T14:26:33Z</time>
      </trkpt>
      <trkpt lat="43.40522" lon="5.46498">
        <ele>668.25</ele>
        <time>2020-12-12T14:26:45Z</time>
      </trkpt>
      <trkpt lat="43.40525" lon="5.46503">
        <ele>668.25</ele>
        <time>2020-12-12T14:26:55Z</time>
      </trkpt>
      <trkpt lat="43.40525" lon="5.46508">
        <ele>666.33</ele>
        <time>2020-12-12T14:27:05Z</time>
      </trkpt>
      <trkpt lat="43.40526" lon="5.46513">
        <ele>665.37</ele>
        <time>2020-12-12T14:27:21Z</time>
      </trkpt>
      <trkpt lat="43.40529" lon="5.46523">
        <ele>663.45</ele>
        <time>2020-12-12T14:27:35Z</time>
      </trkpt>
      <trkpt lat="43.40528" lon="5.4653">
        <ele>662.97</ele>
        <time>2020-12-12T14:27:44Z</time>
      </trkpt>
      <trkpt lat="43.40533" lon="5.4654">
        <ele>662.01</ele>
        <time>2020-12-12T14:27:57Z</time>
      </trkpt>
      <trkpt lat="43.40535" lon="5.46545">
        <ele>661.52</ele>
        <time>2020-12-12T14:28:08Z</time>
      </trkpt>
      <trkpt lat="43.40537" lon="5.46552">
        <ele>661.52</ele>
        <time>2020-12-12T14:28:20Z</time>
      </trkpt>
      <trkpt lat="43.40536" lon="5.4656">
        <ele>660.56</ele>
        <time>2020-12-12T14:28:32Z</time>
      </trkpt>
      <trkpt lat="43.40533" lon="5.46563">
        <ele>660.08</ele>
        <time>2020-12-12T14:28:46Z</time>
      </trkpt>
      <trkpt lat="43.40533" lon="5.4657">
        <ele>661.04</ele>
        <time>2020-12-12T14:29:03Z</time>
      </trkpt>
      <trkpt lat="43.40532" lon="5.46575">
        <ele>660.56</ele>
        <time>2020-12-12T14:29:15Z</time>
      </trkpt>
      <trkpt lat="43.40534" lon="5.46577">
        <ele>660.56</ele>
        <time>2020-12-12T14:29:36Z</time>
      </trkpt>
      <trkpt lat="43.40535" lon="5.46577">
        <ele>660.08</ele>
        <time>2020-12-12T14:30:11Z</time>
      </trkpt>
      <trkpt lat="43.40535" lon="5.46577">
        <ele>660.08</ele>
        <time>2020-12-12T14:30:47Z</time>
      </trkpt>
      <trkpt lat="43.40537" lon="5.46575">
        <ele>660.56</ele>
        <time>2020-12-12T14:31:10Z</time>
      </trkpt>
      <trkpt lat="43.40538" lon="5.46575">
        <ele>660.56</ele>
        <time>2020-12-12T14:31:29Z</time>
      </trkpt>
      <trkpt lat="43.40541" lon="5.46582">
        <ele>659.6</ele>
        <time>2020-12-12T14:31:43Z</time>
      </trkpt>
      <trkpt lat="43.40546" lon="5.46597">
        <ele>656.72</ele>
        <time>2020-12-12T14:31:58Z</time>
      </trkpt>
      <trkpt lat="43.40545" lon="5.46598">
        <ele>656.24</ele>
        <time>2020-12-12T14:32:17Z</time>
      </trkpt>
      <trkpt lat="43.40546" lon="5.46605">
        <ele>655.76</ele>
        <time>2020-12-12T14:32:30Z</time>
      </trkpt>
      <trkpt lat="43.40548" lon="5.46616">
        <ele>654.31</ele>
        <time>2020-12-12T14:32:42Z</time>
      </trkpt>
      <trkpt lat="43.40549" lon="5.46631">
        <ele>654.31</ele>
        <time>2020-12-12T14:32:55Z</time>
      </trkpt>
      <trkpt lat="43.4055" lon="5.46632">
        <ele>654.31</ele>
        <time>2020-12-12T14:32:56Z</time>
      </trkpt>
      <trkpt lat="43.40548" lon="5.4664">
        <ele>654.8</ele>
        <time>2020-12-12T14:33:12Z</time>
      </trkpt>
      <trkpt lat="43.40548" lon="5.46647">
        <ele>653.83</ele>
        <time>2020-12-12T14:33:29Z</time>
      </trkpt>
      <trkpt lat="43.40549" lon="5.46653">
        <ele>652.87</ele>
        <time>2020-12-12T14:33:47Z</time>
      </trkpt>
      <trkpt lat="43.40549" lon="5.4666">
        <ele>653.35</ele>
        <time>2020-12-12T14:33:57Z</time>
      </trkpt>
      <trkpt lat="43.40549" lon="5.46668">
        <ele>652.87</ele>
        <time>2020-12-12T14:34:04Z</time>
      </trkpt>
      <trkpt lat="43.40549" lon="5.46671">
        <ele>651.91</ele>
        <time>2020-12-12T14:34:07Z</time>
      </trkpt>
      <trkpt lat="43.40548" lon="5.46678">
        <ele>651.91</ele>
        <time>2020-12-12T14:34:12Z</time>
      </trkpt>
      <trkpt lat="43.40549" lon="5.46681">
        <ele>651.43</ele>
        <time>2020-12-12T14:34:14Z</time>
      </trkpt>
      <trkpt lat="43.40551" lon="5.46696">
        <ele>649.99</ele>
        <time>2020-12-12T14:34:26Z</time>
      </trkpt>
      <trkpt lat="43.40554" lon="5.4671">
        <ele>647.1</ele>
        <time>2020-12-12T14:34:40Z</time>
      </trkpt>
      <trkpt lat="43.40558" lon="5.46727">
        <ele>643.74</ele>
        <time>2020-12-12T14:34:53Z</time>
      </trkpt>
      <trkpt lat="43.40562" lon="5.46742">
        <ele>642.3</ele>
        <time>2020-12-12T14:35:06Z</time>
      </trkpt>
      <trkpt lat="43.40567" lon="5.46755">
        <ele>640.38</ele>
        <time>2020-12-12T14:35:17Z</time>
      </trkpt>
      <trkpt lat="43.4057" lon="5.46772">
        <ele>637.01</ele>
        <time>2020-12-12T14:35:31Z</time>
      </trkpt>
      <trkpt lat="43.40571" lon="5.46775">
        <ele>636.05</ele>
        <time>2020-12-12T14:35:35Z</time>
      </trkpt>
      <trkpt lat="43.40578" lon="5.46786">
        <ele>634.13</ele>
        <time>2020-12-12T14:35:46Z</time>
      </trkpt>
      <trkpt lat="43.40585" lon="5.46791">
        <ele>632.68</ele>
        <time>2020-12-12T14:35:58Z</time>
      </trkpt>
      <trkpt lat="43.40593" lon="5.46795">
        <ele>632.2</ele>
        <time>2020-12-12T14:36:08Z</time>
      </trkpt>
      <trkpt lat="43.40597" lon="5.46798">
        <ele>631.24</ele>
        <time>2020-12-12T14:36:15Z</time>
      </trkpt>
      <trkpt lat="43.40601" lon="5.46803">
        <ele>631.72</ele>
        <time>2020-12-12T14:36:19Z</time>
      </trkpt>
      <trkpt lat="43.40605" lon="5.46812">
        <ele>631.24</ele>
        <time>2020-12-12T14:36:26Z</time>
      </trkpt>
      <trkpt lat="43.40617" lon="5.46825">
        <ele>629.8</ele>
        <time>2020-12-12T14:36:40Z</time>
      </trkpt>
      <trkpt lat="43.4062" lon="5.46829">
        <ele>630.28</ele>
        <time>2020-12-12T14:36:45Z</time>
      </trkpt>
      <trkpt lat="43.4062" lon="5.46833">
        <ele>630.28</ele>
        <time>2020-12-12T14:36:49Z</time>
      </trkpt>
      <trkpt lat="43.40611" lon="5.46836">
        <ele>632.68</ele>
        <time>2020-12-12T14:37:04Z</time>
      </trkpt>
      <trkpt lat="43.4061" lon="5.46836">
        <ele>633.65</ele>
        <time>2020-12-12T14:37:06Z</time>
      </trkpt>
      <trkpt lat="43.40598" lon="5.46834">
        <ele>636.05</ele>
        <time>2020-12-12T14:37:20Z</time>
      </trkpt>
      <trkpt lat="43.40596" lon="5.46834">
        <ele>636.05</ele>
        <time>2020-12-12T14:37:22Z</time>
      </trkpt>
      <trkpt lat="43.40582" lon="5.46838">
        <ele>637.97</ele>
        <time>2020-12-12T14:37:38Z</time>
      </trkpt>
      <trkpt lat="43.40568" lon="5.46844">
        <ele>639.41</ele>
        <time>2020-12-12T14:37:52Z</time>
      </trkpt>
      <trkpt lat="43.40558" lon="5.46848">
        <ele>638.45</ele>
        <time>2020-12-12T14:38:02Z</time>
      </trkpt>
      <trkpt lat="43.40549" lon="5.4686">
        <ele>638.45</ele>
        <time>2020-12-12T14:38:16Z</time>
      </trkpt>
      <trkpt lat="43.40548" lon="5.46866">
        <ele>638.45</ele>
        <time>2020-12-12T14:38:21Z</time>
      </trkpt>
      <trkpt lat="43.40548" lon="5.46871">
        <ele>638.45</ele>
        <time>2020-12-12T14:38:25Z</time>
      </trkpt>
      <trkpt lat="43.40545" lon="5.46893">
        <ele>637.49</ele>
        <time>2020-12-12T14:38:40Z</time>
      </trkpt>
      <trkpt lat="43.40541" lon="5.4691">
        <ele>637.01</ele>
        <time>2020-12-12T14:38:53Z</time>
      </trkpt>
      <trkpt lat="43.40537" lon="5.46923">
        <ele>633.17</ele>
        <time>2020-12-12T14:39:07Z</time>
      </trkpt>
      <trkpt lat="43.40537" lon="5.46924">
        <ele>633.17</ele>
        <time>2020-12-12T14:39:09Z</time>
      </trkpt>
      <trkpt lat="43.40536" lon="5.46932">
        <ele>632.68</ele>
        <time>2020-12-12T14:39:22Z</time>
      </trkpt>
      <trkpt lat="43.4053" lon="5.46943">
        <ele>631.72</ele>
        <time>2020-12-12T14:39:34Z</time>
      </trkpt>
      <trkpt lat="43.40525" lon="5.46954">
        <ele>632.68</ele>
        <time>2020-12-12T14:39:45Z</time>
      </trkpt>
      <trkpt lat="43.4052" lon="5.4697">
        <ele>631.72</ele>
        <time>2020-12-12T14:39:56Z</time>
      </trkpt>
      <trkpt lat="43.40518" lon="5.46983">
        <ele>629.8</ele>
        <time>2020-12-12T14:40:07Z</time>
      </trkpt>
      <trkpt lat="43.4052" lon="5.46996">
        <ele>629.8</ele>
        <time>2020-12-12T14:40:16Z</time>
      </trkpt>
      <trkpt lat="43.4052" lon="5.47003">
        <ele>630.76</ele>
        <time>2020-12-12T14:40:21Z</time>
      </trkpt>
      <trkpt lat="43.40519" lon="5.47007">
        <ele>630.76</ele>
        <time>2020-12-12T14:40:24Z</time>
      </trkpt>
      <trkpt lat="43.40522" lon="5.47028">
        <ele>627.4</ele>
        <time>2020-12-12T14:40:38Z</time>
      </trkpt>
      <trkpt lat="43.40522" lon="5.47037">
        <ele>626.44</ele>
        <time>2020-12-12T14:40:45Z</time>
      </trkpt>
      <trkpt lat="43.40519" lon="5.47053">
        <ele>625.47</ele>
        <time>2020-12-12T14:40:58Z</time>
      </trkpt>
      <trkpt lat="43.40517" lon="5.47062">
        <ele>623.07</ele>
        <time>2020-12-12T14:41:13Z</time>
      </trkpt>
      <trkpt lat="43.40511" lon="5.47079">
        <ele>621.63</ele>
        <time>2020-12-12T14:41:27Z</time>
      </trkpt>
      <trkpt lat="43.40509" lon="5.47085">
        <ele>620.67</ele>
        <time>2020-12-12T14:41:32Z</time>
      </trkpt>
      <trkpt lat="43.40503" lon="5.47104">
        <ele>618.75</ele>
        <time>2020-12-12T14:41:46Z</time>
      </trkpt>
      <trkpt lat="43.40499" lon="5.47122">
        <ele>615.86</ele>
        <time>2020-12-12T14:41:59Z</time>
      </trkpt>
      <trkpt lat="43.40497" lon="5.47126">
        <ele>616.34</ele>
        <time>2020-12-12T14:42:03Z</time>
      </trkpt>
      <trkpt lat="43.40494" lon="5.47129">
        <ele>616.34</ele>
        <time>2020-12-12T14:42:08Z</time>
      </trkpt>
      <trkpt lat="43.40479" lon="5.47139">
        <ele>616.82</ele>
        <time>2020-12-12T14:42:25Z</time>
      </trkpt>
      <trkpt lat="43.40463" lon="5.47143">
        <ele>615.86</ele>
        <time>2020-12-12T14:42:41Z</time>
      </trkpt>
      <trkpt lat="43.40452" lon="5.47144">
        <ele>614.9</ele>
        <time>2020-12-12T14:42:54Z</time>
      </trkpt>
      <trkpt lat="43.40444" lon="5.47154">
        <ele>615.38</ele>
        <time>2020-12-12T14:43:11Z</time>
      </trkpt>
      <trkpt lat="43.40445" lon="5.47158">
        <ele>615.38</ele>
        <time>2020-12-12T14:43:24Z</time>
      </trkpt>
      <trkpt lat="43.40441" lon="5.47168">
        <ele>616.82</ele>
        <time>2020-12-12T14:43:37Z</time>
      </trkpt>
      <trkpt lat="43.40436" lon="5.4718">
        <ele>618.75</ele>
        <time>2020-12-12T14:43:50Z</time>
      </trkpt>
      <trkpt lat="43.40434" lon="5.47186">
        <ele>620.19</ele>
        <time>2020-12-12T14:43:56Z</time>
      </trkpt>
      <trkpt lat="43.40427" lon="5.47201">
        <ele>619.71</ele>
        <time>2020-12-12T14:44:08Z</time>
      </trkpt>
      <trkpt lat="43.40425" lon="5.47218">
        <ele>618.75</ele>
        <time>2020-12-12T14:44:19Z</time>
      </trkpt>
      <trkpt lat="43.40427" lon="5.47226">
        <ele>617.78</ele>
        <time>2020-12-12T14:44:25Z</time>
      </trkpt>
      <trkpt lat="43.4043" lon="5.47244">
        <ele>613.46</ele>
        <time>2020-12-12T14:44:38Z</time>
      </trkpt>
      <trkpt lat="43.40438" lon="5.47261">
        <ele>610.57</ele>
        <time>2020-12-12T14:44:53Z</time>
      </trkpt>
      <trkpt lat="43.40442" lon="5.47278">
        <ele>609.13</ele>
        <time>2020-12-12T14:45:06Z</time>
      </trkpt>
      <trkpt lat="43.40446" lon="5.47296">
        <ele>608.17</ele>
        <time>2020-12-12T14:45:21Z</time>
      </trkpt>
      <trkpt lat="43.40451" lon="5.47313">
        <ele>610.09</ele>
        <time>2020-12-12T14:45:34Z</time>
      </trkpt>
      <trkpt lat="43.40452" lon="5.47321">
        <ele>610.09</ele>
        <time>2020-12-12T14:45:40Z</time>
      </trkpt>
      <trkpt lat="43.40458" lon="5.4733">
        <ele>610.09</ele>
        <time>2020-12-12T14:45:52Z</time>
      </trkpt>
      <trkpt lat="43.40462" lon="5.47333">
        <ele>612.5</ele>
        <time>2020-12-12T14:46:10Z</time>
      </trkpt>
      <trkpt lat="43.40464" lon="5.47352">
        <ele>612.02</ele>
        <time>2020-12-12T14:46:23Z</time>
      </trkpt>
      <trkpt lat="43.40469" lon="5.47366">
        <ele>611.54</ele>
        <time>2020-12-12T14:46:35Z</time>
      </trkpt>
      <trkpt lat="43.40473" lon="5.47377">
        <ele>612.02</ele>
        <time>2020-12-12T14:46:44Z</time>
      </trkpt>
      <trkpt lat="43.40474" lon="5.47383">
        <ele>612.5</ele>
        <time>2020-12-12T14:46:48Z</time>
      </trkpt>
      <trkpt lat="43.40477" lon="5.47402">
        <ele>614.42</ele>
        <time>2020-12-12T14:47:03Z</time>
      </trkpt>
      <trkpt lat="43.40479" lon="5.47407">
        <ele>614.9</ele>
        <time>2020-12-12T14:47:07Z</time>
      </trkpt>
      <trkpt lat="43.40493" lon="5.47424">
        <ele>615.86</ele>
        <time>2020-12-12T14:47:20Z</time>
      </trkpt>
      <trkpt lat="43.40501" lon="5.47435">
        <ele>615.86</ele>
        <time>2020-12-12T14:47:33Z</time>
      </trkpt>
      <trkpt lat="43.40502" lon="5.47438">
        <ele>615.38</ele>
        <time>2020-12-12T14:47:36Z</time>
      </trkpt>
      <trkpt lat="43.40502" lon="5.47446">
        <ele>614.42</ele>
        <time>2020-12-12T14:47:45Z</time>
      </trkpt>
      <trkpt lat="43.40501" lon="5.47464">
        <ele>612.02</ele>
        <time>2020-12-12T14:47:59Z</time>
      </trkpt>
      <trkpt lat="43.40499" lon="5.47479">
        <ele>611.06</ele>
        <time>2020-12-12T14:48:12Z</time>
      </trkpt>
      <trkpt lat="43.40501" lon="5.47483">
        <ele>612.5</ele>
        <time>2020-12-12T14:48:26Z</time>
      </trkpt>
      <trkpt lat="43.40502" lon="5.47482">
        <ele>613.46</ele>
        <time>2020-12-12T14:48:39Z</time>
      </trkpt>
      <trkpt lat="43.40507" lon="5.47504">
        <ele>612.98</ele>
        <time>2020-12-12T14:48:54Z</time>
      </trkpt>
      <trkpt lat="43.40511" lon="5.47509">
        <ele>613.94</ele>
        <time>2020-12-12T14:49:07Z</time>
      </trkpt>
      <trkpt lat="43.40511" lon="5.47518">
        <ele>612.5</ele>
        <time>2020-12-12T14:49:19Z</time>
      </trkpt>
      <trkpt lat="43.40511" lon="5.47529">
        <ele>612.02</ele>
        <time>2020-12-12T14:49:29Z</time>
      </trkpt>
      <trkpt lat="43.40517" lon="5.47545">
        <ele>610.57</ele>
        <time>2020-12-12T14:49:43Z</time>
      </trkpt>
      <trkpt lat="43.40524" lon="5.47557">
        <ele>608.65</ele>
        <time>2020-12-12T14:49:54Z</time>
      </trkpt>
      <trkpt lat="43.40525" lon="5.47558">
        <ele>608.65</ele>
        <time>2020-12-12T14:49:55Z</time>
      </trkpt>
      <trkpt lat="43.40528" lon="5.47563">
        <ele>608.17</ele>
        <time>2020-12-12T14:49:59Z</time>
      </trkpt>
      <trkpt lat="43.40539" lon="5.47573">
        <ele>608.17</ele>
        <time>2020-12-12T14:50:11Z</time>
      </trkpt>
      <trkpt lat="43.40542" lon="5.47575">
        <ele>607.69</ele>
        <time>2020-12-12T14:50:14Z</time>
      </trkpt>
      <trkpt lat="43.40557" lon="5.4758">
        <ele>608.17</ele>
        <time>2020-12-12T14:50:28Z</time>
      </trkpt>
      <trkpt lat="43.40569" lon="5.47585">
        <ele>609.13</ele>
        <time>2020-12-12T14:50:39Z</time>
      </trkpt>
      <trkpt lat="43.40573" lon="5.47584">
        <ele>607.21</ele>
        <time>2020-12-12T14:50:51Z</time>
      </trkpt>
      <trkpt lat="43.40575" lon="5.47587">
        <ele>607.21</ele>
        <time>2020-12-12T14:50:55Z</time>
      </trkpt>
      <trkpt lat="43.40578" lon="5.476">
        <ele>607.21</ele>
        <time>2020-12-12T14:51:10Z</time>
      </trkpt>
      <trkpt lat="43.40585" lon="5.47606">
        <ele>607.21</ele>
        <time>2020-12-12T14:51:24Z</time>
      </trkpt>
      <trkpt lat="43.40587" lon="5.47609">
        <ele>607.21</ele>
        <time>2020-12-12T14:51:26Z</time>
      </trkpt>
      <trkpt lat="43.4059" lon="5.47614">
        <ele>605.77</ele>
        <time>2020-12-12T14:51:31Z</time>
      </trkpt>
      <trkpt lat="43.40594" lon="5.47623">
        <ele>605.29</ele>
        <time>2020-12-12T14:51:38Z</time>
      </trkpt>
      <trkpt lat="43.40602" lon="5.47633">
        <ele>605.29</ele>
        <time>2020-12-12T14:51:49Z</time>
      </trkpt>
      <trkpt lat="43.40609" lon="5.47647">
        <ele>605.29</ele>
        <time>2020-12-12T14:52:01Z</time>
      </trkpt>
      <trkpt lat="43.40605" lon="5.47638">
        <ele>604.81</ele>
        <time>2020-12-12T14:52:07Z</time>
      </trkpt>
      <trkpt lat="43.40609" lon="5.47647">
        <ele>604.33</ele>
        <time>2020-12-12T14:52:12Z</time>
      </trkpt>
      <trkpt lat="43.40618" lon="5.47666">
        <ele>603.36</ele>
        <time>2020-12-12T14:52:27Z</time>
      </trkpt>
      <trkpt lat="43.40626" lon="5.47681">
        <ele>601.92</ele>
        <time>2020-12-12T14:52:39Z</time>
      </trkpt>
      <trkpt lat="43.40629" lon="5.47685">
        <ele>601.92</ele>
        <time>2020-12-12T14:52:43Z</time>
      </trkpt>
      <trkpt lat="43.40631" lon="5.47687">
        <ele>601.92</ele>
        <time>2020-12-12T14:52:45Z</time>
      </trkpt>
      <trkpt lat="43.40633" lon="5.47691">
        <ele>601.44</ele>
        <time>2020-12-12T14:52:48Z</time>
      </trkpt>
      <trkpt lat="43.40635" lon="5.47693">
        <ele>601.44</ele>
        <time>2020-12-12T14:52:50Z</time>
      </trkpt>
      <trkpt lat="43.40649" lon="5.47708">
        <ele>599.52</ele>
        <time>2020-12-12T14:53:06Z</time>
      </trkpt>
      <trkpt lat="43.40655" lon="5.47714">
        <ele>598.08</ele>
        <time>2020-12-12T14:53:14Z</time>
      </trkpt>
      <trkpt lat="43.40667" lon="5.47723">
        <ele>596.15</ele>
        <time>2020-12-12T14:53:28Z</time>
      </trkpt>
      <trkpt lat="43.40675" lon="5.47735">
        <ele>594.71</ele>
        <time>2020-12-12T14:53:40Z</time>
      </trkpt>
      <trkpt lat="43.40685" lon="5.47748">
        <ele>593.27</ele>
        <time>2020-12-12T14:53:53Z</time>
      </trkpt>
      <trkpt lat="43.40697" lon="5.47761">
        <ele>591.35</ele>
        <time>2020-12-12T14:54:06Z</time>
      </trkpt>
      <trkpt lat="43.40706" lon="5.47773">
        <ele>589.43</ele>
        <time>2020-12-12T14:54:18Z</time>
      </trkpt>
      <trkpt lat="43.40708" lon="5.47775">
        <ele>589.43</ele>
        <time>2020-12-12T14:54:21Z</time>
      </trkpt>
      <trkpt lat="43.40709" lon="5.47778">
        <ele>588.46</ele>
        <time>2020-12-12T14:54:23Z</time>
      </trkpt>
      <trkpt lat="43.40718" lon="5.47793">
        <ele>587.5</ele>
        <time>2020-12-12T14:54:37Z</time>
      </trkpt>
      <trkpt lat="43.40724" lon="5.47807">
        <ele>584.62</ele>
        <time>2020-12-12T14:54:48Z</time>
      </trkpt>
      <trkpt lat="43.40733" lon="5.47826">
        <ele>583.66</ele>
        <time>2020-12-12T14:55:03Z</time>
      </trkpt>
      <trkpt lat="43.40739" lon="5.47838">
        <ele>584.14</ele>
        <time>2020-12-12T14:55:17Z</time>
      </trkpt>
      <trkpt lat="43.40741" lon="5.47838">
        <ele>584.14</ele>
        <time>2020-12-12T14:55:46Z</time>
      </trkpt>
      <trkpt lat="43.40745" lon="5.47843">
        <ele>584.62</ele>
        <time>2020-12-12T14:56:01Z</time>
      </trkpt>
      <trkpt lat="43.40744" lon="5.47843">
        <ele>583.66</ele>
        <time>2020-12-12T14:56:06Z</time>
      </trkpt>
      <trkpt lat="43.40746" lon="5.47862">
        <ele>583.18</ele>
        <time>2020-12-12T14:56:20Z</time>
      </trkpt>
      <trkpt lat="43.40747" lon="5.47878">
        <ele>582.22</ele>
        <time>2020-12-12T14:56:31Z</time>
      </trkpt>
      <trkpt lat="43.40752" lon="5.47899">
        <ele>580.77</ele>
        <time>2020-12-12T14:56:47Z</time>
      </trkpt>
      <trkpt lat="43.40757" lon="5.47919">
        <ele>581.73</ele>
        <time>2020-12-12T14:57:02Z</time>
      </trkpt>
      <trkpt lat="43.40758" lon="5.4792">
        <ele>581.73</ele>
        <time>2020-12-12T14:57:03Z</time>
      </trkpt>
      <trkpt lat="43.40763" lon="5.47941">
        <ele>583.66</ele>
        <time>2020-12-12T14:57:18Z</time>
      </trkpt>
      <trkpt lat="43.40768" lon="5.47955">
        <ele>583.18</ele>
        <time>2020-12-12T14:57:29Z</time>
      </trkpt>
      <trkpt lat="43.40769" lon="5.47958">
        <ele>583.66</ele>
        <time>2020-12-12T14:57:31Z</time>
      </trkpt>
      <trkpt lat="43.40776" lon="5.47979">
        <ele>584.14</ele>
        <time>2020-12-12T14:57:47Z</time>
      </trkpt>
      <trkpt lat="43.40776" lon="5.47982">
        <ele>584.62</ele>
        <time>2020-12-12T14:57:49Z</time>
      </trkpt>
      <trkpt lat="43.40777" lon="5.47985">
        <ele>584.62</ele>
        <time>2020-12-12T14:57:51Z</time>
      </trkpt>
      <trkpt lat="43.40782" lon="5.48005">
        <ele>584.62</ele>
        <time>2020-12-12T14:58:06Z</time>
      </trkpt>
      <trkpt lat="43.40787" lon="5.48031">
        <ele>584.62</ele>
        <time>2020-12-12T14:58:23Z</time>
      </trkpt>
      <trkpt lat="43.4079" lon="5.48036">
        <ele>584.62</ele>
        <time>2020-12-12T14:58:34Z</time>
      </trkpt>
      <trkpt lat="43.40789" lon="5.48041">
        <ele>584.62</ele>
        <time>2020-12-12T14:58:50Z</time>
      </trkpt>
      <trkpt lat="43.4079" lon="5.48056">
        <ele>585.1</ele>
        <time>2020-12-12T14:59:05Z</time>
      </trkpt>
      <trkpt lat="43.40792" lon="5.48076">
        <ele>585.1</ele>
        <time>2020-12-12T14:59:19Z</time>
      </trkpt>
      <trkpt lat="43.40792" lon="5.48096">
        <ele>584.62</ele>
        <time>2020-12-12T14:59:34Z</time>
      </trkpt>
      <trkpt lat="43.40791" lon="5.4812">
        <ele>584.62</ele>
        <time>2020-12-12T14:59:50Z</time>
      </trkpt>
      <trkpt lat="43.40792" lon="5.48142">
        <ele>584.62</ele>
        <time>2020-12-12T15:00:05Z</time>
      </trkpt>
      <trkpt lat="43.40791" lon="5.48161">
        <ele>584.62</ele>
        <time>2020-12-12T15:00:19Z</time>
      </trkpt>
      <trkpt lat="43.40789" lon="5.48175">
        <ele>585.1</ele>
        <time>2020-12-12T15:00:29Z</time>
      </trkpt>
      <trkpt lat="43.4079" lon="5.48199">
        <ele>585.1</ele>
        <time>2020-12-12T15:00:45Z</time>
      </trkpt>
      <trkpt lat="43.40792" lon="5.48222">
        <ele>586.54</ele>
        <time>2020-12-12T15:01:01Z</time>
      </trkpt>
      <trkpt lat="43.40795" lon="5.48244">
        <ele>586.54</ele>
        <time>2020-12-12T15:01:17Z</time>
      </trkpt>
      <trkpt lat="43.40797" lon="5.48264">
        <ele>587.5</ele>
        <time>2020-12-12T15:01:32Z</time>
      </trkpt>
      <trkpt lat="43.40801" lon="5.48284">
        <ele>588.46</ele>
        <time>2020-12-12T15:01:46Z</time>
      </trkpt>
      <trkpt lat="43.40804" lon="5.483">
        <ele>588.95</ele>
        <time>2020-12-12T15:01:59Z</time>
      </trkpt>
      <trkpt lat="43.40809" lon="5.48315">
        <ele>588.46</ele>
        <time>2020-12-12T15:02:13Z</time>
      </trkpt>
      <trkpt lat="43.40813" lon="5.48334">
        <ele>589.91</ele>
        <time>2020-12-12T15:02:28Z</time>
      </trkpt>
      <trkpt lat="43.40815" lon="5.4834">
        <ele>589.91</ele>
        <time>2020-12-12T15:02:35Z</time>
      </trkpt>
      <trkpt lat="43.40826" lon="5.48352">
        <ele>590.87</ele>
        <time>2020-12-12T15:02:48Z</time>
      </trkpt>
      <trkpt lat="43.40837" lon="5.48351">
        <ele>590.87</ele>
        <time>2020-12-12T15:02:57Z</time>
      </trkpt>
      <trkpt lat="43.4084" lon="5.48349">
        <ele>590.39</ele>
        <time>2020-12-12T15:03:13Z</time>
      </trkpt>
      <trkpt lat="43.40839" lon="5.48354">
        <ele>590.87</ele>
        <time>2020-12-12T15:03:24Z</time>
      </trkpt>
      <trkpt lat="43.4084" lon="5.48362">
        <ele>590.87</ele>
        <time>2020-12-12T15:03:31Z</time>
      </trkpt>
      <trkpt lat="43.40842" lon="5.48377">
        <ele>587.5</ele>
        <time>2020-12-12T15:03:44Z</time>
      </trkpt>
      <trkpt lat="43.40844" lon="5.48387">
        <ele>586.54</ele>
        <time>2020-12-12T15:03:58Z</time>
      </trkpt>
      <trkpt lat="43.40846" lon="5.48397">
        <ele>586.54</ele>
        <time>2020-12-12T15:04:09Z</time>
      </trkpt>
      <trkpt lat="43.40849" lon="5.48413">
        <ele>586.06</ele>
        <time>2020-12-12T15:04:21Z</time>
      </trkpt>
      <trkpt lat="43.40849" lon="5.48414">
        <ele>585.58</ele>
        <time>2020-12-12T15:04:22Z</time>
      </trkpt>
      <trkpt lat="43.40853" lon="5.48431">
        <ele>584.62</ele>
        <time>2020-12-12T15:04:35Z</time>
      </trkpt>
      <trkpt lat="43.40856" lon="5.48442">
        <ele>583.18</ele>
        <time>2020-12-12T15:04:43Z</time>
      </trkpt>
      <trkpt lat="43.40859" lon="5.48453">
        <ele>582.22</ele>
        <time>2020-12-12T15:04:51Z</time>
      </trkpt>
      <trkpt lat="43.40868" lon="5.48476">
        <ele>580.77</ele>
        <time>2020-12-12T15:05:07Z</time>
      </trkpt>
      <trkpt lat="43.40872" lon="5.48488">
        <ele>579.33</ele>
        <time>2020-12-12T15:05:18Z</time>
      </trkpt>
      <trkpt lat="43.40878" lon="5.48505">
        <ele>578.37</ele>
        <time>2020-12-12T15:05:32Z</time>
      </trkpt>
      <trkpt lat="43.40882" lon="5.48522">
        <ele>575.97</ele>
        <time>2020-12-12T15:05:44Z</time>
      </trkpt>
      <trkpt lat="43.40889" lon="5.48531">
        <ele>575.49</ele>
        <time>2020-12-12T15:05:51Z</time>
      </trkpt>
      <trkpt lat="43.40896" lon="5.48545">
        <ele>573.56</ele>
        <time>2020-12-12T15:06:04Z</time>
      </trkpt>
      <trkpt lat="43.40898" lon="5.48548">
        <ele>573.08</ele>
        <time>2020-12-12T15:06:07Z</time>
      </trkpt>
      <trkpt lat="43.40902" lon="5.48554">
        <ele>573.56</ele>
        <time>2020-12-12T15:06:13Z</time>
      </trkpt>
      <trkpt lat="43.40903" lon="5.4856">
        <ele>573.08</ele>
        <time>2020-12-12T15:06:18Z</time>
      </trkpt>
      <trkpt lat="43.40904" lon="5.4857">
        <ele>571.64</ele>
        <time>2020-12-12T15:06:26Z</time>
      </trkpt>
      <trkpt lat="43.40904" lon="5.48579">
        <ele>569.24</ele>
        <time>2020-12-12T15:06:32Z</time>
      </trkpt>
      <trkpt lat="43.40904" lon="5.48588">
        <ele>566.83</ele>
        <time>2020-12-12T15:06:39Z</time>
      </trkpt>
      <trkpt lat="43.40907" lon="5.48608">
        <ele>563.47</ele>
        <time>2020-12-12T15:06:53Z</time>
      </trkpt>
      <trkpt lat="43.4091" lon="5.48618">
        <ele>562.03</ele>
        <time>2020-12-12T15:07:00Z</time>
      </trkpt>
      <trkpt lat="43.40914" lon="5.48627">
        <ele>561.55</ele>
        <time>2020-12-12T15:07:07Z</time>
      </trkpt>
      <trkpt lat="43.40922" lon="5.48644">
        <ele>561.55</ele>
        <time>2020-12-12T15:07:20Z</time>
      </trkpt>
      <trkpt lat="43.40925" lon="5.48661">
        <ele>561.07</ele>
        <time>2020-12-12T15:07:33Z</time>
      </trkpt>
      <trkpt lat="43.40929" lon="5.4868">
        <ele>559.62</ele>
        <time>2020-12-12T15:07:45Z</time>
      </trkpt>
      <trkpt lat="43.40929" lon="5.48685">
        <ele>558.66</ele>
        <time>2020-12-12T15:07:49Z</time>
      </trkpt>
      <trkpt lat="43.4093" lon="5.48688">
        <ele>558.18</ele>
        <time>2020-12-12T15:07:51Z</time>
      </trkpt>
      <trkpt lat="43.40933" lon="5.48708">
        <ele>557.7</ele>
        <time>2020-12-12T15:08:06Z</time>
      </trkpt>
      <trkpt lat="43.40944" lon="5.48727">
        <ele>558.66</ele>
        <time>2020-12-12T15:08:21Z</time>
      </trkpt>
      <trkpt lat="43.40953" lon="5.48741">
        <ele>557.22</ele>
        <time>2020-12-12T15:08:33Z</time>
      </trkpt>
      <trkpt lat="43.40953" lon="5.48744">
        <ele>556.74</ele>
        <time>2020-12-12T15:08:35Z</time>
      </trkpt>
      <trkpt lat="43.40954" lon="5.48748">
        <ele>556.74</ele>
        <time>2020-12-12T15:08:38Z</time>
      </trkpt>
      <trkpt lat="43.40954" lon="5.48754">
        <ele>555.3</ele>
        <time>2020-12-12T15:08:42Z</time>
      </trkpt>
      <trkpt lat="43.40956" lon="5.48766">
        <ele>554.34</ele>
        <time>2020-12-12T15:08:50Z</time>
      </trkpt>
      <trkpt lat="43.40957" lon="5.48771">
        <ele>553.38</ele>
        <time>2020-12-12T15:08:54Z</time>
      </trkpt>
      <trkpt lat="43.40956" lon="5.48787">
        <ele>552.41</ele>
        <time>2020-12-12T15:09:07Z</time>
      </trkpt>
      <trkpt lat="43.40956" lon="5.48791">
        <ele>552.41</ele>
        <time>2020-12-12T15:09:10Z</time>
      </trkpt>
      <trkpt lat="43.40959" lon="5.4881">
        <ele>551.45</ele>
        <time>2020-12-12T15:09:23Z</time>
      </trkpt>
      <trkpt lat="43.40963" lon="5.48826">
        <ele>550.97</ele>
        <time>2020-12-12T15:09:35Z</time>
      </trkpt>
      <trkpt lat="43.40975" lon="5.48843">
        <ele>550.97</ele>
        <time>2020-12-12T15:09:48Z</time>
      </trkpt>
      <trkpt lat="43.40978" lon="5.48849">
        <ele>550.49</ele>
        <time>2020-12-12T15:09:52Z</time>
      </trkpt>
      <trkpt lat="43.40984" lon="5.48867">
        <ele>547.61</ele>
        <time>2020-12-12T15:10:06Z</time>
      </trkpt>
      <trkpt lat="43.40981" lon="5.48882">
        <ele>541.84</ele>
        <time>2020-12-12T15:10:19Z</time>
      </trkpt>
      <trkpt lat="43.40982" lon="5.489">
        <ele>540.88</ele>
        <time>2020-12-12T15:10:33Z</time>
      </trkpt>
      <trkpt lat="43.40984" lon="5.48908">
        <ele>541.36</ele>
        <time>2020-12-12T15:10:39Z</time>
      </trkpt>
      <trkpt lat="43.40984" lon="5.48925">
        <ele>539.44</ele>
        <time>2020-12-12T15:10:52Z</time>
      </trkpt>
      <trkpt lat="43.4099" lon="5.48941">
        <ele>537.99</ele>
        <time>2020-12-12T15:11:03Z</time>
      </trkpt>
      <trkpt lat="43.41003" lon="5.48957">
        <ele>537.99</ele>
        <time>2020-12-12T15:11:16Z</time>
      </trkpt>
      <trkpt lat="43.41014" lon="5.48974">
        <ele>536.55</ele>
        <time>2020-12-12T15:11:32Z</time>
      </trkpt>
      <trkpt lat="43.41019" lon="5.48985">
        <ele>536.55</ele>
        <time>2020-12-12T15:11:47Z</time>
      </trkpt>
      <trkpt lat="43.41022" lon="5.49002">
        <ele>534.15</ele>
        <time>2020-12-12T15:12:02Z</time>
      </trkpt>
      <trkpt lat="43.41025" lon="5.49014">
        <ele>531.75</ele>
        <time>2020-12-12T15:12:10Z</time>
      </trkpt>
      <trkpt lat="43.41032" lon="5.49014">
        <ele>531.75</ele>
        <time>2020-12-12T15:12:17Z</time>
      </trkpt>
      <trkpt lat="43.41033" lon="5.48997">
        <ele>530.79</ele>
        <time>2020-12-12T15:12:30Z</time>
      </trkpt>
      <trkpt lat="43.4103" lon="5.48982">
        <ele>531.75</ele>
        <time>2020-12-12T15:12:43Z</time>
      </trkpt>
      <trkpt lat="43.41026" lon="5.48964">
        <ele>533.19</ele>
        <time>2020-12-12T15:12:57Z</time>
      </trkpt>
      <trkpt lat="43.41021" lon="5.48948">
        <ele>532.71</ele>
        <time>2020-12-12T15:13:10Z</time>
      </trkpt>
      <trkpt lat="43.4102" lon="5.48947">
        <ele>532.71</ele>
        <time>2020-12-12T15:13:11Z</time>
      </trkpt>
      <trkpt lat="43.41015" lon="5.4893">
        <ele>532.71</ele>
        <time>2020-12-12T15:13:25Z</time>
      </trkpt>
      <trkpt lat="43.41012" lon="5.48914">
        <ele>535.59</ele>
        <time>2020-12-12T15:13:37Z</time>
      </trkpt>
      <trkpt lat="43.4101" lon="5.48898">
        <ele>535.59</ele>
        <time>2020-12-12T15:13:50Z</time>
      </trkpt>
      <trkpt lat="43.41009" lon="5.48887">
        <ele>534.63</ele>
        <time>2020-12-12T15:14:06Z</time>
      </trkpt>
      <trkpt lat="43.41007" lon="5.48867">
        <ele>536.07</ele>
        <time>2020-12-12T15:14:22Z</time>
      </trkpt>
      <trkpt lat="43.41005" lon="5.48856">
        <ele>537.51</ele>
        <time>2020-12-12T15:14:30Z</time>
      </trkpt>
      <trkpt lat="43.41002" lon="5.48846">
        <ele>537.51</ele>
        <time>2020-12-12T15:14:37Z</time>
      </trkpt>
      <trkpt lat="43.40996" lon="5.4883">
        <ele>538.48</ele>
        <time>2020-12-12T15:14:51Z</time>
      </trkpt>
      <trkpt lat="43.40993" lon="5.48817">
        <ele>539.44</ele>
        <time>2020-12-12T15:15:01Z</time>
      </trkpt>
      <trkpt lat="43.40988" lon="5.48802">
        <ele>537.99</ele>
        <time>2020-12-12T15:15:14Z</time>
      </trkpt>
      <trkpt lat="43.40985" lon="5.48794">
        <ele>538.96</ele>
        <time>2020-12-12T15:15:28Z</time>
      </trkpt>
      <trkpt lat="43.40989" lon="5.48794">
        <ele>541.84</ele>
        <time>2020-12-12T15:15:42Z</time>
      </trkpt>
      <trkpt lat="43.40993" lon="5.48777">
        <ele>536.55</ele>
        <time>2020-12-12T15:15:55Z</time>
      </trkpt>
      <trkpt lat="43.40997" lon="5.48763">
        <ele>534.15</ele>
        <time>2020-12-12T15:16:07Z</time>
      </trkpt>
      <trkpt lat="43.40998" lon="5.48751">
        <ele>532.71</ele>
        <time>2020-12-12T15:16:21Z</time>
      </trkpt>
      <trkpt lat="43.40999" lon="5.4874">
        <ele>531.27</ele>
        <time>2020-12-12T15:16:34Z</time>
      </trkpt>
      <trkpt lat="43.40999" lon="5.48731">
        <ele>529.82</ele>
        <time>2020-12-12T15:16:41Z</time>
      </trkpt>
      <trkpt lat="43.40998" lon="5.48724">
        <ele>528.86</ele>
        <time>2020-12-12T15:16:45Z</time>
      </trkpt>
      <trkpt lat="43.40998" lon="5.4872">
        <ele>528.38</ele>
        <time>2020-12-12T15:16:48Z</time>
      </trkpt>
      <trkpt lat="43.40997" lon="5.48713">
        <ele>527.42</ele>
        <time>2020-12-12T15:16:54Z</time>
      </trkpt>
      <trkpt lat="43.40997" lon="5.48705">
        <ele>526.46</ele>
        <time>2020-12-12T15:16:59Z</time>
      </trkpt>
      <trkpt lat="43.40995" lon="5.48694">
        <ele>525.5</ele>
        <time>2020-12-12T15:17:14Z</time>
      </trkpt>
      <trkpt lat="43.40994" lon="5.48674">
        <ele>525.02</ele>
        <time>2020-12-12T15:17:28Z</time>
      </trkpt>
      <trkpt lat="43.40992" lon="5.48657">
        <ele>525.98</ele>
        <time>2020-12-12T15:17:43Z</time>
      </trkpt>
      <trkpt lat="43.40992" lon="5.48656">
        <ele>525.98</ele>
        <time>2020-12-12T15:17:44Z</time>
      </trkpt>
      <trkpt lat="43.40992" lon="5.48637">
        <ele>525.98</ele>
        <time>2020-12-12T15:17:59Z</time>
      </trkpt>
      <trkpt lat="43.40993" lon="5.48621">
        <ele>526.46</ele>
        <time>2020-12-12T15:18:12Z</time>
      </trkpt>
      <trkpt lat="43.40994" lon="5.48608">
        <ele>527.42</ele>
        <time>2020-12-12T15:18:24Z</time>
      </trkpt>
      <trkpt lat="43.40992" lon="5.48593">
        <ele>525.5</ele>
        <time>2020-12-12T15:18:37Z</time>
      </trkpt>
      <trkpt lat="43.40993" lon="5.48588">
        <ele>524.54</ele>
        <time>2020-12-12T15:18:43Z</time>
      </trkpt>
      <trkpt lat="43.40995" lon="5.48577">
        <ele>521.17</ele>
        <time>2020-12-12T15:18:54Z</time>
      </trkpt>
      <trkpt lat="43.40998" lon="5.4856">
        <ele>516.37</ele>
        <time>2020-12-12T15:19:08Z</time>
      </trkpt>
      <trkpt lat="43.40999" lon="5.4855">
        <ele>515.4</ele>
        <time>2020-12-12T15:19:22Z</time>
      </trkpt>
      <trkpt lat="43.41004" lon="5.48534">
        <ele>514.44</ele>
        <time>2020-12-12T15:19:35Z</time>
      </trkpt>
      <trkpt lat="43.41003" lon="5.48513">
        <ele>513.48</ele>
        <time>2020-12-12T15:19:50Z</time>
      </trkpt>
      <trkpt lat="43.40999" lon="5.48501">
        <ele>512.52</ele>
        <time>2020-12-12T15:19:59Z</time>
      </trkpt>
      <trkpt lat="43.40996" lon="5.48482">
        <ele>512.52</ele>
        <time>2020-12-12T15:20:14Z</time>
      </trkpt>
      <trkpt lat="43.40994" lon="5.48465">
        <ele>512.04</ele>
        <time>2020-12-12T15:20:28Z</time>
      </trkpt>
      <trkpt lat="43.40994" lon="5.4846">
        <ele>512.04</ele>
        <time>2020-12-12T15:20:32Z</time>
      </trkpt>
      <trkpt lat="43.40993" lon="5.48444">
        <ele>508.19</ele>
        <time>2020-12-12T15:20:45Z</time>
      </trkpt>
      <trkpt lat="43.4099" lon="5.48424">
        <ele>503.87</ele>
        <time>2020-12-12T15:21:01Z</time>
      </trkpt>
      <trkpt lat="43.40988" lon="5.48407">
        <ele>500.5</ele>
        <time>2020-12-12T15:21:14Z</time>
      </trkpt>
      <trkpt lat="43.4099" lon="5.48391">
        <ele>499.06</ele>
        <time>2020-12-12T15:21:28Z</time>
      </trkpt>
      <trkpt lat="43.40995" lon="5.48384">
        <ele>488.97</ele>
        <time>2020-12-12T15:21:42Z</time>
      </trkpt>
      <trkpt lat="43.41002" lon="5.48379">
        <ele>491.85</ele>
        <time>2020-12-12T15:21:55Z</time>
      </trkpt>
      <trkpt lat="43.41008" lon="5.48373">
        <ele>495.22</ele>
        <time>2020-12-12T15:22:09Z</time>
      </trkpt>
      <trkpt lat="43.41015" lon="5.48365">
        <ele>495.7</ele>
        <time>2020-12-12T15:22:20Z</time>
      </trkpt>
      <trkpt lat="43.41023" lon="5.48362">
        <ele>496.66</ele>
        <time>2020-12-12T15:22:34Z</time>
      </trkpt>
      <trkpt lat="43.4103" lon="5.48352">
        <ele>495.7</ele>
        <time>2020-12-12T15:22:49Z</time>
      </trkpt>
      <trkpt lat="43.41037" lon="5.4834">
        <ele>492.33</ele>
        <time>2020-12-12T15:23:04Z</time>
      </trkpt>
      <trkpt lat="43.41043" lon="5.48326">
        <ele>490.41</ele>
        <time>2020-12-12T15:23:19Z</time>
      </trkpt>
      <trkpt lat="43.41051" lon="5.48314">
        <ele>491.37</ele>
        <time>2020-12-12T15:23:34Z</time>
      </trkpt>
      <trkpt lat="43.41058" lon="5.48294">
        <ele>489.93</ele>
        <time>2020-12-12T15:23:49Z</time>
      </trkpt>
      <trkpt lat="43.41059" lon="5.48291">
        <ele>489.45</ele>
        <time>2020-12-12T15:23:51Z</time>
      </trkpt>
      <trkpt lat="43.41066" lon="5.48271">
        <ele>487.05</ele>
        <time>2020-12-12T15:24:05Z</time>
      </trkpt>
      <trkpt lat="43.41068" lon="5.48256">
        <ele>482.72</ele>
        <time>2020-12-12T15:24:17Z</time>
      </trkpt>
      <trkpt lat="43.41073" lon="5.48237">
        <ele>478.87</ele>
        <time>2020-12-12T15:24:31Z</time>
      </trkpt>
      <trkpt lat="43.41078" lon="5.48216">
        <ele>475.03</ele>
        <time>2020-12-12T15:24:47Z</time>
      </trkpt>
      <trkpt lat="43.41085" lon="5.48206">
        <ele>475.03</ele>
        <time>2020-12-12T15:24:58Z</time>
      </trkpt>
      <trkpt lat="43.41093" lon="5.48193">
        <ele>476.47</ele>
        <time>2020-12-12T15:25:12Z</time>
      </trkpt>
      <trkpt lat="43.41101" lon="5.48177">
        <ele>477.43</ele>
        <time>2020-12-12T15:25:26Z</time>
      </trkpt>
      <trkpt lat="43.41107" lon="5.48158">
        <ele>473.11</ele>
        <time>2020-12-12T15:25:39Z</time>
      </trkpt>
      <trkpt lat="43.41109" lon="5.48141">
        <ele>472.14</ele>
        <time>2020-12-12T15:25:50Z</time>
      </trkpt>
      <trkpt lat="43.41114" lon="5.48122">
        <ele>469.26</ele>
        <time>2020-12-12T15:26:05Z</time>
      </trkpt>
      <trkpt lat="43.41121" lon="5.48101">
        <ele>468.78</ele>
        <time>2020-12-12T15:26:21Z</time>
      </trkpt>
      <trkpt lat="43.41131" lon="5.48094">
        <ele>470.7</ele>
        <time>2020-12-12T15:26:34Z</time>
      </trkpt>
      <trkpt lat="43.41142" lon="5.48083">
        <ele>473.59</ele>
        <time>2020-12-12T15:26:48Z</time>
      </trkpt>
      <trkpt lat="43.41151" lon="5.48075">
        <ele>475.03</ele>
        <time>2020-12-12T15:26:58Z</time>
      </trkpt>
      <trkpt lat="43.41159" lon="5.48063">
        <ele>475.99</ele>
        <time>2020-12-12T15:27:10Z</time>
      </trkpt>
      <trkpt lat="43.41165" lon="5.48055">
        <ele>474.07</ele>
        <time>2020-12-12T15:27:18Z</time>
      </trkpt>
      <trkpt lat="43.41167" lon="5.48043">
        <ele>471.18</ele>
        <time>2020-12-12T15:27:25Z</time>
      </trkpt>
      <trkpt lat="43.41172" lon="5.48028">
        <ele>469.26</ele>
        <time>2020-12-12T15:27:37Z</time>
      </trkpt>
      <trkpt lat="43.41177" lon="5.48009">
        <ele>465.42</ele>
        <time>2020-12-12T15:27:54Z</time>
      </trkpt>
      <trkpt lat="43.41177" lon="5.48004">
        <ele>462.53</ele>
        <time>2020-12-12T15:28:19Z</time>
      </trkpt>
      <trkpt lat="43.41181" lon="5.4799">
        <ele>460.61</ele>
        <time>2020-12-12T15:28:29Z</time>
      </trkpt>
      <trkpt lat="43.41186" lon="5.47975">
        <ele>457.24</ele>
        <time>2020-12-12T15:28:39Z</time>
      </trkpt>
      <trkpt lat="43.41194" lon="5.47958">
        <ele>456.28</ele>
        <time>2020-12-12T15:28:54Z</time>
      </trkpt>
      <trkpt lat="43.41204" lon="5.47947">
        <ele>456.76</ele>
        <time>2020-12-12T15:29:07Z</time>
      </trkpt>
      <trkpt lat="43.41213" lon="5.4794">
        <ele>456.28</ele>
        <time>2020-12-12T15:29:16Z</time>
      </trkpt>
      <trkpt lat="43.41224" lon="5.47928">
        <ele>455.8</ele>
        <time>2020-12-12T15:29:29Z</time>
      </trkpt>
      <trkpt lat="43.41227" lon="5.47927">
        <ele>455.8</ele>
        <time>2020-12-12T15:29:33Z</time>
      </trkpt>
      <trkpt lat="43.41236" lon="5.47919">
        <ele>459.17</ele>
        <time>2020-12-12T15:29:46Z</time>
      </trkpt>
      <trkpt lat="43.41246" lon="5.47907">
        <ele>460.13</ele>
        <time>2020-12-12T15:29:58Z</time>
      </trkpt>
      <trkpt lat="43.4126" lon="5.47895">
        <ele>458.69</ele>
        <time>2020-12-12T15:30:14Z</time>
      </trkpt>
      <trkpt lat="43.41269" lon="5.47881">
        <ele>452.92</ele>
        <time>2020-12-12T15:30:27Z</time>
      </trkpt>
      <trkpt lat="43.41273" lon="5.47875">
        <ele>450.52</ele>
        <time>2020-12-12T15:30:33Z</time>
      </trkpt>
      <trkpt lat="43.41281" lon="5.47867">
        <ele>446.19</ele>
        <time>2020-12-12T15:30:45Z</time>
      </trkpt>
      <trkpt lat="43.41292" lon="5.47857">
        <ele>443.31</ele>
        <time>2020-12-12T15:30:59Z</time>
      </trkpt>
      <trkpt lat="43.41302" lon="5.47852">
        <ele>443.79</ele>
        <time>2020-12-12T15:31:12Z</time>
      </trkpt>
      <trkpt lat="43.41311" lon="5.47841">
        <ele>441.38</ele>
        <time>2020-12-12T15:31:24Z</time>
      </trkpt>
      <trkpt lat="43.4132" lon="5.47827">
        <ele>438.5</ele>
        <time>2020-12-12T15:31:38Z</time>
      </trkpt>
      <trkpt lat="43.41332" lon="5.47808">
        <ele>438.98</ele>
        <time>2020-12-12T15:31:55Z</time>
      </trkpt>
      <trkpt lat="43.41342" lon="5.47796">
        <ele>441.38</ele>
        <time>2020-12-12T15:32:09Z</time>
      </trkpt>
      <trkpt lat="43.41353" lon="5.47784">
        <ele>440.42</ele>
        <time>2020-12-12T15:32:22Z</time>
      </trkpt>
      <trkpt lat="43.41364" lon="5.47776">
        <ele>436.58</ele>
        <time>2020-12-12T15:32:35Z</time>
      </trkpt>
      <trkpt lat="43.41375" lon="5.47763">
        <ele>435.61</ele>
        <time>2020-12-12T15:32:48Z</time>
      </trkpt>
      <trkpt lat="43.41391" lon="5.47748">
        <ele>425.52</ele>
        <time>2020-12-12T15:33:05Z</time>
      </trkpt>
      <trkpt lat="43.41404" lon="5.47745">
        <ele>423.6</ele>
        <time>2020-12-12T15:33:18Z</time>
      </trkpt>
      <trkpt lat="43.41416" lon="5.47743">
        <ele>424.56</ele>
        <time>2020-12-12T15:33:29Z</time>
      </trkpt>
      <trkpt lat="43.41412" lon="5.47722">
        <ele>422.64</ele>
        <time>2020-12-12T15:33:44Z</time>
      </trkpt>
      <trkpt lat="43.41416" lon="5.47702">
        <ele>423.12</ele>
        <time>2020-12-12T15:34:00Z</time>
      </trkpt>
      <trkpt lat="43.41423" lon="5.4769">
        <ele>421.19</ele>
        <time>2020-12-12T15:34:12Z</time>
      </trkpt>
      <trkpt lat="43.41427" lon="5.47686">
        <ele>421.68</ele>
        <time>2020-12-12T15:34:18Z</time>
      </trkpt>
      <trkpt lat="43.41433" lon="5.47671">
        <ele>423.12</ele>
        <time>2020-12-12T15:34:31Z</time>
      </trkpt>
      <trkpt lat="43.41435" lon="5.47664">
        <ele>423.12</ele>
        <time>2020-12-12T15:34:36Z</time>
      </trkpt>
      <trkpt lat="43.41436" lon="5.47658">
        <ele>423.12</ele>
        <time>2020-12-12T15:34:40Z</time>
      </trkpt>
      <trkpt lat="43.41437" lon="5.47635">
        <ele>423.12</ele>
        <time>2020-12-12T15:34:55Z</time>
      </trkpt>
      <trkpt lat="43.41438" lon="5.47613">
        <ele>420.71</ele>
        <time>2020-12-12T15:35:11Z</time>
      </trkpt>
      <trkpt lat="43.41438" lon="5.47592">
        <ele>421.19</ele>
        <time>2020-12-12T15:35:25Z</time>
      </trkpt>
      <trkpt lat="43.4144" lon="5.4758">
        <ele>422.64</ele>
        <time>2020-12-12T15:35:39Z</time>
      </trkpt>
      <trkpt lat="43.41438" lon="5.47582">
        <ele>422.64</ele>
        <time>2020-12-12T15:35:57Z</time>
      </trkpt>
      <trkpt lat="43.41439" lon="5.47579">
        <ele>423.12</ele>
        <time>2020-12-12T15:36:04Z</time>
      </trkpt>
      <trkpt lat="43.4144" lon="5.47576">
        <ele>423.12</ele>
        <time>2020-12-12T15:36:06Z</time>
      </trkpt>
      <trkpt lat="43.41457" lon="5.47568">
        <ele>425.04</ele>
        <time>2020-12-12T15:36:22Z</time>
      </trkpt>
      <trkpt lat="43.41471" lon="5.47562">
        <ele>424.08</ele>
        <time>2020-12-12T15:36:36Z</time>
      </trkpt>
      <trkpt lat="43.41473" lon="5.47561">
        <ele>424.08</ele>
        <time>2020-12-12T15:36:38Z</time>
      </trkpt>
      <trkpt lat="43.41476" lon="5.4756">
        <ele>424.08</ele>
        <time>2020-12-12T15:36:41Z</time>
      </trkpt>
      <trkpt lat="43.41491" lon="5.4755">
        <ele>426</ele>
        <time>2020-12-12T15:36:57Z</time>
      </trkpt>
      <trkpt lat="43.41494" lon="5.47547">
        <ele>426.48</ele>
        <time>2020-12-12T15:37:00Z</time>
      </trkpt>
      <trkpt lat="43.41509" lon="5.4754">
        <ele>426.96</ele>
        <time>2020-12-12T15:37:15Z</time>
      </trkpt>
      <trkpt lat="43.41521" lon="5.47532">
        <ele>426</ele>
        <time>2020-12-12T15:37:29Z</time>
      </trkpt>
      <trkpt lat="43.4153" lon="5.47525">
        <ele>425.04</ele>
        <time>2020-12-12T15:37:38Z</time>
      </trkpt>
      <trkpt lat="43.4154" lon="5.47514">
        <ele>425.52</ele>
        <time>2020-12-12T15:37:49Z</time>
      </trkpt>
      <trkpt lat="43.41546" lon="5.47506">
        <ele>426</ele>
        <time>2020-12-12T15:37:56Z</time>
      </trkpt>
      <trkpt lat="43.41554" lon="5.47491">
        <ele>425.52</ele>
        <time>2020-12-12T15:38:10Z</time>
      </trkpt>
      <trkpt lat="43.41561" lon="5.47477">
        <ele>423.12</ele>
        <time>2020-12-12T15:38:22Z</time>
      </trkpt>
      <trkpt lat="43.41568" lon="5.47464">
        <ele>421.68</ele>
        <time>2020-12-12T15:38:36Z</time>
      </trkpt>
      <trkpt lat="43.41569" lon="5.47451">
        <ele>420.71</ele>
        <time>2020-12-12T15:38:50Z</time>
      </trkpt>
      <trkpt lat="43.41571" lon="5.47443">
        <ele>420.71</ele>
        <time>2020-12-12T15:39:01Z</time>
      </trkpt>
      <trkpt lat="43.41579" lon="5.47428">
        <ele>422.16</ele>
        <time>2020-12-12T15:39:14Z</time>
      </trkpt>
      <trkpt lat="43.41583" lon="5.47424">
        <ele>422.16</ele>
        <time>2020-12-12T15:39:26Z</time>
      </trkpt>
      <trkpt lat="43.41584" lon="5.47423">
        <ele>422.64</ele>
        <time>2020-12-12T15:39:28Z</time>
      </trkpt>
      <trkpt lat="43.41593" lon="5.4741">
        <ele>425.04</ele>
        <time>2020-12-12T15:39:41Z</time>
      </trkpt>
      <trkpt lat="43.41596" lon="5.47408">
        <ele>424.56</ele>
        <time>2020-12-12T15:39:45Z</time>
      </trkpt>
      <trkpt lat="43.41601" lon="5.47397">
        <ele>424.08</ele>
        <time>2020-12-12T15:39:53Z</time>
      </trkpt>
      <trkpt lat="43.41609" lon="5.47388">
        <ele>424.56</ele>
        <time>2020-12-12T15:40:06Z</time>
      </trkpt>
      <trkpt lat="43.41613" lon="5.47385">
        <ele>424.56</ele>
        <time>2020-12-12T15:40:11Z</time>
      </trkpt>
      <trkpt lat="43.41625" lon="5.47378">
        <ele>423.6</ele>
        <time>2020-12-12T15:40:26Z</time>
      </trkpt>
      <trkpt lat="43.41625" lon="5.47378">
        <ele>423.6</ele>
        <time>2020-12-12T15:40:27Z</time>
      </trkpt>
      <trkpt lat="43.41637" lon="5.47373">
        <ele>424.56</ele>
        <time>2020-12-12T15:40:38Z</time>
      </trkpt>
      <trkpt lat="43.41648" lon="5.47364">
        <ele>425.04</ele>
        <time>2020-12-12T15:40:50Z</time>
      </trkpt>
      <trkpt lat="43.4166" lon="5.47352">
        <ele>426</ele>
        <time>2020-12-12T15:41:03Z</time>
      </trkpt>
      <trkpt lat="43.41672" lon="5.47342">
        <ele>426</ele>
        <time>2020-12-12T15:41:17Z</time>
      </trkpt>
      <trkpt lat="43.41676" lon="5.47337">
        <ele>426.48</ele>
        <time>2020-12-12T15:41:24Z</time>
      </trkpt>
      <trkpt lat="43.41687" lon="5.47329">
        <ele>426.96</ele>
        <time>2020-12-12T15:41:36Z</time>
      </trkpt>
      <trkpt lat="43.4169" lon="5.47328">
        <ele>426.96</ele>
        <time>2020-12-12T15:41:39Z</time>
      </trkpt>
      <trkpt lat="43.417" lon="5.4732">
        <ele>426.96</ele>
        <time>2020-12-12T15:41:53Z</time>
      </trkpt>
      <trkpt lat="43.41707" lon="5.47315">
        <ele>427.44</ele>
        <time>2020-12-12T15:42:00Z</time>
      </trkpt>
      <trkpt lat="43.41712" lon="5.47311">
        <ele>426.96</ele>
        <time>2020-12-12T15:42:05Z</time>
      </trkpt>
      <trkpt lat="43.41717" lon="5.47301">
        <ele>426.48</ele>
        <time>2020-12-12T15:42:17Z</time>
      </trkpt>
      <trkpt lat="43.4172" lon="5.47296">
        <ele>424.08</ele>
        <time>2020-12-12T15:42:40Z</time>
      </trkpt>
      <trkpt lat="43.4173" lon="5.47288">
        <ele>420.23</ele>
        <time>2020-12-12T15:42:55Z</time>
      </trkpt>
      <trkpt lat="43.41739" lon="5.4727">
        <ele>421.68</ele>
        <time>2020-12-12T15:43:10Z</time>
      </trkpt>
      <trkpt lat="43.41743" lon="5.47262">
        <ele>423.12</ele>
        <time>2020-12-12T15:43:17Z</time>
      </trkpt>
      <trkpt lat="43.41749" lon="5.47249">
        <ele>424.08</ele>
        <time>2020-12-12T15:43:28Z</time>
      </trkpt>
      <trkpt lat="43.41759" lon="5.47231">
        <ele>424.56</ele>
        <time>2020-12-12T15:43:44Z</time>
      </trkpt>
      <trkpt lat="43.41768" lon="5.47216">
        <ele>422.16</ele>
        <time>2020-12-12T15:43:57Z</time>
      </trkpt>
      <trkpt lat="43.4177" lon="5.47214">
        <ele>421.19</ele>
        <time>2020-12-12T15:44:00Z</time>
      </trkpt>
      <trkpt lat="43.41771" lon="5.47211">
        <ele>420.71</ele>
        <time>2020-12-12T15:44:02Z</time>
      </trkpt>
      <trkpt lat="43.41773" lon="5.47208">
        <ele>420.23</ele>
        <time>2020-12-12T15:44:05Z</time>
      </trkpt>
      <trkpt lat="43.41774" lon="5.47206">
        <ele>420.23</ele>
        <time>2020-12-12T15:44:07Z</time>
      </trkpt>
      <trkpt lat="43.41783" lon="5.47189">
        <ele>420.23</ele>
        <time>2020-12-12T15:44:21Z</time>
      </trkpt>
      <trkpt lat="43.41793" lon="5.47175">
        <ele>420.23</ele>
        <time>2020-12-12T15:44:36Z</time>
      </trkpt>
      <trkpt lat="43.41802" lon="5.47161">
        <ele>419.27</ele>
        <time>2020-12-12T15:44:51Z</time>
      </trkpt>
      <trkpt lat="43.41808" lon="5.47154">
        <ele>416.39</ele>
        <time>2020-12-12T15:45:05Z</time>
      </trkpt>
      <trkpt lat="43.41814" lon="5.47155">
        <ele>414.95</ele>
        <time>2020-12-12T15:45:17Z</time>
      </trkpt>
      <trkpt lat="43.41817" lon="5.47151">
        <ele>413.5</ele>
        <time>2020-12-12T15:45:36Z</time>
      </trkpt>
      <trkpt lat="43.41818" lon="5.47152">
        <ele>411.58</ele>
        <time>2020-12-12T15:45:59Z</time>
      </trkpt>
      <trkpt lat="43.41816" lon="5.47154">
        <ele>409.66</ele>
        <time>2020-12-12T15:46:23Z</time>
      </trkpt>
      <trkpt lat="43.41817" lon="5.47153">
        <ele>413.5</ele>
        <time>2020-12-12T15:46:44Z</time>
      </trkpt>
      <trkpt lat="43.41816" lon="5.47155">
        <ele>416.87</ele>
        <time>2020-12-12T15:47:22Z</time>
      </trkpt>
      <trkpt lat="43.41813" lon="5.47153">
        <ele>417.35</ele>
        <time>2020-12-12T15:47:53Z</time>
      </trkpt>
      <trkpt lat="43.41818" lon="5.47154">
        <ele>415.91</ele>
        <time>2020-12-12T15:48:15Z</time>
      </trkpt>
      <trkpt lat="43.41819" lon="5.47153">
        <ele>414.95</ele>
        <time>2020-12-12T15:48:19Z</time>
      </trkpt>
      <trkpt lat="43.41817" lon="5.47134">
        <ele>413.02</ele>
        <time>2020-12-12T15:48:34Z</time>
      </trkpt>
      <trkpt lat="43.41816" lon="5.47134">
        <ele>413.5</ele>
        <time>2020-12-12T15:48:51Z</time>
      </trkpt>
      <trkpt lat="43.41817" lon="5.47137">
        <ele>413.98</ele>
        <time>2020-12-12T15:49:17Z</time>
      </trkpt>
      <trkpt lat="43.41818" lon="5.47132">
        <ele>417.83</ele>
        <time>2020-12-12T15:49:42Z</time>
      </trkpt>
      <trkpt lat="43.41818" lon="5.4713">
        <ele>417.35</ele>
        <time>2020-12-12T15:49:43Z</time>
      </trkpt>
      <trkpt lat="43.41828" lon="5.47116">
        <ele>416.87</ele>
        <time>2020-12-12T15:49:59Z</time>
      </trkpt>
      <trkpt lat="43.41831" lon="5.47113">
        <ele>416.39</ele>
        <time>2020-12-12T15:50:03Z</time>
      </trkpt>
      <trkpt lat="43.41833" lon="5.47109">
        <ele>415.91</ele>
        <time>2020-12-12T15:50:06Z</time>
      </trkpt>
      <trkpt lat="43.41834" lon="5.47104">
        <ele>414.95</ele>
        <time>2020-12-12T15:50:18Z</time>
      </trkpt>
      <trkpt lat="43.41834" lon="5.47104">
        <ele>414.47</ele>
        <time>2020-12-12T15:50:41Z</time>
      </trkpt>
      <trkpt lat="43.41831" lon="5.47106">
        <ele>413.5</ele>
        <time>2020-12-12T15:51:09Z</time>
      </trkpt>
      <trkpt lat="43.41834" lon="5.47101">
        <ele>412.54</ele>
        <time>2020-12-12T15:51:31Z</time>
      </trkpt>
      <trkpt lat="43.41835" lon="5.47106">
        <ele>411.1</ele>
        <time>2020-12-12T15:51:48Z</time>
      </trkpt>
      <trkpt lat="43.41836" lon="5.47102">
        <ele>409.66</ele>
        <time>2020-12-12T15:52:06Z</time>
      </trkpt>
      <trkpt lat="43.41837" lon="5.471">
        <ele>409.66</ele>
        <time>2020-12-12T15:52:08Z</time>
      </trkpt>
      <trkpt lat="43.41846" lon="5.4708">
        <ele>408.7</ele>
        <time>2020-12-12T15:52:23Z</time>
      </trkpt>
      <trkpt lat="43.41856" lon="5.47058">
        <ele>407.26</ele>
        <time>2020-12-12T15:52:40Z</time>
      </trkpt>
      <trkpt lat="43.4186" lon="5.47048">
        <ele>407.26</ele>
        <time>2020-12-12T15:52:46Z</time>
      </trkpt>
      <trkpt lat="43.41865" lon="5.47036">
        <ele>406.77</ele>
        <time>2020-12-12T15:52:55Z</time>
      </trkpt>
      <trkpt lat="43.41871" lon="5.47028">
        <ele>404.85</ele>
        <time>2020-12-12T15:53:09Z</time>
      </trkpt>
      <trkpt lat="43.41879" lon="5.47014">
        <ele>403.41</ele>
        <time>2020-12-12T15:53:22Z</time>
      </trkpt>
      <trkpt lat="43.41889" lon="5.46997">
        <ele>402.45</ele>
        <time>2020-12-12T15:53:36Z</time>
      </trkpt>
      <trkpt lat="43.41892" lon="5.46996">
        <ele>401.49</ele>
        <time>2020-12-12T15:53:47Z</time>
      </trkpt>
      <trkpt lat="43.41895" lon="5.46986">
        <ele>400.53</ele>
        <time>2020-12-12T15:53:56Z</time>
      </trkpt>
      <trkpt lat="43.41898" lon="5.46979">
        <ele>399.57</ele>
        <time>2020-12-12T15:54:10Z</time>
      </trkpt>
      <trkpt lat="43.41898" lon="5.46976">
        <ele>400.05</ele>
        <time>2020-12-12T15:54:22Z</time>
      </trkpt>
      <trkpt lat="43.41904" lon="5.46972">
        <ele>399.08</ele>
        <time>2020-12-12T15:54:29Z</time>
      </trkpt>
      <trkpt lat="43.41908" lon="5.46966">
        <ele>398.12</ele>
        <time>2020-12-12T15:54:36Z</time>
      </trkpt>
      <trkpt lat="43.41911" lon="5.46963">
        <ele>397.16</ele>
        <time>2020-12-12T15:54:39Z</time>
      </trkpt>
      <trkpt lat="43.41912" lon="5.46961">
        <ele>396.68</ele>
        <time>2020-12-12T15:54:41Z</time>
      </trkpt>
      <trkpt lat="43.41921" lon="5.46946">
        <ele>390.91</ele>
        <time>2020-12-12T15:54:56Z</time>
      </trkpt>
      <trkpt lat="43.41927" lon="5.46935">
        <ele>388.51</ele>
        <time>2020-12-12T15:55:07Z</time>
      </trkpt>
      <trkpt lat="43.41936" lon="5.46918">
        <ele>386.11</ele>
        <time>2020-12-12T15:55:22Z</time>
      </trkpt>
      <trkpt lat="43.41943" lon="5.46904">
        <ele>386.11</ele>
        <time>2020-12-12T15:55:35Z</time>
      </trkpt>
      <trkpt lat="43.41949" lon="5.46889">
        <ele>388.03</ele>
        <time>2020-12-12T15:55:48Z</time>
      </trkpt>
      <trkpt lat="43.41955" lon="5.46875">
        <ele>388.99</ele>
        <time>2020-12-12T15:56:00Z</time>
      </trkpt>
      <trkpt lat="43.41962" lon="5.46861">
        <ele>388.99</ele>
        <time>2020-12-12T15:56:12Z</time>
      </trkpt>
      <trkpt lat="43.41967" lon="5.4685">
        <ele>388.99</ele>
        <time>2020-12-12T15:56:21Z</time>
      </trkpt>
      <trkpt lat="43.41971" lon="5.46844">
        <ele>389.47</ele>
        <time>2020-12-12T15:56:27Z</time>
      </trkpt>
      <trkpt lat="43.4198" lon="5.46826">
        <ele>388.99</ele>
        <time>2020-12-12T15:56:43Z</time>
      </trkpt>
      <trkpt lat="43.41982" lon="5.46821">
        <ele>388.51</ele>
        <time>2020-12-12T15:56:47Z</time>
      </trkpt>
      <trkpt lat="43.41989" lon="5.46802">
        <ele>385.15</ele>
        <time>2020-12-12T15:57:03Z</time>
      </trkpt>
      <trkpt lat="43.41994" lon="5.46793">
        <ele>384.18</ele>
        <time>2020-12-12T15:57:11Z</time>
      </trkpt>
      <trkpt lat="43.41996" lon="5.4679">
        <ele>383.7</ele>
        <time>2020-12-12T15:57:14Z</time>
      </trkpt>
      <trkpt lat="43.42001" lon="5.4678">
        <ele>382.26</ele>
        <time>2020-12-12T15:57:23Z</time>
      </trkpt>
      <trkpt lat="43.42007" lon="5.46759">
        <ele>378.9</ele>
        <time>2020-12-12T15:57:38Z</time>
      </trkpt>
      <trkpt lat="43.42014" lon="5.46744">
        <ele>378.9</ele>
        <time>2020-12-12T15:57:52Z</time>
      </trkpt>
      <trkpt lat="43.42018" lon="5.46735">
        <ele>378.42</ele>
        <time>2020-12-12T15:58:00Z</time>
      </trkpt>
      <trkpt lat="43.42027" lon="5.46718">
        <ele>376.97</ele>
        <time>2020-12-12T15:58:16Z</time>
      </trkpt>
      <trkpt lat="43.42036" lon="5.46713">
        <ele>375.05</ele>
        <time>2020-12-12T15:58:28Z</time>
      </trkpt>
      <trkpt lat="43.42039" lon="5.46715">
        <ele>375.05</ele>
        <time>2020-12-12T15:58:34Z</time>
      </trkpt>
      <trkpt lat="43.42044" lon="5.46724">
        <ele>375.05</ele>
        <time>2020-12-12T15:58:47Z</time>
      </trkpt>
      <trkpt lat="43.42046" lon="5.46732">
        <ele>371.21</ele>
        <time>2020-12-12T15:59:01Z</time>
      </trkpt>
      <trkpt lat="43.42049" lon="5.46735">
        <ele>368.32</ele>
        <time>2020-12-12T15:59:13Z</time>
      </trkpt>
      <trkpt lat="43.42048" lon="5.46741">
        <ele>367.36</ele>
        <time>2020-12-12T15:59:20Z</time>
      </trkpt>
      <trkpt lat="43.42048" lon="5.46759">
        <ele>364</ele>
        <time>2020-12-12T15:59:35Z</time>
      </trkpt>
      <trkpt lat="43.42048" lon="5.46772">
        <ele>361.11</ele>
        <time>2020-12-12T15:59:47Z</time>
      </trkpt>
      <trkpt lat="43.42048" lon="5.46782">
        <ele>357.75</ele>
        <time>2020-12-12T15:59:57Z</time>
      </trkpt>
      <trkpt lat="43.42047" lon="5.46792">
        <ele>356.31</ele>
        <time>2020-12-12T16:00:05Z</time>
      </trkpt>
      <trkpt lat="43.42046" lon="5.46795">
        <ele>355.34</ele>
        <time>2020-12-12T16:00:07Z</time>
      </trkpt>
      <trkpt lat="43.42048" lon="5.468">
        <ele>353.42</ele>
        <time>2020-12-12T16:00:11Z</time>
      </trkpt>
      <trkpt lat="43.42056" lon="5.46804">
        <ele>349.58</ele>
        <time>2020-12-12T16:00:22Z</time>
      </trkpt>
      <trkpt lat="43.42058" lon="5.468">
        <ele>349.58</ele>
        <time>2020-12-12T16:00:27Z</time>
      </trkpt>
      <trkpt lat="43.42061" lon="5.46788">
        <ele>350.06</ele>
        <time>2020-12-12T16:00:39Z</time>
      </trkpt>
      <trkpt lat="43.42067" lon="5.46789">
        <ele>351.02</ele>
        <time>2020-12-12T16:01:06Z</time>
      </trkpt>
      <trkpt lat="43.42059" lon="5.46791">
        <ele>351.02</ele>
        <time>2020-12-12T16:01:28Z</time>
      </trkpt>
      <trkpt lat="43.42058" lon="5.46793">
        <ele>350.06</ele>
        <time>2020-12-12T16:01:44Z</time>
      </trkpt>
      <trkpt lat="43.42058" lon="5.46792">
        <ele>352.46</ele>
        <time>2020-12-12T16:02:19Z</time>
      </trkpt>
      <trkpt lat="43.42059" lon="5.46783">
        <ele>351.5</ele>
        <time>2020-12-12T16:02:29Z</time>
      </trkpt>
      <trkpt lat="43.42066" lon="5.46767">
        <ele>354.38</ele>
        <time>2020-12-12T16:02:44Z</time>
      </trkpt>
      <trkpt lat="43.42074" lon="5.46744">
        <ele>355.83</ele>
        <time>2020-12-12T16:03:00Z</time>
      </trkpt>
      <trkpt lat="43.42079" lon="5.46726">
        <ele>357.27</ele>
        <time>2020-12-12T16:03:14Z</time>
      </trkpt>
      <trkpt lat="43.4208" lon="5.46722">
        <ele>357.75</ele>
        <time>2020-12-12T16:03:17Z</time>
      </trkpt>
      <trkpt lat="43.4208" lon="5.46719">
        <ele>357.75</ele>
        <time>2020-12-12T16:03:19Z</time>
      </trkpt>
      <trkpt lat="43.42085" lon="5.46699">
        <ele>359.19</ele>
        <time>2020-12-12T16:03:34Z</time>
      </trkpt>
      <trkpt lat="43.42085" lon="5.46695">
        <ele>359.67</ele>
        <time>2020-12-12T16:03:37Z</time>
      </trkpt>
      <trkpt lat="43.42087" lon="5.46689">
        <ele>359.19</ele>
        <time>2020-12-12T16:03:40Z</time>
      </trkpt>
      <trkpt lat="43.42087" lon="5.46678">
        <ele>358.71</ele>
        <time>2020-12-12T16:03:47Z</time>
      </trkpt>
      <trkpt lat="43.42088" lon="5.46661">
        <ele>357.75</ele>
        <time>2020-12-12T16:03:59Z</time>
      </trkpt>
      <trkpt lat="43.42089" lon="5.46657">
        <ele>358.23</ele>
        <time>2020-12-12T16:04:02Z</time>
      </trkpt>
      <trkpt lat="43.42091" lon="5.4664">
        <ele>359.67</ele>
        <time>2020-12-12T16:04:15Z</time>
      </trkpt>
      <trkpt lat="43.42093" lon="5.46625">
        <ele>363.04</ele>
        <time>2020-12-12T16:04:29Z</time>
      </trkpt>
      <trkpt lat="43.42097" lon="5.46614">
        <ele>364.48</ele>
        <time>2020-12-12T16:04:45Z</time>
      </trkpt>
      <trkpt lat="43.421" lon="5.466">
        <ele>365.92</ele>
        <time>2020-12-12T16:04:59Z</time>
      </trkpt>
      <trkpt lat="43.42103" lon="5.46583">
        <ele>363.52</ele>
        <time>2020-12-12T16:05:10Z</time>
      </trkpt>
      <trkpt lat="43.42103" lon="5.46562">
        <ele>357.75</ele>
        <time>2020-12-12T16:05:24Z</time>
      </trkpt>
      <trkpt lat="43.42104" lon="5.46548">
        <ele>354.86</ele>
        <time>2020-12-12T16:05:34Z</time>
      </trkpt>
      <trkpt lat="43.42105" lon="5.46542">
        <ele>353.42</ele>
        <time>2020-12-12T16:05:39Z</time>
      </trkpt>
      <trkpt lat="43.42105" lon="5.46536">
        <ele>352.46</ele>
        <time>2020-12-12T16:05:44Z</time>
      </trkpt>
      <trkpt lat="43.42109" lon="5.46516">
        <ele>350.06</ele>
        <time>2020-12-12T16:05:58Z</time>
      </trkpt>
      <trkpt lat="43.42113" lon="5.46495">
        <ele>347.65</ele>
        <time>2020-12-12T16:06:14Z</time>
      </trkpt>
      <trkpt lat="43.42119" lon="5.46479">
        <ele>345.73</ele>
        <time>2020-12-12T16:06:30Z</time>
      </trkpt>
      <trkpt lat="43.42123" lon="5.46473">
        <ele>345.25</ele>
        <time>2020-12-12T16:06:36Z</time>
      </trkpt>
      <trkpt lat="43.42133" lon="5.46458">
        <ele>347.17</ele>
        <time>2020-12-12T16:06:52Z</time>
      </trkpt>
      <trkpt lat="43.42137" lon="5.46446">
        <ele>346.21</ele>
        <time>2020-12-12T16:07:01Z</time>
      </trkpt>
      <trkpt lat="43.42136" lon="5.46438">
        <ele>346.21</ele>
        <time>2020-12-12T16:07:06Z</time>
      </trkpt>
      <trkpt lat="43.42136" lon="5.46435">
        <ele>345.73</ele>
        <time>2020-12-12T16:07:08Z</time>
      </trkpt>
      <trkpt lat="43.42137" lon="5.46431">
        <ele>344.77</ele>
        <time>2020-12-12T16:07:10Z</time>
      </trkpt>
      <trkpt lat="43.42137" lon="5.46412">
        <ele>342.85</ele>
        <time>2020-12-12T16:07:23Z</time>
      </trkpt>
      <trkpt lat="43.42136" lon="5.46393">
        <ele>342.37</ele>
        <time>2020-12-12T16:07:37Z</time>
      </trkpt>
      <trkpt lat="43.42136" lon="5.46387">
        <ele>341.89</ele>
        <time>2020-12-12T16:07:41Z</time>
      </trkpt>
      <trkpt lat="43.42137" lon="5.4637">
        <ele>339.96</ele>
        <time>2020-12-12T16:07:52Z</time>
      </trkpt>
      <trkpt lat="43.42129" lon="5.46353">
        <ele>337.08</ele>
        <time>2020-12-12T16:08:05Z</time>
      </trkpt>
      <trkpt lat="43.42116" lon="5.46341">
        <ele>335.64</ele>
        <time>2020-12-12T16:08:21Z</time>
      </trkpt>
      <trkpt lat="43.42108" lon="5.46332">
        <ele>333.71</ele>
        <time>2020-12-12T16:08:33Z</time>
      </trkpt>
      <trkpt lat="43.42096" lon="5.4632">
        <ele>334.2</ele>
        <time>2020-12-12T16:08:47Z</time>
      </trkpt>
      <trkpt lat="43.42091" lon="5.46311">
        <ele>333.71</ele>
        <time>2020-12-12T16:08:56Z</time>
      </trkpt>
      <trkpt lat="43.42091" lon="5.46302">
        <ele>334.2</ele>
        <time>2020-12-12T16:09:10Z</time>
      </trkpt>
      <trkpt lat="43.42099" lon="5.46295">
        <ele>335.16</ele>
        <time>2020-12-12T16:09:25Z</time>
      </trkpt>
      <trkpt lat="43.42108" lon="5.46292">
        <ele>335.64</ele>
        <time>2020-12-12T16:09:39Z</time>
      </trkpt>
      <trkpt lat="43.42118" lon="5.46287">
        <ele>334.68</ele>
        <time>2020-12-12T16:09:54Z</time>
      </trkpt>
      <trkpt lat="43.42129" lon="5.46281">
        <ele>337.56</ele>
        <time>2020-12-12T16:10:11Z</time>
      </trkpt>
      <trkpt lat="43.42137" lon="5.46272">
        <ele>338.52</ele>
        <time>2020-12-12T16:10:26Z</time>
      </trkpt>
      <trkpt lat="43.42141" lon="5.4626">
        <ele>341.89</ele>
        <time>2020-12-12T16:10:39Z</time>
      </trkpt>
      <trkpt lat="43.42142" lon="5.46246">
        <ele>342.37</ele>
        <time>2020-12-12T16:10:53Z</time>
      </trkpt>
      <trkpt lat="43.42144" lon="5.46233">
        <ele>345.25</ele>
        <time>2020-12-12T16:11:08Z</time>
      </trkpt>
      <trkpt lat="43.42145" lon="5.46228">
        <ele>345.73</ele>
        <time>2020-12-12T16:11:13Z</time>
      </trkpt>
      <trkpt lat="43.42151" lon="5.46225">
        <ele>346.21</ele>
        <time>2020-12-12T16:11:20Z</time>
      </trkpt>
      <trkpt lat="43.4216" lon="5.4622">
        <ele>347.17</ele>
        <time>2020-12-12T16:11:34Z</time>
      </trkpt>
      <trkpt lat="43.42169" lon="5.46216">
        <ele>348.13</ele>
        <time>2020-12-12T16:11:48Z</time>
      </trkpt>
      <trkpt lat="43.42179" lon="5.46199">
        <ele>348.62</ele>
        <time>2020-12-12T16:12:07Z</time>
      </trkpt>
      <trkpt lat="43.42179" lon="5.46186">
        <ele>349.58</ele>
        <time>2020-12-12T16:12:22Z</time>
      </trkpt>
      <trkpt lat="43.42182" lon="5.46171">
        <ele>350.54</ele>
        <time>2020-12-12T16:12:37Z</time>
      </trkpt>
      <trkpt lat="43.42183" lon="5.46166">
        <ele>350.54</ele>
        <time>2020-12-12T16:12:43Z</time>
      </trkpt>
      <trkpt lat="43.42189" lon="5.46153">
        <ele>352.94</ele>
        <time>2020-12-12T16:12:58Z</time>
      </trkpt>
      <trkpt lat="43.42193" lon="5.46142">
        <ele>353.42</ele>
        <time>2020-12-12T16:13:13Z</time>
      </trkpt>
      <trkpt lat="43.42199" lon="5.46132">
        <ele>354.38</ele>
        <time>2020-12-12T16:13:27Z</time>
      </trkpt>
      <trkpt lat="43.42201" lon="5.46125">
        <ele>355.83</ele>
        <time>2020-12-12T16:13:44Z</time>
      </trkpt>
      <trkpt lat="43.42199" lon="5.46123">
        <ele>356.79</ele>
        <time>2020-12-12T16:14:13Z</time>
      </trkpt>
      <trkpt lat="43.42201" lon="5.4612">
        <ele>354.86</ele>
        <time>2020-12-12T16:14:36Z</time>
      </trkpt>
      <trkpt lat="43.42208" lon="5.46104">
        <ele>357.27</ele>
        <time>2020-12-12T16:14:50Z</time>
      </trkpt>
      <trkpt lat="43.42212" lon="5.46088">
        <ele>359.67</ele>
        <time>2020-12-12T16:15:04Z</time>
      </trkpt>
      <trkpt lat="43.42216" lon="5.46077">
        <ele>361.11</ele>
        <time>2020-12-12T16:15:16Z</time>
      </trkpt>
      <trkpt lat="43.42217" lon="5.46069">
        <ele>360.63</ele>
        <time>2020-12-12T16:15:31Z</time>
      </trkpt>
      <trkpt lat="43.42219" lon="5.46056">
        <ele>361.11</ele>
        <time>2020-12-12T16:15:44Z</time>
      </trkpt>
      <trkpt lat="43.42221" lon="5.46039">
        <ele>362.07</ele>
        <time>2020-12-12T16:15:57Z</time>
      </trkpt>
      <trkpt lat="43.42224" lon="5.46019">
        <ele>363.52</ele>
        <time>2020-12-12T16:16:12Z</time>
      </trkpt>
      <trkpt lat="43.42227" lon="5.46003">
        <ele>364.48</ele>
        <time>2020-12-12T16:16:25Z</time>
      </trkpt>
      <trkpt lat="43.4223" lon="5.45984">
        <ele>365.92</ele>
        <time>2020-12-12T16:16:39Z</time>
      </trkpt>
      <trkpt lat="43.42237" lon="5.45971">
        <ele>364.48</ele>
        <time>2020-12-12T16:16:53Z</time>
      </trkpt>
      <trkpt lat="43.42244" lon="5.45961">
        <ele>363.52</ele>
        <time>2020-12-12T16:17:06Z</time>
      </trkpt>
      <trkpt lat="43.42248" lon="5.4595">
        <ele>362.55</ele>
        <time>2020-12-12T16:17:18Z</time>
      </trkpt>
      <trkpt lat="43.42254" lon="5.45938">
        <ele>360.63</ele>
        <time>2020-12-12T16:17:31Z</time>
      </trkpt>
      <trkpt lat="43.42254" lon="5.45931">
        <ele>359.67</ele>
        <time>2020-12-12T16:17:41Z</time>
      </trkpt>
      <trkpt lat="43.42258" lon="5.45916">
        <ele>358.23</ele>
        <time>2020-12-12T16:17:54Z</time>
      </trkpt>
      <trkpt lat="43.42258" lon="5.45914">
        <ele>358.23</ele>
        <time>2020-12-12T16:17:55Z</time>
      </trkpt>
      <trkpt lat="43.42262" lon="5.459">
        <ele>356.31</ele>
        <time>2020-12-12T16:18:07Z</time>
      </trkpt>
      <trkpt lat="43.42267" lon="5.45884">
        <ele>355.34</ele>
        <time>2020-12-12T16:18:22Z</time>
      </trkpt>
      <trkpt lat="43.4227" lon="5.45871">
        <ele>354.86</ele>
        <time>2020-12-12T16:18:35Z</time>
      </trkpt>
      <trkpt lat="43.42276" lon="5.45856">
        <ele>353.42</ele>
        <time>2020-12-12T16:18:50Z</time>
      </trkpt>
      <trkpt lat="43.4228" lon="5.45842">
        <ele>353.42</ele>
        <time>2020-12-12T16:19:04Z</time>
      </trkpt>
      <trkpt lat="43.42284" lon="5.45833">
        <ele>353.42</ele>
        <time>2020-12-12T16:19:14Z</time>
      </trkpt>
      <trkpt lat="43.42291" lon="5.45819">
        <ele>352.46</ele>
        <time>2020-12-12T16:19:28Z</time>
      </trkpt>
      <trkpt lat="43.42295" lon="5.45806">
        <ele>350.54</ele>
        <time>2020-12-12T16:19:41Z</time>
      </trkpt>
      <trkpt lat="43.42299" lon="5.45791">
        <ele>345.73</ele>
        <time>2020-12-12T16:19:56Z</time>
      </trkpt>
      <trkpt lat="43.42304" lon="5.45778">
        <ele>343.81</ele>
        <time>2020-12-12T16:20:09Z</time>
      </trkpt>
      <trkpt lat="43.42308" lon="5.45765">
        <ele>347.17</ele>
        <time>2020-12-12T16:20:22Z</time>
      </trkpt>
      <trkpt lat="43.42312" lon="5.45747">
        <ele>349.1</ele>
        <time>2020-12-12T16:20:39Z</time>
      </trkpt>
      <trkpt lat="43.42314" lon="5.45733">
        <ele>349.1</ele>
        <time>2020-12-12T16:20:51Z</time>
      </trkpt>
      <trkpt lat="43.42313" lon="5.45727">
        <ele>349.1</ele>
        <time>2020-12-12T16:20:55Z</time>
      </trkpt>
      <trkpt lat="43.4231" lon="5.45709">
        <ele>343.81</ele>
        <time>2020-12-12T16:21:06Z</time>
      </trkpt>
      <trkpt lat="43.4231" lon="5.45693">
        <ele>340.92</ele>
        <time>2020-12-12T16:21:19Z</time>
      </trkpt>
      <trkpt lat="43.4231" lon="5.45692">
        <ele>340.92</ele>
        <time>2020-12-12T16:21:20Z</time>
      </trkpt>
      <trkpt lat="43.42308" lon="5.45688">
        <ele>340.44</ele>
        <time>2020-12-12T16:21:25Z</time>
      </trkpt>
      <trkpt lat="43.4231" lon="5.45675">
        <ele>339.48</ele>
        <time>2020-12-12T16:21:39Z</time>
      </trkpt>
      <trkpt lat="43.42313" lon="5.45655">
        <ele>338.52</ele>
        <time>2020-12-12T16:21:55Z</time>
      </trkpt>
      <trkpt lat="43.42316" lon="5.45636">
        <ele>336.12</ele>
        <time>2020-12-12T16:22:09Z</time>
      </trkpt>
      <trkpt lat="43.42316" lon="5.45631">
        <ele>335.16</ele>
        <time>2020-12-12T16:22:12Z</time>
      </trkpt>
      <trkpt lat="43.42315" lon="5.45609">
        <ele>328.91</ele>
        <time>2020-12-12T16:22:28Z</time>
      </trkpt>
      <trkpt lat="43.42317" lon="5.45594">
        <ele>327.47</ele>
        <time>2020-12-12T16:22:41Z</time>
      </trkpt>
      <trkpt lat="43.42318" lon="5.45581">
        <ele>326.5</ele>
        <time>2020-12-12T16:22:53Z</time>
      </trkpt>
      <trkpt lat="43.42323" lon="5.45565">
        <ele>327.47</ele>
        <time>2020-12-12T16:23:07Z</time>
      </trkpt>
      <trkpt lat="43.42326" lon="5.4555">
        <ele>328.43</ele>
        <time>2020-12-12T16:23:20Z</time>
      </trkpt>
      <trkpt lat="43.42329" lon="5.45534">
        <ele>327.47</ele>
        <time>2020-12-12T16:23:34Z</time>
      </trkpt>
      <trkpt lat="43.42332" lon="5.45525">
        <ele>326.99</ele>
        <time>2020-12-12T16:23:42Z</time>
      </trkpt>
      <trkpt lat="43.42337" lon="5.45512">
        <ele>326.02</ele>
        <time>2020-12-12T16:23:55Z</time>
      </trkpt>
      <trkpt lat="43.42344" lon="5.45493">
        <ele>326.02</ele>
        <time>2020-12-12T16:24:11Z</time>
      </trkpt>
      <trkpt lat="43.42349" lon="5.45481">
        <ele>325.54</ele>
        <time>2020-12-12T16:24:21Z</time>
      </trkpt>
      <trkpt lat="43.42357" lon="5.45463">
        <ele>327.95</ele>
        <time>2020-12-12T16:24:38Z</time>
      </trkpt>
      <trkpt lat="43.42362" lon="5.4545">
        <ele>327.95</ele>
        <time>2020-12-12T16:24:52Z</time>
      </trkpt>
      <trkpt lat="43.42366" lon="5.45439">
        <ele>327.95</ele>
        <time>2020-12-12T16:25:02Z</time>
      </trkpt>
      <trkpt lat="43.42372" lon="5.45421">
        <ele>324.1</ele>
        <time>2020-12-12T16:25:16Z</time>
      </trkpt>
      <trkpt lat="43.42376" lon="5.45401">
        <ele>323.62</ele>
        <time>2020-12-12T16:25:32Z</time>
      </trkpt>
      <trkpt lat="43.4238" lon="5.45385">
        <ele>323.14</ele>
        <time>2020-12-12T16:25:45Z</time>
      </trkpt>
      <trkpt lat="43.42388" lon="5.45367">
        <ele>320.26</ele>
        <time>2020-12-12T16:26:00Z</time>
      </trkpt>
      <trkpt lat="43.42393" lon="5.45352">
        <ele>320.74</ele>
        <time>2020-12-12T16:26:13Z</time>
      </trkpt>
      <trkpt lat="43.42397" lon="5.45333">
        <ele>322.18</ele>
        <time>2020-12-12T16:26:28Z</time>
      </trkpt>
      <trkpt lat="43.42403" lon="5.45315">
        <ele>324.58</ele>
        <time>2020-12-12T16:26:42Z</time>
      </trkpt>
      <trkpt lat="43.42406" lon="5.45311">
        <ele>322.66</ele>
        <time>2020-12-12T16:26:46Z</time>
      </trkpt>
      <trkpt lat="43.42408" lon="5.45295">
        <ele>320.26</ele>
        <time>2020-12-12T16:26:59Z</time>
      </trkpt>
      <trkpt lat="43.42405" lon="5.45277">
        <ele>316.89</ele>
        <time>2020-12-12T16:27:13Z</time>
      </trkpt>
      <trkpt lat="43.42402" lon="5.4526">
        <ele>314.49</ele>
        <time>2020-12-12T16:27:25Z</time>
      </trkpt>
      <trkpt lat="43.42403" lon="5.45251">
        <ele>313.05</ele>
        <time>2020-12-12T16:27:31Z</time>
      </trkpt>
      <trkpt lat="43.42405" lon="5.45238">
        <ele>311.6</ele>
        <time>2020-12-12T16:27:40Z</time>
      </trkpt>
      <trkpt lat="43.42405" lon="5.45234">
        <ele>311.12</ele>
        <time>2020-12-12T16:27:43Z</time>
      </trkpt>
      <trkpt lat="43.42403" lon="5.45215">
        <ele>310.16</ele>
        <time>2020-12-12T16:27:58Z</time>
      </trkpt>
      <trkpt lat="43.42402" lon="5.45197">
        <ele>310.64</ele>
        <time>2020-12-12T16:28:12Z</time>
      </trkpt>
      <trkpt lat="43.42404" lon="5.45191">
        <ele>311.12</ele>
        <time>2020-12-12T16:28:17Z</time>
      </trkpt>
      <trkpt lat="43.42401" lon="5.45184">
        <ele>313.53</ele>
        <time>2020-12-12T16:28:30Z</time>
      </trkpt>
      <trkpt lat="43.42401" lon="5.4518">
        <ele>314.01</ele>
        <time>2020-12-12T16:28:43Z</time>
      </trkpt>
      <trkpt lat="43.42408" lon="5.4517">
        <ele>314.97</ele>
        <time>2020-12-12T16:28:56Z</time>
      </trkpt>
      <trkpt lat="43.42418" lon="5.45158">
        <ele>314.49</ele>
        <time>2020-12-12T16:29:10Z</time>
      </trkpt>
      <trkpt lat="43.42424" lon="5.45149">
        <ele>311.6</ele>
        <time>2020-12-12T16:29:24Z</time>
      </trkpt>
      <trkpt lat="43.42428" lon="5.45138">
        <ele>308.24</ele>
        <time>2020-12-12T16:29:38Z</time>
      </trkpt>
      <trkpt lat="43.42433" lon="5.45127">
        <ele>305.36</ele>
        <time>2020-12-12T16:29:50Z</time>
      </trkpt>
      <trkpt lat="43.42441" lon="5.45111">
        <ele>303.43</ele>
        <time>2020-12-12T16:30:01Z</time>
      </trkpt>
      <trkpt lat="43.42447" lon="5.45097">
        <ele>302.47</ele>
        <time>2020-12-12T16:30:16Z</time>
      </trkpt>
      <trkpt lat="43.4245" lon="5.45091">
        <ele>301.03</ele>
        <time>2020-12-12T16:30:29Z</time>
      </trkpt>
      <trkpt lat="43.42455" lon="5.45079">
        <ele>301.03</ele>
        <time>2020-12-12T16:30:44Z</time>
      </trkpt>
      <trkpt lat="43.42462" lon="5.4507">
        <ele>305.36</ele>
        <time>2020-12-12T16:30:58Z</time>
      </trkpt>
      <trkpt lat="43.42468" lon="5.45056">
        <ele>306.32</ele>
        <time>2020-12-12T16:31:11Z</time>
      </trkpt>
      <trkpt lat="43.42472" lon="5.45046">
        <ele>306.8</ele>
        <time>2020-12-12T16:31:22Z</time>
      </trkpt>
      <trkpt lat="43.42477" lon="5.45028">
        <ele>305.36</ele>
        <time>2020-12-12T16:31:38Z</time>
      </trkpt>
      <trkpt lat="43.42484" lon="5.45014">
        <ele>303.91</ele>
        <time>2020-12-12T16:31:50Z</time>
      </trkpt>
      <trkpt lat="43.42491" lon="5.44995">
        <ele>301.03</ele>
        <time>2020-12-12T16:32:03Z</time>
      </trkpt>
      <trkpt lat="43.42495" lon="5.44978">
        <ele>296.7</ele>
        <time>2020-12-12T16:32:14Z</time>
      </trkpt>
      <trkpt lat="43.42499" lon="5.44968">
        <ele>295.26</ele>
        <time>2020-12-12T16:32:20Z</time>
      </trkpt>
      <trkpt lat="43.425" lon="5.44951">
        <ele>296.7</ele>
        <time>2020-12-12T16:32:33Z</time>
      </trkpt>
      <trkpt lat="43.42502" lon="5.44941">
        <ele>296.22</ele>
        <time>2020-12-12T16:32:40Z</time>
      </trkpt>
      <trkpt lat="43.42503" lon="5.44921">
        <ele>296.22</ele>
        <time>2020-12-12T16:32:54Z</time>
      </trkpt>
      <trkpt lat="43.42495" lon="5.44901">
        <ele>290.46</ele>
        <time>2020-12-12T16:33:09Z</time>
      </trkpt>
      <trkpt lat="43.42484" lon="5.4489">
        <ele>289.49</ele>
        <time>2020-12-12T16:33:23Z</time>
      </trkpt>
      <trkpt lat="43.42481" lon="5.44888">
        <ele>289.49</ele>
        <time>2020-12-12T16:33:27Z</time>
      </trkpt>
      <trkpt lat="43.42478" lon="5.44886">
        <ele>289.97</ele>
        <time>2020-12-12T16:33:30Z</time>
      </trkpt>
      <trkpt lat="43.42467" lon="5.44874">
        <ele>290.46</ele>
        <time>2020-12-12T16:33:45Z</time>
      </trkpt>
      <trkpt lat="43.42462" lon="5.44872">
        <ele>289.97</ele>
        <time>2020-12-12T16:33:50Z</time>
      </trkpt>
      <trkpt lat="43.42455" lon="5.44865">
        <ele>288.05</ele>
        <time>2020-12-12T16:33:58Z</time>
      </trkpt>
      <trkpt lat="43.42449" lon="5.44848">
        <ele>285.65</ele>
        <time>2020-12-12T16:34:13Z</time>
      </trkpt>
      <trkpt lat="43.42451" lon="5.44833">
        <ele>286.61</ele>
        <time>2020-12-12T16:34:26Z</time>
      </trkpt>
      <trkpt lat="43.42448" lon="5.4482">
        <ele>292.86</ele>
        <time>2020-12-12T16:34:40Z</time>
      </trkpt>
      <trkpt lat="43.42447" lon="5.44799">
        <ele>300.07</ele>
        <time>2020-12-12T16:34:57Z</time>
      </trkpt>
      <trkpt lat="43.42446" lon="5.44792">
        <ele>301.51</ele>
        <time>2020-12-12T16:35:05Z</time>
      </trkpt>
      <trkpt lat="43.42449" lon="5.44788">
        <ele>301.99</ele>
        <time>2020-12-12T16:35:09Z</time>
      </trkpt>
      <trkpt lat="43.42461" lon="5.44782">
        <ele>303.91</ele>
        <time>2020-12-12T16:35:24Z</time>
      </trkpt>
      <trkpt lat="43.4247" lon="5.44779">
        <ele>304.39</ele>
        <time>2020-12-12T16:35:36Z</time>
      </trkpt>
      <trkpt lat="43.42484" lon="5.44774">
        <ele>302.47</ele>
        <time>2020-12-12T16:35:51Z</time>
      </trkpt>
      <trkpt lat="43.42498" lon="5.44771">
        <ele>297.67</ele>
        <time>2020-12-12T16:36:05Z</time>
      </trkpt>
      <trkpt lat="43.42514" lon="5.4476">
        <ele>293.82</ele>
        <time>2020-12-12T16:36:21Z</time>
      </trkpt>
      <trkpt lat="43.42526" lon="5.44746">
        <ele>289.97</ele>
        <time>2020-12-12T16:36:34Z</time>
      </trkpt>
      <trkpt lat="43.42535" lon="5.44732">
        <ele>289.49</ele>
        <time>2020-12-12T16:36:47Z</time>
      </trkpt>
      <trkpt lat="43.42544" lon="5.44717">
        <ele>292.38</ele>
        <time>2020-12-12T16:37:02Z</time>
      </trkpt>
      <trkpt lat="43.42553" lon="5.44701">
        <ele>297.18</ele>
        <time>2020-12-12T16:37:16Z</time>
      </trkpt>
      <trkpt lat="43.42561" lon="5.44683">
        <ele>299.11</ele>
        <time>2020-12-12T16:37:30Z</time>
      </trkpt>
      <trkpt lat="43.42568" lon="5.44661">
        <ele>299.11</ele>
        <time>2020-12-12T16:37:44Z</time>
      </trkpt>
      <trkpt lat="43.42576" lon="5.44639">
        <ele>298.15</ele>
        <time>2020-12-12T16:37:59Z</time>
      </trkpt>
      <trkpt lat="43.42581" lon="5.44617">
        <ele>294.3</ele>
        <time>2020-12-12T16:38:12Z</time>
      </trkpt>
      <trkpt lat="43.42582" lon="5.44614">
        <ele>293.82</ele>
        <time>2020-12-12T16:38:14Z</time>
      </trkpt>
      <trkpt lat="43.42586" lon="5.44591">
        <ele>291.9</ele>
        <time>2020-12-12T16:38:29Z</time>
      </trkpt>
      <trkpt lat="43.42588" lon="5.44577">
        <ele>290.46</ele>
        <time>2020-12-12T16:38:39Z</time>
      </trkpt>
      <trkpt lat="43.42589" lon="5.44568">
        <ele>289.49</ele>
        <time>2020-12-12T16:38:44Z</time>
      </trkpt>
      <trkpt lat="43.42588" lon="5.44553">
        <ele>289.01</ele>
        <time>2020-12-12T16:38:55Z</time>
      </trkpt>
      <trkpt lat="43.42588" lon="5.4455">
        <ele>288.53</ele>
        <time>2020-12-12T16:38:57Z</time>
      </trkpt>
      <trkpt lat="43.42591" lon="5.44525">
        <ele>288.53</ele>
        <time>2020-12-12T16:39:12Z</time>
      </trkpt>
      <trkpt lat="43.4259" lon="5.44522">
        <ele>288.53</ele>
        <time>2020-12-12T16:39:14Z</time>
      </trkpt>
      <trkpt lat="43.42591" lon="5.44519">
        <ele>288.05</ele>
        <time>2020-12-12T16:39:16Z</time>
      </trkpt>
      <trkpt lat="43.42589" lon="5.44509">
        <ele>287.09</ele>
        <time>2020-12-12T16:39:23Z</time>
      </trkpt>
      <trkpt lat="43.4259" lon="5.44491">
        <ele>286.61</ele>
        <time>2020-12-12T16:39:35Z</time>
      </trkpt>
      <trkpt lat="43.42591" lon="5.44486">
        <ele>287.09</ele>
        <time>2020-12-12T16:39:38Z</time>
      </trkpt>
      <trkpt lat="43.4258" lon="5.44462">
        <ele>283.25</ele>
        <time>2020-12-12T16:39:53Z</time>
      </trkpt>
      <trkpt lat="43.42576" lon="5.44452">
        <ele>282.28</ele>
        <time>2020-12-12T16:40:04Z</time>
      </trkpt>
      <trkpt lat="43.42576" lon="5.44437">
        <ele>282.77</ele>
        <time>2020-12-12T16:40:18Z</time>
      </trkpt>
      <trkpt lat="43.42577" lon="5.4442">
        <ele>282.28</ele>
        <time>2020-12-12T16:40:28Z</time>
      </trkpt>
      <trkpt lat="43.42576" lon="5.44418">
        <ele>282.28</ele>
        <time>2020-12-12T16:40:30Z</time>
      </trkpt>
      <trkpt lat="43.42577" lon="5.444">
        <ele>282.28</ele>
        <time>2020-12-12T16:40:43Z</time>
      </trkpt>
      <trkpt lat="43.42573" lon="5.44397">
        <ele>282.77</ele>
        <time>2020-12-12T16:40:55Z</time>
      </trkpt>
      <trkpt lat="43.42573" lon="5.44381">
        <ele>284.21</ele>
        <time>2020-12-12T16:41:09Z</time>
      </trkpt>
      <trkpt lat="43.42573" lon="5.44374">
        <ele>285.17</ele>
        <time>2020-12-12T16:41:14Z</time>
      </trkpt>
      <trkpt lat="43.42576" lon="5.44368">
        <ele>285.65</ele>
        <time>2020-12-12T16:41:18Z</time>
      </trkpt>
      <trkpt lat="43.42584" lon="5.44343">
        <ele>285.65</ele>
        <time>2020-12-12T16:41:36Z</time>
      </trkpt>
      <trkpt lat="43.42591" lon="5.44329">
        <ele>286.13</ele>
        <time>2020-12-12T16:41:50Z</time>
      </trkpt>
      <trkpt lat="43.42596" lon="5.44318">
        <ele>287.09</ele>
        <time>2020-12-12T16:42:00Z</time>
      </trkpt>
      <trkpt lat="43.42599" lon="5.44309">
        <ele>286.13</ele>
        <time>2020-12-12T16:42:15Z</time>
      </trkpt>
      <trkpt lat="43.42603" lon="5.44293">
        <ele>282.28</ele>
        <time>2020-12-12T16:42:28Z</time>
      </trkpt>
      <trkpt lat="43.42607" lon="5.44281">
        <ele>282.77</ele>
        <time>2020-12-12T16:42:44Z</time>
      </trkpt>
      <trkpt lat="43.42611" lon="5.44275">
        <ele>283.73</ele>
        <time>2020-12-12T16:42:50Z</time>
      </trkpt>
      <trkpt lat="43.42622" lon="5.44259">
        <ele>283.73</ele>
        <time>2020-12-12T16:43:04Z</time>
      </trkpt>
      <trkpt lat="43.4263" lon="5.44238">
        <ele>280.84</ele>
        <time>2020-12-12T16:43:18Z</time>
      </trkpt>
      <trkpt lat="43.42637" lon="5.4422">
        <ele>279.4</ele>
        <time>2020-12-12T16:43:30Z</time>
      </trkpt>
      <trkpt lat="43.42644" lon="5.44199">
        <ele>277</ele>
        <time>2020-12-12T16:43:41Z</time>
      </trkpt>
      <trkpt lat="43.42647" lon="5.44182">
        <ele>274.11</ele>
        <time>2020-12-12T16:43:54Z</time>
      </trkpt>
      <trkpt lat="43.42649" lon="5.44166">
        <ele>275.07</ele>
        <time>2020-12-12T16:44:05Z</time>
      </trkpt>
      <trkpt lat="43.42651" lon="5.44143">
        <ele>275.56</ele>
        <time>2020-12-12T16:44:19Z</time>
      </trkpt>
      <trkpt lat="43.42654" lon="5.44118">
        <ele>267.86</ele>
        <time>2020-12-12T16:44:33Z</time>
      </trkpt>
      <trkpt lat="43.42654" lon="5.44098">
        <ele>265.46</ele>
        <time>2020-12-12T16:44:47Z</time>
      </trkpt>
      <trkpt lat="43.42657" lon="5.4408">
        <ele>263.54</ele>
        <time>2020-12-12T16:45:00Z</time>
      </trkpt>
      <trkpt lat="43.42657" lon="5.4407">
        <ele>262.58</ele>
        <time>2020-12-12T16:45:10Z</time>
      </trkpt>
      <trkpt lat="43.42662" lon="5.4406">
        <ele>261.62</ele>
        <time>2020-12-12T16:45:24Z</time>
      </trkpt>
      <trkpt lat="43.42668" lon="5.44056">
        <ele>261.14</ele>
        <time>2020-12-12T16:45:33Z</time>
      </trkpt>
      <trkpt lat="43.42679" lon="5.44043">
        <ele>261.62</ele>
        <time>2020-12-12T16:45:47Z</time>
      </trkpt>
      <trkpt lat="43.42692" lon="5.44031">
        <ele>263.54</ele>
        <time>2020-12-12T16:46:01Z</time>
      </trkpt>
      <trkpt lat="43.42698" lon="5.44024">
        <ele>262.58</ele>
        <time>2020-12-12T16:46:10Z</time>
      </trkpt>
      <trkpt lat="43.42713" lon="5.44012">
        <ele>259.69</ele>
        <time>2020-12-12T16:46:27Z</time>
      </trkpt>
      <trkpt lat="43.42714" lon="5.44009">
        <ele>258.73</ele>
        <time>2020-12-12T16:46:29Z</time>
      </trkpt>
      <trkpt lat="43.42724" lon="5.43982">
        <ele>251.52</ele>
        <time>2020-12-12T16:46:45Z</time>
      </trkpt>
      <trkpt lat="43.42726" lon="5.4397">
        <ele>249.6</ele>
        <time>2020-12-12T16:46:58Z</time>
      </trkpt>
      <trkpt lat="43.4273" lon="5.43947">
        <ele>247.68</ele>
        <time>2020-12-12T16:47:12Z</time>
      </trkpt>
      <trkpt lat="43.42731" lon="5.43928">
        <ele>246.23</ele>
        <time>2020-12-12T16:47:26Z</time>
      </trkpt>
      <trkpt lat="43.42732" lon="5.43912">
        <ele>244.79</ele>
        <time>2020-12-12T16:47:39Z</time>
      </trkpt>
      <trkpt lat="43.42736" lon="5.4389">
        <ele>241.43</ele>
        <time>2020-12-12T16:47:53Z</time>
      </trkpt>
      <trkpt lat="43.42738" lon="5.43871">
        <ele>240.95</ele>
        <time>2020-12-12T16:48:07Z</time>
      </trkpt>
      <trkpt lat="43.42742" lon="5.43851">
        <ele>241.91</ele>
        <time>2020-12-12T16:48:23Z</time>
      </trkpt>
      <trkpt lat="43.42749" lon="5.43836">
        <ele>247.2</ele>
        <time>2020-12-12T16:48:39Z</time>
      </trkpt>
      <trkpt lat="43.42752" lon="5.4382">
        <ele>249.6</ele>
        <time>2020-12-12T16:48:49Z</time>
      </trkpt>
      <trkpt lat="43.42761" lon="5.43808">
        <ele>252</ele>
        <time>2020-12-12T16:49:05Z</time>
      </trkpt>
      <trkpt lat="43.42769" lon="5.43781">
        <ele>248.64</ele>
        <time>2020-12-12T16:49:19Z</time>
      </trkpt>
      <trkpt lat="43.42768" lon="5.43771">
        <ele>248.64</ele>
        <time>2020-12-12T16:49:33Z</time>
      </trkpt>
      <trkpt lat="43.42763" lon="5.4377">
        <ele>262.1</ele>
        <time>2020-12-12T16:49:46Z</time>
      </trkpt>
      <trkpt lat="43.42771" lon="5.43764">
        <ele>273.63</ele>
        <time>2020-12-12T16:50:00Z</time>
      </trkpt>
      <trkpt lat="43.42783" lon="5.43766">
        <ele>282.28</ele>
        <time>2020-12-12T16:50:15Z</time>
      </trkpt>
      <trkpt lat="43.42789" lon="5.43749">
        <ele>284.69</ele>
        <time>2020-12-12T16:50:29Z</time>
      </trkpt>
      <trkpt lat="43.42797" lon="5.43738">
        <ele>283.73</ele>
        <time>2020-12-12T16:50:40Z</time>
      </trkpt>
      <trkpt lat="43.42808" lon="5.43718">
        <ele>278.44</ele>
        <time>2020-12-12T16:50:54Z</time>
      </trkpt>
      <trkpt lat="43.42818" lon="5.43703">
        <ele>277.96</ele>
        <time>2020-12-12T16:51:09Z</time>
      </trkpt>
      <trkpt lat="43.42821" lon="5.43703">
        <ele>277.48</ele>
        <time>2020-12-12T16:51:12Z</time>
      </trkpt>
      <trkpt lat="43.42831" lon="5.43697">
        <ele>277.48</ele>
        <time>2020-12-12T16:51:24Z</time>
      </trkpt>
      <trkpt lat="43.4284" lon="5.43687">
        <ele>277</ele>
        <time>2020-12-12T16:51:36Z</time>
      </trkpt>
      <trkpt lat="43.42849" lon="5.4368">
        <ele>276.04</ele>
        <time>2020-12-12T16:51:42Z</time>
      </trkpt>
      <trkpt lat="43.42861" lon="5.43663">
        <ele>269.31</ele>
        <time>2020-12-12T16:51:50Z</time>
      </trkpt>
      <trkpt lat="43.42873" lon="5.43664">
        <ele>268.35</ele>
        <time>2020-12-12T16:52:03Z</time>
      </trkpt>
      <trkpt lat="43.42879" lon="5.4367">
        <ele>267.38</ele>
        <time>2020-12-12T16:52:09Z</time>
      </trkpt>
      <trkpt lat="43.42892" lon="5.43663">
        <ele>262.1</ele>
        <time>2020-12-12T16:52:22Z</time>
      </trkpt>
      <trkpt lat="43.42897" lon="5.43655">
        <ele>260.65</ele>
        <time>2020-12-12T16:52:33Z</time>
      </trkpt>
      <trkpt lat="43.42897" lon="5.43653">
        <ele>260.65</ele>
        <time>2020-12-12T16:52:34Z</time>
      </trkpt>
      <trkpt lat="43.42902" lon="5.43639">
        <ele>260.65</ele>
        <time>2020-12-12T16:52:47Z</time>
      </trkpt>
      <trkpt lat="43.42898" lon="5.43619">
        <ele>260.65</ele>
        <time>2020-12-12T16:53:02Z</time>
      </trkpt>
      <trkpt lat="43.42905" lon="5.43601">
        <ele>258.25</ele>
        <time>2020-12-12T16:53:15Z</time>
      </trkpt>
      <trkpt lat="43.42906" lon="5.43599">
        <ele>257.77</ele>
        <time>2020-12-12T16:53:16Z</time>
      </trkpt>
      <trkpt lat="43.42913" lon="5.43581">
        <ele>247.68</ele>
        <time>2020-12-12T16:53:29Z</time>
      </trkpt>
      <trkpt lat="43.42912" lon="5.43573">
        <ele>245.27</ele>
        <time>2020-12-12T16:53:48Z</time>
      </trkpt>
      <trkpt lat="43.42912" lon="5.43573">
        <ele>244.79</ele>
        <time>2020-12-12T16:54:05Z</time>
      </trkpt>
      <trkpt lat="43.42912" lon="5.43576">
        <ele>245.27</ele>
        <time>2020-12-12T16:54:20Z</time>
      </trkpt>
      <trkpt lat="43.42909" lon="5.43583">
        <ele>249.12</ele>
        <time>2020-12-12T16:54:38Z</time>
      </trkpt>
      <trkpt lat="43.4291" lon="5.43582">
        <ele>250.56</ele>
        <time>2020-12-12T16:54:58Z</time>
      </trkpt>
      <trkpt lat="43.42906" lon="5.4358">
        <ele>252.96</ele>
        <time>2020-12-12T16:55:17Z</time>
      </trkpt>
      <trkpt lat="43.4291" lon="5.43581">
        <ele>252</ele>
        <time>2020-12-12T16:55:30Z</time>
      </trkpt>
      <trkpt lat="43.4291" lon="5.43578">
        <ele>252</ele>
        <time>2020-12-12T16:55:48Z</time>
      </trkpt>
      <trkpt lat="43.42914" lon="5.43574">
        <ele>245.75</ele>
        <time>2020-12-12T16:56:04Z</time>
      </trkpt>
      <trkpt lat="43.42913" lon="5.43569">
        <ele>240.95</ele>
        <time>2020-12-12T16:56:22Z</time>
      </trkpt>
      <trkpt lat="43.42914" lon="5.43572">
        <ele>239.51</ele>
        <time>2020-12-12T16:56:43Z</time>
      </trkpt>
      <trkpt lat="43.42911" lon="5.4357">
        <ele>238.54</ele>
        <time>2020-12-12T16:56:55Z</time>
      </trkpt>
      <trkpt lat="43.42915" lon="5.4357">
        <ele>238.06</ele>
        <time>2020-12-12T16:57:17Z</time>
      </trkpt>
      <trkpt lat="43.42915" lon="5.43571">
        <ele>238.54</ele>
        <time>2020-12-12T16:57:28Z</time>
      </trkpt>
      <trkpt lat="43.42913" lon="5.43571">
        <ele>241.43</ele>
        <time>2020-12-12T16:57:41Z</time>
      </trkpt>
      <trkpt lat="43.42916" lon="5.43566">
        <ele>242.39</ele>
        <time>2020-12-12T16:58:05Z</time>
      </trkpt>
      <trkpt lat="43.42915" lon="5.43574">
        <ele>244.79</ele>
        <time>2020-12-12T16:58:29Z</time>
      </trkpt>
    </trkseg>
  </trk>
</gpx>